[[{"header":{"parameterUnit":"m.s-1","parameterCategory":1,"la1":31.0,"la2":29.5877,"lo1":-88.7671,"lo2":-86.6584,"dy":0.0162,"dx":0.0185,"nx":115,"ny":88,"refTime":"2024-04-22T18:00:00:Z","depth":0,"parameterNumber":2,"parameterNumberName":"U-component_of_WINDS"},"data":[0.0,0.0,0.0,0.0,0.0,0.0,0.0,0.0,0.0,0.0,0.0,0.0,0.0,0.0,0.0,0.0,0.0,0.0,0.0,0.0,0.0,0.0,0.0,0.0,0.0,0.0,0.0,0.0,0.0,0.0,0.0,0.0,0.0,0.0,0.0,0.0,0.0,0.0,0.0,0.0,0.0,0.0,0.0,0.0,0.0,0.0,0.0,0.0,0.0,0.0,0.0,0.0,0.0,0.0,0.0,0.0,0.0,0.0,0.0,0.0,0.0,0.0,0.0,0.0,0.0,0.0,0.0,0.0,0.0,0.0,0.0,0.0,0.0,0.0,0.0,0.0,0.0,0.0,0.0,0.0,0.0,0.0,0.0,0.0,0.0,0.0,0.0,0.0,0.0,0.0,0.0,0.0,0.0,0.0,0.0,0.0,0.0,0.0,0.0,0.0,0.0,0.0,0.0,0.0,0.0,0.0,0.0,0.0,0.0,0.0,0.0,0.0,0.0,0.0,0.0,0.0,0.0,0.0,0.0,0.0,0.0,0.0,0.0,0.0,0.0,0.0,0.0,0.0,0.0,0.0,0.0,0.0,0.0,0.0,0.0,0.0,0.0,0.0,0.0,0.0,0.0,0.0,0.0,0.0,0.0,0.0,0.0,0.0,0.0,0.0,0.0,0.0,0.0,0.0,0.0,0.0,0.0,0.0,0.0,0.0,0.0,0.0,0.0,0.0,0.0,0.0,0.0,0.0,0.0,0.0,0.0,0.0,0.0,0.0,0.0,0.0,0.0,0.0,0.0,0.0,0.0,0.0,0.0,0.0,0.0,0.0,0.0,0.0,0.0,0.0,0.0,0.0,0.0,0.0,0.0,0.0,0.0,0.0,0.0,0.0,0.0,0.0,0.0,0.0,0.0,0.0,0.0,0.0,0.0,0.0,0.0,0.0,0.0,0.0,0.0,0.0,0.0,0.0,0.0,0.0,0.0,0.0,0.0,0.0,0.0,0.0,0.0,0.0,0.0,0.0,0.0,0.0,0.0,0.0,0.0,0.0,0.0,0.0,0.0,0.0,0.0,0.0,0.0,0.0,0.0,0.0,0.0,0.0,0.0,0.0,0.0,0.0,0.0,0.0,0.0,0.0,0.0,0.0,0.0,0.0,0.0,0.0,0.0,0.0,0.0,0.0,0.0,0.0,0.0,0.0,0.0,0.0,0.0,0.0,0.0,0.0,0.0,0.0,0.0,0.0,0.0,0.0,0.0,0.0,0.0,0.0,0.0,0.0,0.0,0.0,0.0,0.0,0.0,0.0,0.0,0.0,0.0,0.0,0.0,0.0,0.0,0.0,0.0,0.0,0.0,0.0,0.0,0.0,0.0,0.0,0.0,0.0,0.0,0.0,0.0,0.0,0.0,0.0,0.0,0.0,0.0,0.0,0.0,0.0,0.0,0.0,0.0,0.0,0.0,0.0,0.0,0.0,0.0,0.0,0.0,0.0,0.0,0.0,0.0,0.0,0.0,0.0,0.0,0.0,0.0,0.0,0.0,0.0,0.0,0.0,0.0,0.0,0.0,0.0,0.0,0.0,0.0,0.0,0.0,0.0,0.0,0.0,0.0,0.0,0.0,0.0,0.0,0.0,0.0,0.0,0.0,0.0,0.0,0.0,0.0,0.0,0.0,0.0,0.0,0.0,0.0,0.0,0.0,0.0,0.0,0.0,0.0,0.0,0.0,0.0,0.0,0.0,0.0,0.0,0.0,0.0,0.0,0.0,0.0,0.0,0.0,0.0,0.0,0.0,0.0,0.0,0.0,0.0,0.0,0.0,0.0,0.0,0.0,0.0,0.0,0.0,0.0,0.0,0.0,0.0,0.0,0.0,0.0,0.0,0.0,0.0,0.0,0.0,0.0,0.0,0.0,0.0,0.0,0.0,0.0,0.0,0.0,0.0,0.0,0.0,0.0,0.0,0.0,0.0,0.0,0.0,0.0,0.0,0.0,0.0,0.0,0.0,0.0,0.0,0.0,0.0,0.0,0.0,0.0,0.0,0.0,0.0,0.0,0.0,0.0,0.0,0.0,0.0,0.0,0.0,0.0,0.0,0.0,0.0,0.0,0.0,0.0,0.0,0.0,0.0,0.0,0.0,0.0,0.0,0.0,0.0,0.0,0.0,0.0,0.0,0.0,0.0,0.0,0.0,0.0,0.0,0.0,0.0,0.0,0.0,0.0,0.0,0.0,0.0,0.0,0.0,0.0,0.0,0.0,0.0,0.0,0.0,0.0,0.0,0.0,0.0,0.0,0.0,0.0,0.0,0.0,0.0,0.0,0.0,0.0,0.0,0.0,0.0,0.0,0.0,0.0,0.0,0.0,0.0,0.0,0.0,0.0,0.0,0.0,0.0,0.0,0.0,0.0,0.0,0.0,0.0,0.0,0.0,0.0,0.0,0.0,0.0,0.0,0.0,0.0,0.0,0.0,0.0,0.0,0.0,0.0,0.0,0.0,0.0,0.0,0.0,0.0,0.0,0.0,0.0,0.0,0.0,0.0,0.0,0.0,0.0,0.0,0.0,0.0,0.0,0.0,0.0,0.0,0.0,0.0,0.0,0.0,0.0,0.0,0.0,0.0,0.0,0.0,0.0,0.0,0.0,0.0,0.0,0.0,0.0,0.0,0.0,0.0,0.0,0.0,0.0,0.0,0.0,0.0,0.0,0.0,0.0,0.0,0.0,0.0,0.0,0.0,0.0,0.0,0.0,0.0,0.0,0.0,0.0,0.0,0.0,0.0,0.0,0.0,0.0,0.0,0.0,0.0,0.0,0.0,0.0,0.0,0.0,0.0,0.0,0.0,0.0,0.0,0.0,0.0,0.0,0.0,0.0,0.0,0.0,0.0,0.0,0.0,0.0,0.0,0.0,0.0,0.0,0.0,0.0,0.0,0.0,0.0,0.0,0.0,0.0,0.0,0.0,0.0,0.0,0.0,0.0,0.0,0.0,0.0,0.0,0.0,0.0,0.0,0.0,0.0,0.0,0.0,0.0,0.0,0.0,0.0,0.0,0.0,0.0,0.0,0.0,0.0,0.0,0.0,0.0,0.0,0.0,0.0,0.0,0.0,0.0,0.0,0.0,0.0,0.0,0.0,0.0,0.0,0.0,0.0,0.0,0.0,0.0,0.0,0.0,0.0,0.0,0.0,0.0,0.0,0.0,0.0,0.0,0.0,0.0,0.0,0.0,0.0,0.0,0.0,0.0,0.0,0.0,0.0,0.0,0.0,0.0,0.0,0.0,0.0,0.0,0.0,0.0,0.0,0.0,0.0,0.0,0.0,0.0,0.0,0.0,0.0,0.0,0.0,0.0,0.0,0.0,0.0,0.0,0.0,0.0,0.0,0.0,0.0,0.0,0.0,0.0,0.0,0.0,0.0,0.0,0.0,0.0,0.0,0.0,0.0,0.0,0.0,0.0,0.0,0.0,0.0,0.0,0.0,0.0,0.0,0.0,0.0,0.0,0.0,0.0,0.0,0.0,0.0,0.0,0.0,0.0,0.0,0.0,0.0,0.0,0.0,0.0,0.0,0.0,0.0,0.0,0.0,0.0,0.0,0.0,0.0,0.0,0.0,0.0,0.0,0.0,0.0,0.0,0.0,0.0,0.0,0.0,0.0,0.0,0.0,0.0,0.0,0.0,0.0,0.0,0.0,0.0,0.0,0.0,0.0,0.0,0.0,0.0,0.0,0.0,0.0,0.0,0.0,0.0,0.0,0.0,0.0,0.0,0.0,0.0,0.0,0.0,0.0,0.0,0.0,0.0,0.0,0.0,0.0,0.0,0.0,0.0,0.0,0.0,0.0,0.0,0.0,0.0,0.0,0.0,0.0,0.0,0.0,0.0,0.0,0.0,0.0,0.0,0.0,0.0,0.0,0.0,0.0,0.0,0.0,0.0,0.0,0.0,0.0,0.0,0.0,0.0,0.0,0.0,0.0,0.0,0.0,0.0,0.0,0.0,0.0,0.0,0.0,0.0,0.0,0.0,0.0,0.0,0.0,0.0,0.0,0.0,0.0,0.0,0.0,0.0,0.0,0.0,0.0,0.0,0.0,0.0,0.0,0.0,0.0,0.0,0.0,0.0,0.0,0.0,0.0,0.0,0.0,0.0,0.0,0.0,0.0,0.0,0.0,0.0,0.0,0.0,0.0,0.0,0.0,0.0,0.0,0.0,0.0,0.0,0.0,0.0,0.0,0.0,0.0,0.0,0.0,0.0,0.0,0.0,-7.0026,0.0,0.0,0.0,-6.9416,0.0,0.0,0.0,0.0,0.0,0.0,0.0,0.0,0.0,0.0,0.0,0.0,0.0,0.0,0.0,0.0,0.0,0.0,0.0,0.0,0.0,0.0,0.0,0.0,0.0,0.0,0.0,0.0,0.0,0.0,0.0,0.0,0.0,0.0,0.0,0.0,0.0,0.0,0.0,0.0,0.0,0.0,0.0,0.0,0.0,0.0,0.0,0.0,0.0,0.0,0.0,0.0,0.0,0.0,0.0,0.0,0.0,0.0,0.0,0.0,0.0,0.0,0.0,0.0,0.0,0.0,0.0,0.0,0.0,0.0,0.0,0.0,0.0,0.0,0.0,0.0,0.0,0.0,0.0,0.0,0.0,0.0,0.0,0.0,0.0,0.0,0.0,0.0,0.0,0.0,0.0,0.0,0.0,0.0,0.0,0.0,0.0,0.0,0.0,0.0,0.0,0.0,0.0,0.0,0.0,0.0,0.0,0.0,0.0,0.0,-6.9525,-6.9416,-6.9416,-6.9268,-6.9008,0.0,0.0,0.0,0.0,0.0,0.0,0.0,0.0,0.0,0.0,0.0,0.0,0.0,0.0,0.0,0.0,0.0,0.0,0.0,0.0,0.0,0.0,0.0,0.0,0.0,0.0,0.0,0.0,0.0,0.0,0.0,0.0,0.0,0.0,0.0,0.0,0.0,0.0,0.0,0.0,0.0,0.0,0.0,0.0,0.0,0.0,0.0,0.0,0.0,0.0,0.0,0.0,0.0,0.0,0.0,0.0,0.0,0.0,0.0,0.0,0.0,0.0,0.0,0.0,0.0,0.0,0.0,0.0,0.0,0.0,0.0,0.0,0.0,0.0,0.0,0.0,0.0,0.0,0.0,0.0,0.0,0.0,0.0,0.0,0.0,0.0,0.0,0.0,0.0,0.0,0.0,0.0,0.0,0.0,0.0,0.0,0.0,0.0,0.0,0.0,0.0,0.0,0.0,0.0,0.0,0.0,0.0,0.0,0.0,0.0,0.0,0.0,-6.8898,-6.8819,-6.859,0.0,0.0,0.0,0.0,0.0,0.0,0.0,0.0,0.0,0.0,0.0,0.0,0.0,0.0,0.0,0.0,0.0,0.0,0.0,0.0,0.0,0.0,0.0,0.0,0.0,0.0,0.0,0.0,0.0,0.0,0.0,0.0,0.0,0.0,0.0,0.0,0.0,0.0,0.0,0.0,0.0,0.0,0.0,0.0,0.0,0.0,0.0,0.0,0.0,0.0,0.0,0.0,0.0,0.0,0.0,0.0,0.0,0.0,0.0,0.0,0.0,0.0,0.0,0.0,0.0,0.0,0.0,0.0,0.0,0.0,0.0,0.0,0.0,0.0,0.0,0.0,0.0,0.0,0.0,0.0,0.0,0.0,0.0,0.0,0.0,0.0,0.0,0.0,0.0,0.0,0.0,0.0,0.0,0.0,0.0,0.0,0.0,0.0,0.0,0.0,0.0,0.0,0.0,0.0,0.0,0.0,0.0,0.0,0.0,0.0,-6.8743,-6.8743,-6.8743,0.0,-6.8128,0.0,0.0,0.0,0.0,0.0,0.0,0.0,0.0,0.0,0.0,0.0,0.0,0.0,0.0,0.0,0.0,0.0,0.0,0.0,0.0,0.0,0.0,0.0,0.0,0.0,0.0,0.0,0.0,0.0,0.0,0.0,0.0,0.0,0.0,0.0,0.0,0.0,0.0,0.0,0.0,0.0,0.0,0.0,0.0,0.0,0.0,0.0,0.0,0.0,0.0,0.0,0.0,0.0,0.0,0.0,0.0,0.0,0.0,0.0,0.0,0.0,0.0,0.0,0.0,0.0,0.0,0.0,0.0,0.0,0.0,0.0,0.0,0.0,0.0,0.0,0.0,0.0,0.0,0.0,0.0,0.0,0.0,0.0,0.0,0.0,0.0,0.0,0.0,0.0,0.0,0.0,0.0,0.0,0.0,0.0,0.0,0.0,0.0,0.0,0.0,0.0,0.0,0.0,0.0,0.0,0.0,0.0,0.0,0.0,0.0,-6.7999,-6.7999,-6.7999,-6.7919,0.0,0.0,0.0,0.0,0.0,0.0,0.0,0.0,0.0,0.0,0.0,0.0,0.0,0.0,0.0,0.0,0.0,0.0,0.0,0.0,0.0,0.0,0.0,0.0,0.0,0.0,0.0,0.0,0.0,0.0,0.0,0.0,0.0,0.0,0.0,0.0,0.0,0.0,0.0,0.0,0.0,0.0,0.0,0.0,0.0,0.0,0.0,0.0,0.0,0.0,0.0,0.0,0.0,0.0,0.0,0.0,0.0,0.0,0.0,0.0,0.0,0.0,0.0,0.0,0.0,0.0,0.0,0.0,0.0,0.0,0.0,0.0,0.0,0.0,0.0,0.0,0.0,0.0,0.0,0.0,0.0,0.0,0.0,0.0,0.0,0.0,0.0,0.0,0.0,0.0,0.0,0.0,0.0,0.0,0.0,0.0,0.0,0.0,0.0,0.0,0.0,0.0,0.0,0.0,0.0,0.0,0.0,0.0,0.0,0.0,-6.7475,-6.7475,-6.7475,-6.7475,-6.7407,-6.7087,0.0,0.0,0.0,0.0,0.0,0.0,0.0,0.0,0.0,0.0,0.0,0.0,0.0,0.0,0.0,0.0,0.0,0.0,0.0,0.0,0.0,0.0,0.0,0.0,0.0,0.0,0.0,0.0,0.0,0.0,0.0,0.0,0.0,0.0,0.0,0.0,0.0,0.0,0.0,0.0,0.0,0.0,0.0,0.0,0.0,0.0,0.0,0.0,0.0,0.0,0.0,0.0,0.0,0.0,0.0,0.0,0.0,0.0,0.0,0.0,0.0,0.0,0.0,0.0,0.0,0.0,0.0,0.0,0.0,0.0,0.0,0.0,0.0,0.0,0.0,0.0,0.0,0.0,0.0,0.0,0.0,0.0,0.0,0.0,0.0,0.0,0.0,0.0,0.0,0.0,0.0,0.0,0.0,0.0,0.0,0.0,0.0,0.0,0.0,0.0,0.0,0.0,0.0,0.0,0.0,0.0,0.0,0.0,-6.7475,-6.751,-6.751,-6.751,-6.7475,-6.7052,0.0,0.0,0.0,0.0,0.0,0.0,0.0,0.0,0.0,0.0,0.0,0.0,0.0,0.0,0.0,0.0,0.0,0.0,0.0,0.0,0.0,0.0,0.0,0.0,0.0,0.0,0.0,0.0,0.0,0.0,0.0,0.0,0.0,0.0,0.0,0.0,0.0,0.0,0.0,0.0,0.0,0.0,0.0,0.0,0.0,0.0,0.0,0.0,0.0,0.0,0.0,0.0,0.0,0.0,0.0,0.0,0.0,0.0,0.0,0.0,0.0,0.0,0.0,0.0,0.0,0.0,0.0,0.0,0.0,0.0,0.0,0.0,0.0,0.0,0.0,0.0,0.0,0.0,0.0,0.0,0.0,0.0,0.0,0.0,0.0,0.0,0.0,0.0,0.0,0.0,0.0,0.0,0.0,0.0,0.0,0.0,0.0,0.0,0.0,0.0,0.0,0.0,0.0,0.0,0.0,0.0,0.0,0.0,0.0,-6.7022,-6.7097,-6.7063,-6.7063,-6.7063,-6.6682,0.0,0.0,0.0,0.0,0.0,0.0,0.0,0.0,0.0,0.0,0.0,0.0,0.0,0.0,0.0,0.0,0.0,0.0,0.0,0.0,0.0,0.0,0.0,0.0,0.0,0.0,0.0,0.0,0.0,0.0,0.0,0.0,0.0,0.0,0.0,0.0,0.0,0.0,0.0,0.0,0.0,0.0,0.0,0.0,0.0,0.0,0.0,0.0,0.0,0.0,0.0,0.0,0.0,0.0,0.0,0.0,0.0,0.0,0.0,0.0,0.0,0.0,0.0,0.0,0.0,0.0,0.0,0.0,0.0,0.0,0.0,0.0,0.0,0.0,0.0,0.0,0.0,0.0,0.0,0.0,0.0,0.0,0.0,0.0,0.0,0.0,0.0,0.0,0.0,0.0,0.0,0.0,0.0,0.0,0.0,0.0,0.0,0.0,0.0,0.0,0.0,0.0,0.0,0.0,0.0,0.0,0.0,0.0,0.0,-6.6812,0.0,-6.6812,-6.6812,-6.6812,-6.6474,0.0,0.0,0.0,0.0,0.0,0.0,0.0,0.0,0.0,0.0,0.0,0.0,0.0,0.0,0.0,0.0,0.0,0.0,0.0,0.0,0.0,0.0,0.0,0.0,0.0,0.0,0.0,0.0,0.0,0.0,0.0,0.0,0.0,0.0,0.0,0.0,0.0,0.0,0.0,0.0,0.0,0.0,0.0,0.0,0.0,0.0,0.0,0.0,0.0,0.0,0.0,0.0,0.0,0.0,0.0,0.0,0.0,0.0,0.0,0.0,0.0,0.0,0.0,0.0,0.0,0.0,0.0,0.0,0.0,0.0,0.0,0.0,0.0,0.0,0.0,0.0,0.0,0.0,0.0,0.0,0.0,0.0,0.0,0.0,0.0,0.0,0.0,0.0,0.0,0.0,0.0,0.0,0.0,0.0,0.0,0.0,0.0,0.0,0.0,0.0,0.0,0.0,0.0,0.0,0.0,0.0,0.0,0.0,-6.677,-6.677,-6.677,-6.677,-6.677,-6.677,-6.6432,0.0,0.0,0.0,0.0,0.0,0.0,0.0,0.0,0.0,0.0,0.0,0.0,0.0,0.0,0.0,0.0,0.0,0.0,0.0,0.0,0.0,0.0,0.0,0.0,0.0,0.0,0.0,0.0,0.0,0.0,0.0,0.0,0.0,0.0,0.0,0.0,0.0,0.0,0.0,0.0,0.0,0.0,0.0,0.0,0.0,0.0,0.0,0.0,0.0,0.0,0.0,0.0,0.0,0.0,0.0,0.0,0.0,0.0,0.0,0.0,0.0,0.0,0.0,0.0,0.0,0.0,0.0,0.0,0.0,0.0,0.0,0.0,0.0,0.0,0.0,0.0,0.0,0.0,0.0,0.0,0.0,0.0,0.0,0.0,0.0,0.0,0.0,0.0,0.0,0.0,0.0,0.0,0.0,0.0,0.0,0.0,0.0,0.0,0.0,0.0,0.0,0.0,0.0,0.0,0.0,0.0,0.0,0.0,0.0,-6.6311,-6.6311,-6.6311,-6.6311,-6.6311,-6.606,0.0,0.0,0.0,0.0,0.0,0.0,0.0,0.0,0.0,0.0,0.0,0.0,0.0,0.0,0.0,0.0,0.0,0.0,0.0,0.0,0.0,0.0,0.0,0.0,0.0,0.0,0.0,0.0,0.0,0.0,0.0,0.0,0.0,0.0,0.0,0.0,0.0,0.0,0.0,0.0,0.0,0.0,0.0,0.0,0.0,0.0,0.0,0.0,0.0,0.0,0.0,0.0,0.0,0.0,0.0,0.0,0.0,0.0,0.0,0.0,0.0,0.0,0.0,0.0,0.0,0.0,0.0,0.0,0.0,0.0,0.0,0.0,0.0,0.0,0.0,0.0,0.0,0.0,0.0,0.0,0.0,0.0,0.0,0.0,0.0,0.0,0.0,0.0,0.0,0.0,0.0,0.0,0.0,0.0,0.0,0.0,0.0,0.0,0.0,0.0,0.0,0.0,0.0,0.0,0.0,0.0,0.0,0.0,0.0,-6.5736,-6.5965,-6.6095,-6.6095,-6.6095,-6.5981,-6.5639,0.0,0.0,0.0,0.0,0.0,0.0,0.0,0.0,0.0,0.0,0.0,0.0,0.0,0.0,0.0,0.0,0.0,0.0,0.0,0.0,0.0,0.0,0.0,0.0,0.0,0.0,0.0,0.0,0.0,0.0,0.0,0.0,0.0,0.0,0.0,0.0,0.0,0.0,0.0,0.0,0.0,0.0,0.0,0.0,0.0,0.0,0.0,0.0,0.0,0.0,0.0,0.0,0.0,0.0,0.0,0.0,0.0,0.0,0.0,0.0,0.0,0.0,0.0,0.0,0.0,0.0,0.0,0.0,0.0,0.0,0.0,0.0,0.0,0.0,0.0,0.0,0.0,0.0,0.0,0.0,0.0,0.0,0.0,0.0,0.0,0.0,0.0,0.0,0.0,0.0,0.0,0.0,0.0,0.0,0.0,0.0,0.0,0.0,0.0,0.0,0.0,0.0,0.0,0.0,0.0,0.0,0.0,0.0,-6.5087,-6.5692,-6.6009,-6.6009,-6.6009,-6.6052,0.0,0.0,0.0,0.0,0.0,0.0,0.0,0.0,0.0,0.0,0.0,0.0,0.0,0.0,0.0,0.0,0.0,0.0,0.0,0.0,0.0,0.0,0.0,0.0,0.0,0.0,0.0,0.0,0.0,0.0,0.0,0.0,0.0,0.0,0.0,0.0,0.0,0.0,0.0,0.0,0.0,0.0,0.0,0.0,0.0,0.0,0.0,0.0,0.0,0.0,0.0,0.0,0.0,0.0,0.0,0.0,0.0,0.0,0.0,0.0,0.0,0.0,0.0,0.0,0.0,0.0,0.0,0.0,0.0,0.0,0.0,0.0,0.0,0.0,0.0,0.0,0.0,0.0,0.0,0.0,0.0,0.0,0.0,0.0,0.0,0.0,0.0,0.0,0.0,0.0,0.0,0.0,0.0,0.0,0.0,0.0,0.0,0.0,0.0,0.0,0.0,0.0,0.0,0.0,0.0,0.0,0.0,0.0,0.0,-6.4518,-6.4669,-6.4852,-6.5033,-6.5246,-6.5425,0.0,0.0,0.0,0.0,0.0,0.0,0.0,0.0,0.0,0.0,0.0,0.0,0.0,0.0,0.0,0.0,0.0,0.0,0.0,0.0,0.0,0.0,0.0,0.0,0.0,0.0,0.0,0.0,0.0,0.0,0.0,0.0,0.0,0.0,0.0,0.0,0.0,0.0,0.0,0.0,0.0,0.0,0.0,0.0,0.0,0.0,0.0,0.0,0.0,0.0,0.0,0.0,0.0,0.0,0.0,0.0,0.0,0.0,0.0,0.0,0.0,0.0,0.0,0.0,0.0,0.0,0.0,0.0,0.0,0.0,0.0,0.0,0.0,0.0,0.0,0.0,0.0,0.0,0.0,0.0,0.0,0.0,0.0,0.0,0.0,0.0,0.0,0.0,0.0,0.0,0.0,0.0,0.0,0.0,0.0,0.0,0.0,0.0,0.0,0.0,0.0,0.0,0.0,0.0,0.0,0.0,0.0,0.0,-6.4341,-6.3738,-6.3505,-6.3505,-6.3645,-6.4387,-6.493,0.0,0.0,0.0,0.0,0.0,0.0,0.0,0.0,0.0,0.0,0.0,0.0,0.0,0.0,0.0,0.0,0.0,0.0,0.0,0.0,0.0,0.0,0.0,0.0,0.0,0.0,0.0,0.0,0.0,0.0,0.0,0.0,0.0,0.0,0.0,0.0,0.0,0.0,0.0,0.0,0.0,0.0,0.0,0.0,0.0,0.0,0.0,0.0,0.0,0.0,0.0,0.0,0.0,0.0,0.0,0.0,0.0,0.0,0.0,0.0,0.0,0.0,0.0,0.0,0.0,0.0,0.0,0.0,0.0,0.0,0.0,0.0,0.0,0.0,0.0,0.0,0.0,0.0,0.0,0.0,0.0,0.0,0.0,0.0,0.0,0.0,0.0,0.0,0.0,0.0,0.0,0.0,0.0,0.0,0.0,0.0,0.0,0.0,0.0,0.0,0.0,0.0,0.0,0.0,0.0,0.0,0.0,0.0,-6.3556,-6.2751,-6.2378,-6.2173,-6.2125,-6.3459,-6.4407,0.0,0.0,0.0,0.0,0.0,0.0,0.0,0.0,0.0,0.0,0.0,0.0,0.0,0.0,0.0,0.0,0.0,0.0,0.0,0.0,0.0,0.0,0.0,0.0,0.0,0.0,0.0,0.0,0.0,0.0,0.0,0.0,0.0,0.0,0.0,0.0,0.0,0.0,0.0,0.0,0.0,0.0,0.0,0.0,0.0,0.0,0.0,0.0,0.0,0.0,0.0,0.0,0.0,0.0,0.0,0.0,0.0,0.0,0.0,0.0,0.0,0.0,0.0,0.0,0.0,0.0,0.0,0.0,0.0,0.0,0.0,0.0,0.0,0.0,0.0,0.0,0.0,0.0,0.0,0.0,0.0,0.0,0.0,0.0,0.0,0.0,0.0,0.0,0.0,0.0,0.0,0.0,0.0,0.0,0.0,0.0,0.0,0.0,0.0,0.0,0.0,0.0,0.0,0.0,0.0,0.0,0.0,0.0,-6.2988,-6.1742,-6.1909,-6.1891,-6.1597,-6.2599,-6.3515,0.0,0.0,0.0,0.0,0.0,0.0,0.0,0.0,0.0,0.0,0.0,0.0,0.0,0.0,0.0,0.0,0.0,0.0,0.0,0.0,0.0,0.0,0.0,0.0,0.0,0.0,0.0,0.0,0.0,0.0,0.0,0.0,0.0,0.0,0.0,0.0,0.0,0.0,0.0,0.0,0.0,0.0,0.0,0.0,0.0,0.0,0.0,0.0,-6.3817,0.0,0.0,0.0,0.0,0.0,0.0,0.0,0.0,0.0,0.0,0.0,0.0,0.0,0.0,0.0,0.0,0.0,0.0,0.0,0.0,0.0,0.0,0.0,0.0,0.0,0.0,0.0,0.0,0.0,0.0,0.0,0.0,0.0,0.0,0.0,0.0,0.0,0.0,0.0,0.0,0.0,0.0,0.0,0.0,0.0,0.0,0.0,0.0,0.0,0.0,0.0,0.0,0.0,0.0,0.0,0.0,0.0,0.0,0.0,-6.2377,-6.1288,-6.1307,-6.1239,-6.1061,-6.1758,-6.2745,0.0,0.0,0.0,0.0,0.0,0.0,0.0,0.0,0.0,0.0,0.0,0.0,0.0,0.0,0.0,0.0,0.0,0.0,0.0,0.0,0.0,0.0,0.0,0.0,0.0,0.0,0.0,0.0,0.0,0.0,0.0,0.0,0.0,0.0,0.0,0.0,0.0,0.0,0.0,0.0,0.0,0.0,0.0,0.0,0.0,0.0,0.0,0.0,0.0,0.0,0.0,0.0,0.0,0.0,0.0,0.0,0.0,0.0,0.0,0.0,0.0,0.0,0.0,0.0,0.0,0.0,0.0,0.0,0.0,0.0,0.0,0.0,0.0,0.0,0.0,0.0,0.0,0.0,0.0,0.0,0.0,0.0,0.0,0.0,0.0,0.0,0.0,0.0,0.0,0.0,0.0,0.0,0.0,0.0,0.0,0.0,0.0,0.0,0.0,0.0,0.0,0.0,0.0,0.0,0.0,0.0,0.0,-6.2531,-6.177,-6.0863,-6.0609,-6.0489,-6.0465,-6.1007,-6.2106,-6.369,0.0,0.0,0.0,0.0,0.0,0.0,0.0,0.0,0.0,0.0,0.0,0.0,0.0,0.0,0.0,0.0,0.0,0.0,0.0,0.0,0.0,0.0,0.0,0.0,0.0,0.0,0.0,0.0,0.0,0.0,0.0,0.0,0.0,0.0,0.0,0.0,0.0,0.0,-6.2135,-6.2135,0.0,0.0,0.0,0.0,0.0,0.0,0.0,0.0,-6.2184,0.0,0.0,0.0,0.0,0.0,0.0,0.0,0.0,0.0,0.0,0.0,0.0,0.0,0.0,0.0,0.0,0.0,0.0,0.0,0.0,0.0,0.0,0.0,0.0,0.0,0.0,0.0,0.0,0.0,0.0,0.0,0.0,0.0,0.0,0.0,0.0,0.0,0.0,0.0,0.0,0.0,0.0,0.0,0.0,0.0,0.0,0.0,0.0,0.0,0.0,0.0,0.0,0.0,0.0,0.0,0.0,-6.2531,-6.1784,-6.0936,-6.0012,-6.0053,-6.0031,-5.9941,-6.0537,-6.1438,-6.2629,0.0,0.0,0.0,0.0,0.0,0.0,0.0,0.0,0.0,0.0,0.0,0.0,0.0,0.0,0.0,0.0,0.0,0.0,0.0,0.0,0.0,0.0,0.0,0.0,0.0,0.0,0.0,0.0,0.0,0.0,0.0,0.0,0.0,0.0,0.0,0.0,0.0,0.0,0.0,-6.1052,-6.1052,0.0,0.0,0.0,0.0,0.0,0.0,0.0,0.0,-6.141,0.0,0.0,0.0,0.0,0.0,0.0,0.0,0.0,0.0,0.0,0.0,0.0,0.0,0.0,0.0,0.0,0.0,0.0,0.0,0.0,0.0,0.0,0.0,0.0,0.0,0.0,0.0,0.0,0.0,0.0,0.0,0.0,0.0,0.0,0.0,0.0,0.0,0.0,0.0,0.0,0.0,0.0,0.0,0.0,0.0,0.0,0.0,0.0,0.0,0.0,0.0,0.0,0.0,0.0,0.0,-6.1531,-6.1021,-6.0484,-5.9949,-5.9992,-5.994,-5.9949,-6.0484,-6.1052,0.0,0.0,0.0,0.0,0.0,0.0,0.0,0.0,0.0,0.0,0.0,0.0,0.0,0.0,0.0,0.0,0.0,0.0,0.0,0.0,0.0,0.0,0.0,0.0,0.0,0.0,0.0,0.0,0.0,0.0,0.0,0.0,0.0,0.0,0.0,0.0,0.0,0.0,0.0,0.0,-6.0114,-6.0114,-6.0114,0.0,0.0,0.0,0.0,0.0,0.0,-6.0407,-6.0617,0.0,0.0,0.0,0.0,0.0,0.0,0.0,0.0,0.0,0.0,0.0,0.0,0.0,0.0,0.0,0.0,0.0,0.0,0.0,0.0,0.0,0.0,0.0,0.0,0.0,0.0,0.0,0.0,0.0,0.0,0.0,0.0,0.0,0.0,0.0,0.0,0.0,0.0,0.0,0.0,0.0,0.0,0.0,0.0,0.0,0.0,0.0,0.0,0.0,0.0,0.0,0.0,0.0,0.0,0.0,-6.0638,-6.0324,-6.0008,-5.972,-5.9667,-5.9667,-5.975,-6.0167,-6.0534,0.0,0.0,0.0,0.0,0.0,0.0,0.0,0.0,0.0,0.0,0.0,0.0,0.0,0.0,0.0,0.0,0.0,0.0,0.0,0.0,0.0,0.0,0.0,0.0,0.0,0.0,0.0,0.0,0.0,0.0,0.0,0.0,0.0,0.0,0.0,0.0,0.0,0.0,0.0,0.0,0.0,-5.9261,-5.9261,-5.9045,0.0,0.0,0.0,0.0,-5.9261,-5.9506,0.0,0.0,0.0,0.0,0.0,0.0,0.0,0.0,0.0,0.0,0.0,0.0,0.0,0.0,0.0,0.0,0.0,0.0,0.0,0.0,0.0,0.0,0.0,0.0,0.0,0.0,0.0,0.0,0.0,0.0,0.0,0.0,0.0,0.0,0.0,0.0,0.0,0.0,0.0,0.0,0.0,0.0,0.0,0.0,0.0,0.0,0.0,0.0,0.0,0.0,0.0,0.0,0.0,0.0,0.0,0.0,-6.0,-5.9499,-5.9099,-5.8828,-5.8555,-5.8555,-5.8857,-5.9153,-5.9499,0.0,0.0,0.0,0.0,0.0,0.0,0.0,0.0,0.0,0.0,0.0,0.0,0.0,0.0,0.0,0.0,0.0,0.0,0.0,0.0,0.0,0.0,0.0,0.0,0.0,0.0,0.0,0.0,0.0,0.0,0.0,0.0,0.0,0.0,0.0,0.0,0.0,0.0,0.0,0.0,0.0,-5.839,-5.836,-5.8305,-5.8335,0.0,0.0,-5.836,-5.836,-5.8609,0.0,0.0,0.0,0.0,0.0,0.0,0.0,0.0,0.0,0.0,0.0,0.0,0.0,0.0,0.0,0.0,0.0,0.0,0.0,0.0,0.0,0.0,0.0,0.0,0.0,0.0,0.0,0.0,0.0,0.0,0.0,0.0,0.0,0.0,0.0,0.0,0.0,0.0,0.0,0.0,0.0,0.0,0.0,0.0,0.0,0.0,0.0,0.0,0.0,0.0,0.0,0.0,0.0,0.0,0.0,-5.9529,-5.9231,-5.8664,-5.8335,-5.8169,-5.7863,-5.7807,-5.8169,-5.8445,-5.8852,0.0,0.0,0.0,0.0,0.0,0.0,0.0,0.0,0.0,0.0,0.0,0.0,0.0,0.0,0.0,0.0,0.0,0.0,0.0,0.0,0.0,0.0,0.0,0.0,0.0,0.0,0.0,0.0,0.0,0.0,0.0,0.0,0.0,0.0,0.0,0.0,0.0,0.0,0.0,0.0,0.0,0.0,-5.7696,-5.7528,0.0,0.0,0.0,-5.7557,-5.764,0.0,0.0,0.0,0.0,0.0,0.0,0.0,0.0,0.0,0.0,0.0,0.0,0.0,0.0,0.0,0.0,0.0,0.0,0.0,0.0,0.0,0.0,0.0,0.0,0.0,0.0,0.0,0.0,0.0,0.0,0.0,0.0,0.0,0.0,0.0,0.0,0.0,0.0,0.0,0.0,0.0,0.0,0.0,0.0,0.0,0.0,0.0,0.0,0.0,0.0,0.0,0.0,0.0,0.0,0.0,0.0,0.0,-5.8335,-5.7781,-5.7445,-5.7332,-5.7078,-5.7107,-5.7332,-5.7725,0.0,0.0,0.0,0.0,0.0,0.0,0.0,0.0,0.0,0.0,0.0,0.0,0.0,0.0,0.0,0.0,0.0,0.0,0.0,0.0,0.0,0.0,0.0,0.0,0.0,0.0,0.0,-5.4466,0.0,0.0,0.0,0.0,0.0,0.0,0.0,0.0,0.0,0.0,0.0,0.0,0.0,0.0,-5.736,-5.7078,-5.6908,-5.6823,0.0,0.0,-5.711,-5.7252,-5.7565,-5.7732,0.0,0.0,0.0,0.0,0.0,0.0,0.0,0.0,0.0,0.0,0.0,0.0,0.0,0.0,0.0,0.0,0.0,0.0,0.0,0.0,0.0,0.0,0.0,0.0,0.0,0.0,0.0,0.0,-6.221,0.0,0.0,0.0,0.0,0.0,0.0,0.0,0.0,0.0,0.0,0.0,0.0,0.0,0.0,0.0,0.0,0.0,0.0,0.0,0.0,0.0,0.0,0.0,0.0,0.0,-5.7725,-5.736,-5.6794,-5.6365,-5.6135,-5.6105,-5.6105,-5.6163,-5.6709,-5.7107,0.0,0.0,0.0,0.0,0.0,0.0,0.0,0.0,0.0,0.0,0.0,0.0,0.0,0.0,0.0,0.0,0.0,0.0,0.0,0.0,0.0,0.0,0.0,0.0,0.0,0.0,0.0,0.0,0.0,0.0,0.0,0.0,0.0,0.0,0.0,0.0,0.0,0.0,0.0,0.0,0.0,-5.6451,-5.6451,-5.6451,-5.668,0.0,-5.7395,-5.7395,-5.7367,-5.7425,-5.7398,-5.7334,0.0,0.0,0.0,0.0,0.0,0.0,0.0,0.0,0.0,0.0,0.0,0.0,0.0,0.0,0.0,0.0,0.0,0.0,0.0,0.0,0.0,0.0,0.0,0.0,0.0,-6.2876,-6.2339,0.0,-6.1867,0.0,0.0,0.0,0.0,0.0,0.0,0.0,0.0,0.0,0.0,0.0,0.0,0.0,0.0,0.0,0.0,0.0,0.0,0.0,0.0,0.0,0.0,0.0,0.0,-5.7163,-5.6537,-5.6077,-5.5729,-5.5407,-5.5594,-5.5622,-5.5379,-5.5979,-5.6446,0.0,0.0,0.0,0.0,0.0,0.0,0.0,0.0,0.0,0.0,0.0,0.0,0.0,0.0,0.0,0.0,0.0,0.0,0.0,0.0,0.0,0.0,0.0,0.0,0.0,0.0,0.0,0.0,-5.3547,-5.4214,-5.5413,0.0,0.0,0.0,0.0,0.0,0.0,0.0,0.0,0.0,0.0,-5.6936,-5.6703,-5.7044,0.0,0.0,-5.7401,-5.7432,-5.761,-5.7641,-5.7674,-5.7915,-5.8205,0.0,0.0,0.0,0.0,0.0,0.0,0.0,0.0,0.0,0.0,0.0,0.0,0.0,0.0,0.0,0.0,0.0,0.0,0.0,0.0,0.0,0.0,0.0,0.0,0.0,0.0,0.0,-6.1279,0.0,0.0,0.0,0.0,0.0,0.0,0.0,0.0,0.0,0.0,0.0,0.0,0.0,0.0,0.0,0.0,0.0,0.0,0.0,0.0,0.0,0.0,0.0,0.0,-5.6566,-5.6128,-5.5454,-5.5122,-5.5077,-5.5215,-5.5182,-5.4951,-5.5431,-5.5858,0.0,0.0,0.0,0.0,0.0,0.0,0.0,0.0,0.0,0.0,0.0,0.0,0.0,0.0,0.0,0.0,0.0,0.0,0.0,0.0,0.0,0.0,0.0,0.0,0.0,0.0,0.0,0.0,-5.374,-5.4539,-5.5764,0.0,0.0,0.0,0.0,0.0,0.0,0.0,0.0,0.0,0.0,-5.6804,-5.6736,-5.7069,-5.7407,-5.751,-5.7538,-5.7599,-5.7934,-5.7934,-5.7998,-5.8099,0.0,0.0,0.0,0.0,0.0,0.0,0.0,0.0,0.0,0.0,0.0,0.0,0.0,0.0,0.0,0.0,0.0,0.0,0.0,0.0,0.0,0.0,0.0,0.0,0.0,0.0,0.0,-6.0524,0.0,0.0,-5.9129,0.0,0.0,0.0,0.0,0.0,0.0,0.0,0.0,0.0,0.0,0.0,0.0,0.0,0.0,0.0,0.0,0.0,0.0,0.0,0.0,0.0,0.0,-5.5805,-5.6307,-5.5105,-5.4704,-5.5212,-5.4979,-5.4853,-5.4799,-5.5105,-5.5367,-5.5436,0.0,0.0,0.0,0.0,0.0,0.0,0.0,0.0,0.0,0.0,0.0,0.0,0.0,0.0,0.0,0.0,0.0,0.0,0.0,0.0,0.0,0.0,0.0,0.0,0.0,0.0,-5.4063,-5.4601,-5.5196,0.0,0.0,0.0,0.0,0.0,0.0,0.0,0.0,0.0,-5.7126,-5.6275,-5.5773,-5.6265,-5.6347,-5.6747,-5.7639,-5.7784,-5.7908,-5.8216,-5.8278,-5.8175,0.0,0.0,0.0,0.0,0.0,0.0,0.0,0.0,0.0,0.0,0.0,0.0,0.0,0.0,0.0,0.0,0.0,0.0,0.0,0.0,0.0,0.0,0.0,0.0,0.0,0.0,0.0,-6.0753,-5.9615,0.0,0.0,0.0,0.0,0.0,0.0,0.0,0.0,0.0,0.0,0.0,-5.5088,-5.4762,0.0,0.0,0.0,0.0,0.0,0.0,0.0,0.0,0.0,0.0,0.0,0.0,-5.5782,-5.5133,-5.5025,-5.4889,-5.4664,-5.4938,-5.4874,-5.45,-5.5002,-5.5014,-5.4514,0.0,0.0,0.0,0.0,0.0,0.0,0.0,0.0,0.0,0.0,0.0,0.0,0.0,0.0,0.0,0.0,0.0,0.0,0.0,0.0,0.0,0.0,0.0,0.0,0.0,-5.3725,0.0,0.0,0.0,0.0,0.0,0.0,0.0,0.0,0.0,0.0,-5.6592,-5.6452,-5.6598,-5.6664,-5.6762,-5.6955,-5.7342,-5.7646,0.0,0.0,0.0,0.0,0.0,0.0,0.0,0.0,0.0,0.0,0.0,0.0,0.0,0.0,-6.0091,-6.0986,-6.1284,-6.1344,-6.1344,0.0,0.0,0.0,0.0,0.0,0.0,0.0,0.0,0.0,0.0,0.0,0.0,0.0,0.0,-6.0146,-5.9039,-5.9068,0.0,0.0,0.0,0.0,0.0,0.0,0.0,0.0,-5.528,-5.4737,-5.4406,-5.4127,-5.3847,-5.3538,-5.397,-5.4616,0.0,0.0,0.0,0.0,0.0,0.0,0.0,0.0,-5.5667,-5.5057,-5.4961,-5.481,-5.4599,-5.4708,-5.4577,-5.4183,-5.4497,-5.4364,-5.3853,-5.443,-5.4351,0.0,0.0,0.0,0.0,0.0,0.0,0.0,0.0,0.0,0.0,0.0,0.0,0.0,0.0,0.0,0.0,0.0,0.0,0.0,0.0,0.0,0.0,0.0,-5.3821,0.0,0.0,0.0,0.0,0.0,0.0,0.0,0.0,0.0,-5.6553,-5.636,-5.6328,-5.6429,-5.6522,-5.6677,-5.6895,0.0,0.0,0.0,0.0,0.0,0.0,0.0,-5.7816,-5.7788,-5.7916,-5.798,-5.798,-5.8206,-5.8459,-5.8459,0.0,0.0,-5.9981,-6.0194,-6.0194,-6.0165,-6.032,-6.0442,-6.0442,-6.0442,-6.0442,0.0,0.0,0.0,0.0,-6.2028,0.0,0.0,0.0,-6.1017,-6.0143,0.0,-5.878,0.0,0.0,0.0,0.0,-5.6304,-5.5705,0.0,0.0,-5.5203,-5.46,-5.4256,-5.3938,-5.3579,-5.3347,-5.3938,-5.4256,-5.424,-5.4737,0.0,0.0,0.0,0.0,0.0,0.0,-5.5618,-5.6006,-5.4902,-5.4524,-5.498,-5.4376,-5.3971,-5.4013,-5.3793,-5.3616,-5.3605,-5.3497,-5.3395,-5.3432,-5.4073,0.0,0.0,0.0,0.0,0.0,0.0,0.0,0.0,0.0,0.0,0.0,0.0,0.0,0.0,0.0,0.0,0.0,0.0,0.0,0.0,-5.4699,0.0,0.0,0.0,0.0,0.0,0.0,0.0,0.0,0.0,-5.5959,-5.6505,-5.5853,-5.5591,-5.6466,0.0,0.0,0.0,0.0,-5.6384,-5.7249,-5.6912,-5.6881,-5.7748,-5.7369,-5.699,-5.699,0.0,0.0,-5.6574,-5.6796,-5.699,-5.7082,-5.699,-5.7441,-5.8774,-5.9052,-5.9086,-5.9114,-5.9114,-5.9114,-5.9149,-5.9086,-5.9177,-6.0409,0.0,0.0,0.0,0.0,-6.0713,-6.0348,-5.9768,-5.9768,-5.9159,-5.8058,-5.8301,0.0,0.0,0.0,0.0,0.0,0.0,-5.5193,-5.4826,-5.4347,-5.3772,-5.3257,-5.3127,-5.2893,-5.2633,-5.2997,-5.3257,-5.323,-5.3583,-5.4467,-5.5728,0.0,0.0,0.0,0.0,-5.5579,-5.4863,-5.4826,-5.4649,-5.4335,-5.4132,-5.3997,-5.3997,-5.3885,-5.3695,-5.3284,-5.3412,-5.3504,-5.3369,-5.3583,0.0,0.0,0.0,0.0,0.0,0.0,0.0,0.0,0.0,0.0,0.0,0.0,0.0,0.0,0.0,0.0,0.0,0.0,0.0,-5.3322,-5.3227,-5.3288,0.0,0.0,0.0,0.0,0.0,0.0,0.0,0.0,0.0,-5.5248,-5.5379,-5.5601,0.0,0.0,-5.5459,-5.5326,-5.5578,-5.5723,-5.5722,-5.5591,0.0,-5.5829,-5.5723,-5.5617,-5.5617,-5.5525,-5.5459,-5.5459,-5.5525,-5.5591,-5.5617,-5.5617,-5.5723,-5.6117,-5.7028,-5.7633,-5.7697,-5.7697,-5.7697,-5.7697,-5.7697,-5.7697,-5.9052,-5.9953,-6.0259,-6.0075,-5.9611,-5.9454,-5.9142,-5.8613,-5.8459,-5.7937,-5.7161,-5.7321,-5.71,-5.6521,-5.6396,0.0,0.0,0.0,-5.4671,-5.4392,-5.4001,-5.3633,-5.3104,-5.2879,-5.2705,-5.2396,-5.268,-5.2813,-5.2813,-5.3369,-5.4132,-5.527,0.0,-5.5329,-5.5293,-5.573,-5.5534,-5.4576,-5.479,-5.467,-5.4125,-5.3988,-5.3818,-5.3614,-5.3589,-5.3368,-5.3038,-5.3145,-5.3104,-5.3034,-5.3241,-5.3518,0.0,0.0,0.0,0.0,0.0,0.0,0.0,0.0,0.0,0.0,0.0,-5.3499,-5.3608,0.0,0.0,0.0,-5.3166,-5.3041,-5.2906,-5.287,0.0,0.0,0.0,0.0,0.0,0.0,0.0,-5.4958,-5.497,-5.4779,-5.4174,-5.4174,-5.4443,-5.4939,-5.4939,-5.4872,-5.4645,0.0,-5.495,-5.4956,-5.464,-5.4428,-5.4702,-5.4412,-5.4148,-5.3945,-5.4081,-5.4081,-5.3945,-5.4081,-5.4216,-5.435,-5.435,-5.4418,-5.4578,-5.5286,-5.6039,-5.6432,-5.6628,-5.6693,-5.6693,-5.6693,-5.6693,-5.8135,-5.8135,-5.8739,-5.8864,-5.8515,-5.8198,-5.788,-5.756,-5.7211,-5.6692,-5.6205,-5.6205,-5.6205,-5.6141,-5.5821,0.0,-5.4655,-5.4394,-5.4285,-5.4443,-5.4106,-5.3793,-5.341,-5.3042,-5.2698,-5.2352,-5.2673,-5.2836,-5.2861,-5.3572,-5.4073,-5.4479,-5.4628,-5.4892,-5.5217,-5.5538,-5.547,-5.5121,-5.4937,-5.4617,-5.4322,-5.3993,-5.3507,-5.3005,-5.298,-5.298,-5.2904,-5.2767,-5.2599,-5.2666,-5.2994,-5.3164,-5.2997,0.0,0.0,0.0,0.0,0.0,0.0,0.0,0.0,0.0,0.0,0.0,0.0,0.0,0.0,-5.2633,-5.2476,0.0,-5.3166,-5.3153,0.0,0.0,0.0,-5.3414,-5.3908,-5.3682,-5.3716,-5.4231,0.0,0.0,-5.3291,-5.2673,-5.2673,-5.3725,-5.3861,-5.3861,-5.3835,-5.3861,-5.404,-5.4457,-5.3851,-5.3493,-5.3847,-5.3362,-5.2742,-5.2466,-5.2535,-5.2742,-5.2466,-5.2604,-5.2948,-5.3222,-5.3222,-5.3384,-5.3793,-5.3903,-5.42,-5.5206,-5.567,-5.5908,-5.5908,-5.5908,-5.5973,-5.7303,-5.7044,-5.7238,-5.7367,-5.756,-5.7174,-5.6758,-5.6497,-5.6367,-5.6221,-5.6114,-5.6114,-5.5957,-5.5722,-5.5367,-5.4944,-5.4571,-5.4437,-5.418,-5.3725,-5.3682,-5.3273,-5.2654,-5.256,-5.2283,-5.196,-5.203,-5.2297,-5.2692,-5.2833,-5.3453,-5.446,-5.4543,-5.4817,-5.5247,-5.6066,-5.5968,-5.5095,-5.5083,-5.4854,-5.4527,-5.4431,-5.4084,-5.3532,-5.3507,-5.3331,-5.2929,-5.2872,-5.3002,-5.325,-5.2919,-5.2935,-5.3374,-5.3503,0.0,0.0,0.0,0.0,0.0,0.0,0.0,0.0,0.0,-5.3126,-5.3324,0.0,-5.2807,0.0,-5.2193,-5.202,-5.2502,-5.2042,0.0,0.0,-5.2225,-5.2396,-5.2523,-5.2835,-5.3002,-5.2854,-5.2673,-5.2466,-5.2213,-5.203,-5.2005,-5.2283,-5.256,-5.2629,-5.2352,-5.256,-5.2654,-5.2596,-5.2382,-5.2263,-5.2387,-5.2243,-5.2005,-5.1935,-5.2005,-5.2005,-5.1935,-5.2005,-5.2074,-5.2144,-5.2144,-5.2238,-5.2352,-5.2767,-5.3222,-5.3495,-5.4039,-5.4578,-5.4846,-5.4913,-5.498,-5.7368,-5.717,-5.7064,-5.697,-5.6834,-5.637,-5.6066,-5.5868,-5.5736,-5.567,-5.5604,-5.5445,-5.518,-5.4872,-5.4645,-5.4376,-5.4039,-5.4064,-5.3725,-5.3273,-5.3067,-5.2792,-5.2377,-5.2252,-5.2094,-5.1883,-5.2103,-5.2372,-5.2665,-5.2833,-5.3338,-5.4039,-5.4645,-5.4976,-5.5096,-5.5846,-5.5802,-5.5056,-5.5026,-5.4938,-5.4938,-5.4795,-5.452,-5.411,-5.4084,-5.3833,-5.3281,-5.3281,-5.325,-5.3204,-5.3105,-5.3071,-5.3151,-5.3372,-5.3322,0.0,0.0,0.0,0.0,0.0,0.0,0.0,0.0,0.0,0.0,0.0,-5.2505,-5.2282,-5.1733,-5.159,-5.2043,-5.1705,-5.1501,-5.1729,-5.1868,-5.1905,-5.1905,-5.2222,-5.2352,-5.2074,-5.1935,-5.1702,-5.1376,-5.1165,-5.0954,-5.0813,-5.093,-5.1211,-5.1726,-5.1935,-5.2005,-5.1796,-5.1656,-5.1446,-5.133,-5.133,-5.133,-5.133,-5.133,-5.133,-5.133,-5.133,-5.133,-5.1516,-5.1516,-5.1586,-5.1726,-5.2074,-5.2421,-5.2491,-5.2904,-5.3495,-5.4106,-5.4309,-5.4402,-5.7795,-5.7728,-5.7388,-5.6988,-5.6487,-5.5986,-5.5696,-5.5498,-5.5232,-5.5099,-5.5032,-5.4578,-5.42,-5.3929,-5.3861,-5.3751,-5.341,-5.341,-5.3273,-5.2861,-5.2634,-5.2476,-5.2432,-5.2223,-5.2111,-5.2064,-5.2525,-5.2768,-5.2841,-5.3155,-5.3421,-5.3567,-5.4663,-5.5129,-5.4886,-5.5274,-5.54,-5.5214,-5.5024,-5.5057,-5.5418,-5.5057,-5.4807,-5.4641,-5.4662,-5.4411,-5.3858,-5.3733,-5.3482,-5.3055,-5.3255,-5.3113,-5.2607,-5.3094,-5.3171,0.0,-5.2932,0.0,0.0,0.0,0.0,0.0,0.0,0.0,0.0,-5.2129,-5.1959,-5.1582,-5.1294,-5.1333,-5.187,-5.1779,-5.1709,-5.1779,-5.1635,-5.1611,-5.1611,-5.1611,-5.1681,-5.1681,-5.1376,-5.1,-5.0648,-5.0317,-4.9961,-4.9652,-4.9652,-5.008,-5.1165,-5.1446,-5.1516,-5.1611,-5.1306,-5.1025,-5.0837,-5.0696,-5.0696,-5.0696,-5.0767,-5.0696,-5.0696,-5.0696,-5.0837,-5.1095,-5.1165,-5.1236,-5.1611,-5.1656,-5.1726,-5.1726,-5.2074,-5.2698,-5.3589,-5.3929,-5.3929,-5.766,-5.7388,-5.7346,-5.7062,-5.6778,-5.6605,-5.6029,-5.5232,-5.5099,-5.4939,-5.4578,-5.3929,-5.3682,-5.3546,-5.3273,-5.3067,-5.2998,-5.2998,-5.2998,-5.2886,-5.2939,-5.2812,-5.2555,-5.2643,-5.2526,-5.226,-5.2381,-5.2646,-5.3056,-5.313,-5.3495,-5.4179,-5.4499,-5.4721,-5.4943,0.0,0.0,0.0,-5.5628,-5.5458,-5.5531,-5.5483,-5.5209,-5.476,-5.5096,0.0,-5.4436,-5.3959,-5.3658,-5.3557,-5.2948,0.0,0.0,0.0,0.0,0.0,0.0,0.0,0.0,0.0,0.0,0.0,-5.259,-5.2396,-5.1729,-5.1781,-5.1827,-5.1718,-5.1761,-5.1983,-5.2389,-5.1607,-5.1249,-5.1464,-5.0865,-5.0459,-5.0459,-5.0696,-5.0908,-5.0908,-5.0837,-5.0625,-5.0365,-5.0175,-4.9985,-4.9579,-4.9509,-4.958,-4.9914,-5.027,-5.0388,-5.0459,-5.072,-5.0767,-5.0696,-5.0744,-5.0816,-5.0696,-5.0696,-5.072,-5.0768,-5.0744,-5.072,-5.0885,-5.0767,-5.0861,-5.0932,-5.1095,-5.1379,-5.1306,-5.1681,-5.2144,-5.2948,-5.3384,-5.3682,-5.8052,-5.7913,-5.7913,-5.7616,0.0,-5.7242,-5.6608,-5.5637,-5.5351,-5.4795,-5.3997,-5.3682,-5.341,-5.3204,-5.2998,-5.2861,-5.2861,-5.2861,-5.2917,-5.2984,-5.2907,-5.2801,-5.2739,-5.2841,-5.2864,-5.2668,-5.2932,-5.3173,-5.3437,-5.3437,-5.3632,-5.4098,-5.4347,-5.4496,-5.4719,-5.4892,-5.5189,-5.5632,-5.5238,-5.509,-5.5238,-5.509,-5.4967,-5.4941,-5.5063,0.0,0.0,0.0,0.0,0.0,0.0,0.0,0.0,-5.289,0.0,-5.2165,-5.2305,-5.2182,-5.1726,-5.1782,-5.1864,-5.1918,-5.1826,-5.1826,-5.1861,-5.1559,-5.1369,-5.1369,-5.1465,-5.1609,-5.1778,-5.1269,-5.105,-5.1196,-5.0813,-5.0575,-5.0575,-5.0865,-5.1154,-5.1154,-5.1321,-5.1273,-5.0671,-5.0599,-5.0381,-4.9773,-4.97,-4.9677,-4.9727,-4.9766,-4.9961,-5.0437,-5.0866,-5.1201,-5.1417,-5.1489,-5.1465,-5.1489,-5.1489,-5.1489,-5.1489,-5.1465,-5.1465,-5.1489,-5.1489,-5.1489,-5.1489,-5.1609,-5.1728,-5.1752,-5.2038,-5.237,-5.2745,-5.2934,-5.3074,-5.8523,-5.8523,-5.8523,-5.8235,-5.7817,-5.7887,-5.7268,-5.6209,-5.5598,0.0,0.0,-5.3562,-5.328,-5.2929,-5.303,-5.3055,-5.308,-5.3111,-5.3153,-5.3226,-5.2924,-5.2837,-5.2962,-5.3154,-5.3197,-5.3221,-5.363,-5.3822,-5.3822,-5.3822,-5.3822,-5.3822,-5.4122,-5.4248,-5.4197,-5.4421,-5.457,-5.457,-5.4496,-5.457,-5.4892,-5.457,-5.457,-5.4892,-5.4967,-5.4746,-5.4377,-5.4279,-5.396,-5.3446,-5.3251,-5.313,-5.3058,-5.2985,-5.2841,-5.2526,-5.2526,-5.2381,-5.2016,-5.2016,-5.1917,-5.1645,-5.1369,-5.1396,-5.1967,-5.1355,-5.0986,-5.0986,-5.1057,-5.1127,-5.1127,-5.1127,-5.1053,-5.1053,-5.0982,-5.0912,-5.0889,-5.1282,-5.1431,-5.1626,-5.1822,-5.182,-5.1208,-5.0963,-5.0713,-5.0117,-4.9899,-4.9916,-4.9876,-4.9843,-5.0075,-5.0864,-5.1249,-5.1706,-5.2115,-5.2211,-5.2283,-5.2187,-5.2235,-5.2283,-5.2283,-5.2283,-5.2283,-5.2187,-5.2283,-5.2235,-5.2259,-5.2284,-5.2283,-5.2283,-5.255,-5.2744,-5.2671,-5.2563,-5.2709,-5.8523,-5.8523,-5.8523,-5.847,-5.8392,-5.8392,-5.7629,-5.6425,-5.5535,-5.4791,-5.4188,-5.3816,-5.3426,-5.2886,-5.3406,-5.3582,-5.3632,-5.3757,-5.3889,-5.3821,-5.3594,-5.3473,-5.3497,-5.3635,-5.3702,-5.3726,-5.3798,-5.3822,-5.3822,-5.3822,-5.3822,-5.3822,-5.3897,-5.3747,-5.337,-5.3068,-5.2916,-5.2992,-5.3873,-5.4421,-5.4472,-5.4421,-5.4421,-5.4472,-5.4794,-5.5016,-5.4844,-5.4402,-5.4034,-5.3571,-5.2768,-5.2259,-5.1893,-5.1526,-5.1282,-5.1282,-5.1282,-5.1208,-5.1208,-5.1208,-5.1322,-5.1695,-5.1839,-5.1647,-5.1228,-5.106,-5.0986,-5.101,-5.1409,-5.1643,-5.1643,-5.1367,-5.1239,-5.1216,-5.0844,-5.0565,-5.0611,-5.0908,-5.1255,-5.155,-5.1332,-5.1255,-5.1178,-5.0857,-5.0583,-5.0089,-5.0076,-4.9962,-5.006,-5.0151,-5.0651,-5.1287,-5.1531,-5.1798,-5.2282,-5.2307,-5.2379,-5.2283,-5.2355,-5.2403,-5.2403,-5.2403,-5.2403,-5.2307,-5.2403,-5.2355,-5.2355,-5.2283,-5.2379,-5.2403,-5.2476,-5.2525,-5.2549,-5.2671,-5.291,-5.8523,-5.8523,-5.8523,-5.8523,-5.8452,-5.8096,-5.7441,-5.6611,-5.5998,-5.5203,-5.4517,-5.4255,-5.4034,-5.3833,-5.4059,-5.4089,-5.3903,-5.3939,-5.3951,-5.3788,-5.3619,-5.3666,-5.3709,-5.3777,-5.3822,-5.3822,-5.3822,-5.3822,-5.3822,-5.3822,-5.3672,-5.347,-5.3295,-5.3068,-5.284,-5.2688,-5.2612,-5.2612,-5.312,-5.3422,-5.3422,-5.3422,-5.3422,-5.3422,-5.3572,-5.3672,-5.3672,-5.3432,-5.3213,-5.3064,-5.2475,-5.1982,-5.1831,-5.1454,-5.1152,-5.0924,-5.0848,-5.0772,-5.0544,-5.0544,-5.0636,-5.0864,-5.1016,-5.0894,-5.059,-5.1,-5.1228,-5.1251,-5.146,-5.1599,-5.1599,-5.1446,-5.1393,-5.1393,-5.1162,-5.1023,-5.1023,-5.1303,-5.1605,-5.1831,-5.1831,-5.1831,-5.1629,-5.1379,-5.1175,-5.0818,-5.0742,-5.0719,-5.0719,-5.0848,-5.1112,-5.1628,-5.1929,-5.2369,-5.2954,-5.3125,-5.3125,-5.3125,-5.3125,-5.3101,-5.3125,-5.3101,-5.3101,-5.3101,-5.3101,-5.3125,-5.3101,-5.3125,-5.3125,-5.3125,-5.3101,-5.3125,-5.3101,-5.3249,-5.3447,-5.8523,-5.8523,-5.8523,-5.8452,-5.8284,-5.7595,-5.7091,-5.6801,-5.634,-5.5742,-5.4988,-5.4813,-5.4687,-5.4516,-5.4545,-5.4406,-5.4119,-5.4074,-5.4008,-5.3789,-5.3666,-5.3735,-5.3774,-5.3822,-5.3822,-5.3822,-5.3822,-5.3747,-5.3672,-5.3672,-5.3446,-5.3068,-5.2688,-5.2459,-5.2459,-5.2383,-5.2307,-5.2307,-5.2307,-5.2383,-5.2588,-5.2612,-5.2612,-5.2612,-5.2612,-5.2588,-5.2459,-5.2436,-5.243,-5.237,-5.2086,-5.1924,-5.1885,-5.1652,-5.1262,-5.1051,-5.0972,-5.0816,-5.0558,-5.0389,-5.0367,-5.0479,-5.0389,-5.0322,-5.0401,-5.0779,-5.1099,-5.1099,-5.1076,-5.1099,-5.1076,-5.1176,-5.1277,-5.1277,-5.1354,-5.1362,-5.1408,-5.1639,-5.1947,-5.2024,-5.223,-5.2207,-5.2077,-5.1947,-5.167,-5.1439,-5.1431,-5.1431,-5.1431,-5.1431,-5.1532,-5.1886,-5.2174,-5.2518,-5.3374,-5.3473,-5.3473,-5.3521,-5.3473,-5.335,-5.335,-5.3473,-5.3497,-5.335,-5.3449,-5.335,-5.3473,-5.3473,-5.3374,-5.3326,-5.3378,-5.36,-5.3726,-5.3726,-5.3828,-5.8523,-5.8523,-5.8523,-5.8284,-5.7856,-5.7163,-5.6874,-5.6729,-5.6365,-5.6168,-5.5968,-5.5541,-5.4824,-5.4188,-5.4586,-5.4592,-5.4205,-5.4353,-5.435,-5.4249,-5.3975,-5.3774,-5.3822,-5.3822,-5.3822,-5.3822,-5.3747,-5.3596,-5.3295,-5.3243,-5.3068,-5.2688,-5.223,-5.2077,-5.2,-5.1716,-5.1485,-5.1508,-5.1508,-5.187,-5.2535,-5.2612,-5.2612,-5.2612,-5.2612,-5.2459,-5.207,-5.21,-5.1901,-5.1614,-5.1581,-5.1572,-5.158,-5.1568,-5.159,-5.1487,-5.1487,-5.151,-5.1385,-5.1084,-5.0937,-5.142,-5.0982,-5.0838,-5.0815,-5.0513,-5.0322,-5.0344,-5.0344,-5.04,-5.0299,-5.0633,-5.0866,-5.0866,-5.1099,-5.1431,-5.1354,-5.1431,-5.1562,-5.1924,-5.1716,-5.1639,-5.187,-5.1716,-5.1508,-5.1431,-5.1431,-5.1431,-5.1431,-5.1431,-5.1485,-5.1854,-5.2007,-5.2213,-5.2688,-5.2764,-5.284,-5.2764,-5.2764,-5.284,-5.2816,-5.2816,-5.2764,-5.2968,-5.2816,-5.284,-5.284,-5.2764,-5.2764,-5.2916,-5.3143,-5.337,-5.3672,-5.3822,-5.3825,-5.8523,-5.8497,-5.8212,-5.7784,-5.7235,-5.6946,-5.6656,-5.6438,-5.6292,-5.6219,-5.612,-5.5749,-5.5306,-5.4986,-5.4892,-5.4697,-5.4327,-5.4398,-5.4248,-5.4023,-5.3897,-5.3822,-5.3822,-5.3822,-5.3672,-5.3446,-5.3446,-5.3219,-5.284,-5.2612,-5.2406,-5.223,-5.187,-5.1639,-5.1639,-5.1508,-5.1431,-5.1431,-5.1431,-5.1569,-5.1954,-5.2233,-5.2233,-5.2023,-5.2299,-5.2225,-5.1831,-5.1752,-5.1685,-5.1548,-5.133,-5.118,-5.1219,-5.0976,-5.0815,-5.0815,-5.0815,-5.0815,-5.0815,-5.0616,-5.0594,-5.0815,-5.0638,-5.0506,-5.0506,-5.0329,-5.0189,-4.9901,-5.0087,-5.0244,-5.0244,-5.0299,-5.0478,-5.0478,-5.0555,-5.0789,-5.1021,-5.1044,-5.1176,-5.1562,-5.1485,-5.1408,-5.1562,-5.1485,-5.1431,-5.1431,-5.1431,-5.1431,-5.1431,-5.1431,-5.1408,-5.1562,-5.1639,-5.1947,-5.2459,-5.2612,-5.2612,-5.2612,-5.2612,-5.2612,-5.2612,-5.2612,-5.2612,-5.2612,-5.2535,-5.2535,-5.2688,-5.2612,-5.2612,-5.2688,-5.2916,-5.3318,-5.3747,-5.3822,-5.3822,-5.8452,-5.8284,-5.7784,-5.7282,-5.6801,-5.6656,-5.6438,-5.6219,-5.6219,-5.612,-5.5999,-5.5607,-5.5411,-5.5238,-5.4967,-5.4645,-5.4248,-5.4248,-5.4098,-5.3822,-5.3822,-5.3822,-5.3822,-5.3672,-5.3446,-5.3219,-5.3068,-5.284,-5.2459,-5.2,-5.187,-5.1793,-5.1562,-5.1431,-5.1431,-5.1431,-5.1431,-5.1431,-5.1354,-5.1272,-5.1492,-5.1831,-5.19,-5.1628,-5.1945,-5.1805,-5.13,-5.1219,-5.1146,-5.1116,-5.0791,-5.0775,-5.0966,-5.072,-5.0556,-5.0452,-5.024,-5.0158,-5.0288,-5.018,-5.0158,-5.0266,-5.0201,-5.0197,-5.0257,-5.023,-5.0012,-4.9949,-5.0056,-5.0209,-4.9852,-4.9931,-5.0009,-5.0009,-5.0087,-5.0299,-5.0555,-5.0633,-5.0789,-5.1176,-5.1176,-5.1277,-5.1354,-5.1431,-5.1431,-5.1431,-5.1431,-5.1431,-5.1431,-5.1431,-5.1431,-5.1431,-5.1431,-5.1639,-5.2154,-5.223,-5.223,-5.2307,-5.223,-5.223,-5.2307,-5.223,-5.223,-5.2,-5.223,-5.223,-5.2154,-5.2154,-5.2383,-5.2459,-5.2688,-5.3015,-5.3295,-5.3446,-5.3446,-5.8284,-5.7856,-5.7138,-5.6874,-5.6801,-5.6438,-5.6219,-5.6219,-5.6219,-5.5999,-5.5632,-5.5263,-5.4818,-5.4496,-5.4496,-5.4197,-5.3897,-5.3897,-5.3822,-5.3822,-5.3822,-5.3822,-5.3747,-5.337,-5.3219,-5.3068,-5.2764,-5.2406,-5.2047,-5.1662,-5.1431,-5.1454,-5.15,-5.1477,-5.1423,-5.1446,-5.1454,-5.1368,-5.1058,-5.1084,-5.1481,-5.1615,-5.1599,-5.1586,-5.1667,-5.1308,-5.0534,-5.0327,-5.0218,-4.9844,-4.9865,-5.0224,-5.0946,-5.0989,-5.0968,-5.0946,-5.0267,-4.9952,-5.025,-4.9995,-4.9931,-5.025,-5.0057,-4.9948,-5.0321,-5.0041,-4.9946,-5.0202,-5.024,-4.9949,-4.9227,-4.9412,-4.9605,-4.9583,-4.9931,-5.0143,-5.0244,-5.0244,-5.04,-5.0711,-5.0866,-5.0944,-5.1277,-5.1431,-5.1331,-5.1277,-5.1354,-5.1354,-5.1354,-5.1354,-5.1431,-5.1431,-5.1431,-5.1431,-5.1485,-5.1639,-5.1562,-5.1639,-5.1716,-5.1562,-5.1508,-5.1431,-5.1508,-5.1508,-5.1639,-5.1639,-5.1485,-5.1562,-5.1793,-5.1947,-5.21,-5.2383,-5.2916,-5.2764,-5.2887,-5.7713,-5.7163,-5.6946,-5.6656,-5.6438,-5.6292,-5.6219,-5.6219,-5.6219,-5.5999,-5.5558,-5.5189,-5.4818,-5.4421,-5.4122,-5.3972,-5.3822,-5.3822,-5.3822,-5.3822,-5.3822,-5.3822,-5.3747,-5.337,-5.3068,-5.2764,-5.2406,-5.2186,-5.2101,-5.1991,-5.2074,-5.2327,-5.2372,-5.2215,-5.2001,-5.2001,-5.1821,-5.1526,-5.1368,-5.1433,-5.1536,-5.1353,-5.1246,-5.1328,-5.1576,-5.141,-5.083,-5.058,-5.031,-5.0166,-5.0166,-5.0314,-5.0633,-5.0654,-5.0654,-5.0654,-5.0336,-5.023,-5.0358,-5.0251,-5.0209,-5.0358,-5.0251,-5.0145,-5.0376,-5.0248,-5.0055,-4.9965,-4.9962,-4.9579,-4.9226,-4.9322,-4.9526,-4.9583,-4.9421,-4.9482,-4.9695,-4.9774,-4.9931,-5.0322,-5.04,-5.0478,-5.0633,-5.0633,-5.0633,-5.0633,-5.0866,-5.1021,-5.1099,-5.1199,-5.1354,-5.1431,-5.1431,-5.1431,-5.1431,-5.1431,-5.1431,-5.1431,-5.1431,-5.1431,-5.1431,-5.1431,-5.1431,-5.1508,-5.1431,-5.1431,-5.1431,-5.1431,-5.1562,-5.1793,-5.1947,-5.21,-5.2512,-5.2553,-5.2717,-5.7235,-5.6801,-5.6656,-5.6438,-5.6219,-5.6219,-5.6219,-5.6194,-5.6072,-5.5754,-5.5411,-5.4942,-5.457,-5.4197,-5.3897,-5.3822,-5.3822,-5.3822,-5.3822,-5.3822,-5.3822,-5.3822,-5.3747,-5.3219,-5.284,-5.2512,-5.2077,-5.1916,-5.2198,-5.2189,-5.2441,-5.2855,-5.2742,-5.2582,-5.2286,-5.2126,-5.1885,-5.1644,-5.1483,-5.1404,-5.1416,-5.1048,-5.0851,-5.0843,-5.1076,-5.0991,-5.0675,-5.0316,-5.0061,-4.9976,-4.9976,-5.0061,-5.0146,-5.0146,-5.0146,-5.0146,-5.0061,-4.9976,-4.9976,-4.9976,-4.9976,-4.9976,-4.9976,-4.9976,-5.0146,-5.0146,-5.0061,-4.9933,-4.9953,-4.9783,-4.9569,-4.9553,-4.9535,-4.9465,-4.9242,-4.9308,-4.9526,-4.9707,-4.9937,-5.0221,-5.0434,-5.0345,-5.0188,-5.0244,-5.0244,-5.0244,-5.0478,-5.0633,-5.0633,-5.0944,-5.1176,-5.1199,-5.1354,-5.1354,-5.1431,-5.1431,-5.1431,-5.1431,-5.1431,-5.1431,-5.1431,-5.1431,-5.1431,-5.1431,-5.1431,-5.1431,-5.1431,-5.1431,-5.1562,-5.1793,-5.1816,-5.184,-5.214,-5.2457,-5.2713,-5.6801,-5.6729,-5.6365,-5.6219,-5.6219,-5.6219,-5.6219,-5.6146,-5.5754,-5.5411,-5.5016,-5.4645,-5.4248,-5.3897,-5.3822,-5.3822,-5.3822,-5.3822,-5.3822,-5.3822,-5.3822,-5.3822,-5.3747,-5.3068,-5.2612,-5.2459,-5.1793,-5.1707,-5.2212,-5.2281,-5.251,-5.2798,-5.2662,-5.249,-5.2354,-5.1962,-5.1676,-5.1536,-5.1235,-5.1064,-5.09,-5.0617,-5.0394,-5.0358,-4.9976,-4.9827,-4.9742,-4.9742,-4.9572,-4.923,-4.9144,-4.9315,-4.9657,-4.9742,-4.9657,-4.9657,-4.9401,-4.9144,-4.9144,-4.9251,-4.923,-4.923,-4.9144,-4.9401,-4.9657,-4.9742,-4.9806,-5.0083,-5.0167,-5.0231,-5.0167,-4.9827,-4.9485,-4.9103,-4.9343,-4.9523,-4.967,-5.0039,-5.0271,-5.0197,-5.0485,-5.0602,-5.0345,-5.0244,-5.021,-5.0143,-5.0255,-5.021,-5.0266,-5.0555,-5.0789,-5.0866,-5.1021,-5.1199,-5.1354,-5.1431,-5.1431,-5.1431,-5.1431,-5.1431,-5.1431,-5.1431,-5.1431,-5.1431,-5.1431,-5.1431,-5.1431,-5.1431,-5.1431,-5.1585,-5.1554,-5.177,-5.2031,-5.2418,-5.2654,-5.6656,-5.6365,-5.6292,-5.6219,-5.6219,-5.6219,-5.6219,-5.6146,-5.5779,-5.5411,-5.4967,-5.457,-5.4173,-5.3897,-5.3822,-5.3822,-5.3822,-5.3822,-5.3822,-5.3822,-5.3822,-5.3822,-5.3672,-5.2968,-5.2307,-5.1793,-5.1562,-5.1867,-5.251,-5.2648,-5.3004,-5.3391,-5.3365,-5.298,-5.2361,-5.2219,-5.189,-5.1332,-5.1166,-5.0898,-5.0587,-5.0103,-4.9934,-4.987,-4.9486,-4.9315,-4.9315,-4.9315,-4.923,-4.9059,-4.9059,-4.9144,-4.923,-4.9315,-4.9315,-4.9315,-4.9144,-4.9059,-4.9059,-4.9059,-4.9059,-4.9059,-4.9059,-4.9144,-4.923,-4.9315,-4.9401,-4.9486,-4.9486,-4.9486,-4.9445,-4.9382,-4.9322,-4.9466,-4.9313,-4.9246,-4.9371,-4.9657,-4.9876,-4.9931,-5.019,-5.0345,-5.0315,-5.0249,-5.0175,-4.991,-5.0025,-5.0095,-4.9885,-5.0154,-5.04,-5.04,-5.0711,-5.1044,-5.1099,-5.1199,-5.1354,-5.1354,-5.1431,-5.1431,-5.1431,-5.1431,-5.1431,-5.1431,-5.1431,-5.1431,-5.1431,-5.1431,-5.1431,-5.1569,-5.1784,-5.1991,-5.2143,-5.2487,-5.2878,-5.6438,-5.6219,-5.6219,-5.6219,-5.6219,-5.6219,-5.6146,-5.5926,-5.5558,-5.5189,-5.4719,-5.4347,-5.4047,-5.3822,-5.3822,-5.3822,-5.3822,-5.3822,-5.3822,-5.3822,-5.3822,-5.3822,-5.3672,-5.2992,-5.2154,-5.1485,-5.1431,-5.1844,-5.2602,-5.2696,-5.2936,-5.3375,-5.3341,-5.2995,-5.2437,-5.2081,-5.1601,-5.1181,-5.0907,-5.0569,-5.0146,-4.9827,-4.9657,-4.9486,-4.923,-4.9144,-4.9059,-4.9059,-4.9059,-4.9059,-4.9059,-4.9059,-4.9059,-4.9144,-4.9059,-4.9059,-4.9059,-4.9059,-4.9059,-4.9059,-4.9059,-4.9059,-4.9059,-4.9144,-4.9059,-4.9059,-4.9059,-4.9059,-4.9144,-4.9059,-4.9144,-4.9144,-4.9276,-4.9428,-4.9427,-4.9299,-4.9528,-4.9799,-4.9879,-4.9876,-4.9933,-5.0033,-5.0066,-5.0083,-5.0077,-4.9934,-5.011,-5.0205,-4.9932,-5.0073,-5.0164,-5.0188,-5.0412,-5.0623,-5.0811,-5.1044,-5.1199,-5.1354,-5.1431,-5.1431,-5.1431,-5.1431,-5.1431,-5.1431,-5.1431,-5.1431,-5.1431,-5.1431,-5.1454,-5.1684,-5.1982,-5.2327,-5.2625,-5.2969,-5.336,-5.6219,-5.6219,-5.6219,-5.6219,-5.6219,-5.6219,-5.5999,-5.5632,-5.5189,-5.4818,-5.4397,-5.4047,-5.3822,-5.3822,-5.3822,-5.3822,-5.3822,-5.3822,-5.3822,-5.3822,-5.3822,-5.3747,-5.3596,-5.2916,-5.223,-5.1562,-5.1431,-5.173,-5.2258,-5.2229,-5.2513,-5.2895,-5.2622,-5.2331,-5.2081,-5.1517,-5.1097,-5.0844,-5.0569,-5.0146,-4.9742,-4.9657,-4.9486,-4.9144,-4.9165,-4.9059,-4.9059,-4.9059,-4.9059,-4.9059,-4.9059,-4.9059,-4.9059,-4.9059,-4.9059,-4.9059,-4.9059,-4.9059,-4.9059,-4.9059,-4.9059,-4.9059,-4.9059,-4.9059,-4.9059,-4.9059,-4.9059,-4.9059,-4.9059,-4.9059,-4.9059,-4.9059,-4.9124,-4.9144,-4.934,-4.968,-5.0188,-5.0231,-5.0018,-4.9763,-4.9741,-4.9801,-4.9872,-4.9829,-5.0011,-5.0126,-5.0268,-5.0305,-5.0271,-5.0249,-5.0233,-5.0215,-5.0275,-5.0356,-5.0569,-5.0811,-5.1044,-5.1122,-5.1277,-5.1454,-5.1431,-5.1508,-5.1431,-5.1431,-5.1454,-5.1454,-5.1477,-5.1523,-5.1661,-5.1959,-5.2327,-5.2763,-5.313,-5.3452,-5.3727,-5.6219,-5.6219,-5.6219,-5.6219,-5.6219,-5.6219,-5.5999,-5.5558,-5.5189,-5.4719,-5.4347,-5.3972,-5.3822,-5.3822,-5.3822,-5.3822,-5.3822,-5.3822,-5.3822,-5.3822,-5.3822,-5.3596,-5.3295,-5.284,-5.2383,-5.187,-5.1585,-5.1684,-5.2143,-5.1831,-5.2013,-5.242,-5.2086,-5.1774,-5.1452,-5.1181,-5.076,-5.0167,-4.9997,-4.9636,-4.9315,-4.9315,-4.923,-4.9144,-4.9059,-4.9059,-4.9059,-4.9059,-4.9059,-4.9059,-4.9059,-4.9059,-4.9059,-4.9059,-4.9059,-4.9059,-4.9059,-4.9059,-4.9059,-4.9059,-4.9059,-4.9059,-4.9059,-4.9059,-4.9059,-4.9059,-4.9059,-4.9059,-4.9059,-4.9059,-4.9059,-4.9059,-4.9059,-4.9144,-4.923,-4.9315,-4.9486,-4.9721,-4.9849,-4.9744,-4.9956,-5.0102,-5.0101,-5.0121,-5.0182,-5.0361,-5.0335,-5.0435,-5.0382,-5.0327,-5.0293,-5.022,-5.0285,-5.0282,-5.0377,-5.0658,-5.0811,-5.0944,-5.1122,-5.1477,-5.1531,-5.1639,-5.1585,-5.1508,-5.1701,-5.1724,-5.1738,-5.1707,-5.1959,-5.2327,-5.2809,-5.3314,-5.3566,-5.3865,-5.4072,-5.6219,-5.6219,-5.6219,-5.6219,-5.6219,-5.5999,-5.5705,-5.5337,-5.4942,-5.4496,-5.4122,-5.3897,-5.3822,-5.3822,-5.3822,-5.3822,-5.3822,-5.3822,-5.3822,-5.3822,-5.3822,-5.3596,-5.3219,-5.2916,-5.2535,-5.2,-5.1716,-5.1724,-5.1767,-5.1401,-5.157,-5.1877,-5.1618,-5.1371,-5.116,-5.0823,-5.0422,-4.9827,-4.9572,-4.9315,-4.9144,-4.9059,-4.9059,-4.9059,-4.9059,-4.9059,-4.9059,-4.9059,-4.9059,-4.9059,-4.9059,-4.9059,-4.9059,-4.9059,-4.9059,-4.9059,-4.9059,-4.9059,-4.9059,-4.9059,-4.9059,-4.9059,-4.9059,-4.9059,-4.9059,-4.9059,-4.9059,-4.9059,-4.9059,-4.9059,-4.9059,-4.9059,-4.9059,-4.9059,-4.9059,-4.9059,-4.9059,-4.9315,-4.9401,-4.9486,-4.9657,-4.9891,-5.0061,-5.0061,-5.0188,-5.0333,-5.0415,-5.0537,-5.0613,-5.0457,-5.0447,-5.0502,-5.0424,-5.0403,-5.0534,-5.0791,-5.1188,-5.1255,-5.15,-5.1767,-5.1638,-5.1724,-5.1678,-5.1646,-5.187,-5.2063,-5.2046,-5.2143,-5.2579,-5.2969,-5.3452,-5.375,-5.398,-5.4072,-5.4301,-5.6219,-5.6219,-5.6219,-5.6219,-5.6146,-5.5779,-5.5411,-5.4967,-5.4645,-5.4173,-5.3897,-5.3822,-5.3822,-5.3822,-5.3822,-5.3822,-5.3822,-5.3822,-5.3822,-5.3747,-5.3747,-5.3521,-5.3219,-5.3068,-5.2612,-5.21,-5.1947,-5.1739,-5.1414,-5.103,-5.1106,-5.1403,-5.1278,-5.1101,-5.0989,-5.0654,-5.0146,-4.9742,-4.9315,-4.9144,-4.9059,-4.9059,-4.9059,-4.9059,-4.9059,-4.9059,-4.9059,-4.9059,-4.9059,-4.9059,-4.9059,-4.9059,-4.9059,-4.9059,-4.9059,-4.9059,-4.9059,-4.9059,-4.9059,-4.9059,-4.9059,-4.9059,-4.9059,-4.9059,-4.9059,-4.9059,-4.9059,-4.9059,-4.9059,-4.9059,-4.9059,-4.9059,-4.9059,-4.9059,-4.9059,-4.9059,-4.9059,-4.9059,-4.9059,-4.9059,-4.9165,-4.9315,-4.9486,-4.9657,-4.9806,-5.0104,-5.0167,-5.0335,-5.048,-5.0496,-5.0638,-5.0948,-5.0726,-5.0518,-5.0696,-5.0976,-5.1429,-5.1718,-5.2104,-5.2228,-5.1895,-5.189,-5.1753,-5.1853,-5.2409,-5.247,-5.2359,-5.2625,-5.3107,-5.3406,-5.3727,-5.4003,-5.4255,-5.4278,-5.4416,-5.6219,-5.6219,-5.6219,-5.6219,-5.6146,-5.5754,-5.5411,-5.4967,-5.457,-5.4122,-5.3897,-5.3822,-5.3822,-5.3822,-5.3822,-5.3822,-5.3822,-5.3822,-5.3822,-5.3747,-5.3446,-5.3295,-5.3068,-5.284,-5.2459,-5.2,-5.1639,-5.1508,-5.1245,-5.0859,-5.0793,-5.1416,-5.0954,-5.067,-5.0989,-5.0654,-5.0146,-4.9742,-4.9315,-4.9144,-4.9059,-4.9059,-4.9059,-4.9059,-4.9059,-4.9059,-4.9059,-4.9059,-4.9059,-4.9059,-4.9059,-4.9059,-4.9059,-4.9059,-4.9059,-4.9059,-4.9059,-4.9059,-4.9059,-4.9059,-4.9059,-4.9059,-4.9059,-4.9059,-4.9059,-4.9059,-4.9059,-4.9059,-4.9059,-4.9059,-4.9059,-4.9059,-4.9059,-4.9059,-4.9059,-4.9059,-4.9059,-4.9059,-4.9059,-4.9059,-4.9059,-4.9144,-4.923,-4.923,-4.9486,-4.9742,-4.9997,-5.0061,-5.0252,-5.0357,-5.063,-5.0879,-5.0913,-5.0648,-5.0934,-5.1196,-5.1552,-5.1935,-5.2375,-5.2662,-5.2331,-5.2398,-5.2454,-5.2635,-5.2987,-5.2977,-5.2763,-5.3153,-5.3635,-5.3819,-5.398,-5.4186,-5.4347,-5.4393,-5.4416,-5.6219,-5.6219,-5.6219,-5.6219,-5.6146,-5.5533,-5.5189,-5.4892,-5.4347,-5.4047,-5.3822,-5.3822,-5.3822,-5.3822,-5.3822,-5.3822,-5.3822,-5.3822,-5.3672,-5.3521,-5.3219,-5.3015,-5.2635,-5.2459,-5.2154,-5.1947,-5.1793,-5.1562,-5.1067,-5.0826,-5.0848,-5.13,-5.0872,-5.0822,-5.0989,-5.0654,-5.0146,-4.9742,-4.9315,-4.9059,-4.9059,-4.9059,-4.9059,-4.9059,-4.9059,-4.9059,-4.9059,-4.9059,-4.9059,-4.9059,-4.9059,-4.9059,-4.9059,-4.9059,-4.9059,-4.9059,-4.9059,-4.9059,-4.9059,-4.9059,-4.9059,-4.9059,-4.9059,-4.9059,-4.9059,-4.9059,-4.9059,-4.9059,-4.9059,-4.9059,-4.9059,-4.9059,-4.9059,-4.9059,-4.9059,-4.9059,-4.9059,-4.9059,-4.9059,-4.9059,-4.9059,-4.9059,-4.9144,-4.9059,-4.9144,-4.9486,-4.9486,-4.9657,-4.9891,-4.9998,-5.0273,-5.0547,-5.0776,-5.0876,-5.1104,-5.141,-5.1707,-5.2034,-5.2384,-5.2736,-5.2707,-5.3016,-5.3371,-5.3417,-5.3369,-5.3428,-5.336,-5.375,-5.4003,-5.4117,-5.4255,-5.437,-5.4416,-5.4416,-5.4416,-5.6219,-5.6219,-5.6219,-5.6219,-5.5999,-5.5337,-5.4967,-5.4794,-5.4122,-5.3822,-5.3822,-5.3822,-5.3822,-5.3822,-5.3822,-5.3822,-5.3822,-5.3747,-5.3596,-5.3318,-5.3143,-5.2688,-5.2253,-5.2024,-5.1947,-5.187,-5.1716,-5.1331,-5.1003,-5.0816,-5.0765,-5.0999,-5.1076,-5.1018,-5.0989,-5.0654,-5.0146,-4.9742,-4.9315,-4.9059,-4.9059,-4.9059,-4.9059,-4.9059,-4.9059,-4.9059,-4.9059,-4.9059,-4.9059,-4.9059,-4.9059,-4.9059,-4.9059,-4.9059,-4.9059,-4.9059,-4.9059,-4.9059,-4.9059,-4.9059,-4.9059,-4.9059,-4.9059,-4.9059,-4.9059,-4.9059,-4.9059,-4.9059,-4.9059,-4.9059,-4.9059,-4.9059,-4.9059,-4.9059,-4.9059,-4.9059,-4.9059,-4.9059,-4.9059,-4.9059,-4.9059,-4.9059,-4.9059,-4.9059,-4.9059,-4.9059,-4.9059,-4.9144,-4.9486,-4.9657,-4.9912,-5.0146,-5.0294,-5.0757,-5.1071,-5.1467,-5.179,-5.1934,-5.233,-5.257,-5.2822,-5.3134,-5.3378,-5.3555,-5.3624,-5.3681,-5.3819,-5.4049,-5.4255,-5.4393,-5.4416,-5.4416,-5.4416,-5.4416,-5.4416,-5.6219,-5.6219,-5.6219,-5.5999,-5.5705,-5.5189,-5.4794,-5.4496,-5.4047,-5.3822,-5.3822,-5.3822,-5.3822,-5.3822,-5.3822,-5.3822,-5.3822,-5.3747,-5.3521,-5.3143,-5.284,-5.2383,-5.2,-5.1639,-5.1485,-5.1431,-5.1176,-5.0866,-5.0746,-5.0478,-5.0592,-5.0918,-5.1076,-5.1061,-5.0968,-5.0654,-5.0146,-4.9742,-4.9315,-4.9144,-4.9059,-4.9059,-4.9059,-4.9059,-4.9059,-4.9059,-4.9059,-4.9059,-4.9059,-4.9059,-4.9059,-4.9059,-4.9059,-4.9059,-4.9059,-4.9059,-4.9059,-4.9059,-4.9059,-4.9059,-4.9059,-4.9059,-4.9059,-4.9059,-4.9059,-4.9059,-4.9059,-4.9059,-4.9059,-4.9059,-4.9059,-4.9059,-4.9059,-4.9059,-4.9059,-4.9059,-4.9059,-4.9059,-4.9059,-4.9059,-4.9059,-4.9059,-4.9059,-4.9059,-4.9059,-4.9059,-4.9059,-4.9059,-4.923,-4.9315,-4.9486,-4.9657,-4.9806,-5.04,-5.097,-5.139,-5.1743,-5.1783,-5.2055,-5.2387,-5.2651,-5.2884,-5.3146,-5.3411,-5.3795,-5.4036,-5.4197,-5.4347,-5.437,-5.4416,-5.4416,-5.4416,-5.4416,-5.4416,-5.4416,-5.6219,-5.6219,-5.6219,-5.5999,-5.5558,-5.5189,-5.4818,-5.4397,-5.3972,-5.3822,-5.3822,-5.3822,-5.3822,-5.3822,-5.3822,-5.3822,-5.3747,-5.3521,-5.3295,-5.2916,-5.2459,-5.2077,-5.1716,-5.1277,-5.1099,-5.0866,-5.0478,-5.0322,-5.0445,-5.032,-5.041,-5.0652,-5.0912,-5.1061,-5.0989,-5.0654,-5.0146,-4.9742,-4.9315,-4.9059,-4.9059,-4.9059,-4.9059,-4.9059,-4.9059,-4.9059,-4.9059,-4.9059,-4.9059,-4.9059,-4.9059,-4.9059,-4.9059,-4.9059,-4.9059,-4.9059,-4.9059,-4.9059,-4.9059,-4.9059,-4.9059,-4.9059,-4.9059,-4.9059,-4.9059,-4.9059,-4.9059,-4.9059,-4.9059,-4.9059,-4.9059,-4.9059,-4.9059,-4.9059,-4.9059,-4.9059,-4.9059,-4.9059,-4.9059,-4.9059,-4.9059,-4.9059,-4.9059,-4.9059,-4.9059,-4.9059,-4.9059,-4.9059,-4.9059,-4.9144,-4.923,-4.9401,-4.9572,-5.0082,-5.0591,-5.1097,-5.1539,-5.1623,-5.1769,-5.2103,-5.2353,-5.2603,-5.2995,-5.3318,-5.3738,-5.4007,-5.4334,-5.437,-5.4393,-5.4416,-5.4416,-5.4416,-5.4416,-5.4416,-5.4416,-5.6219,-5.6219,-5.6219,-5.5999,-5.5558,-5.5189,-5.4818,-5.4397,-5.3972,-5.3822,-5.3822,-5.3822,-5.3822,-5.3822,-5.3822,-5.3822,-5.3747,-5.3394,-5.2992,-5.2612,-5.223,-5.1793,-5.1408,-5.1021,-5.0866,-5.0711,-5.0009,-4.9695,-5.002,-5.0003,-5.0125,-5.0277,-5.072,-5.0891,-5.0692,-5.0336,-5.004,-4.9657,-4.9315,-4.9144,-4.9059,-4.9059,-4.9059,-4.9059,-4.9059,-4.9059,-4.9059,-4.9059,-4.9059,-4.9059,-4.9059,-4.9059,-4.9059,-4.9059,-4.9059,-4.9059,-4.9059,-4.9059,-4.9059,-4.9059,-4.9059,-4.9059,-4.9059,-4.9059,-4.9059,-4.9059,-4.9059,-4.9059,-4.9059,-4.9059,-4.9059,-4.9059,-4.9059,-4.9059,-4.9059,-4.9059,-4.9059,-4.9059,-4.9059,-4.9059,-4.9059,-4.9059,-4.9059,-4.9059,-4.9059,-4.9059,-4.9059,-4.9059,-4.9059,-4.9059,-4.9144,-4.923,-4.9486,-4.9827,-5.0252,-5.0675,-5.1013,-5.1265,-5.1434,-5.1685,-5.202,-5.227,-5.2603,-5.2935,-5.3183,-5.3431,-5.3842,-5.4334,-5.4252,-5.4252,-5.4334,-5.4416,-5.4416,-5.4416,-5.4416,-5.6219,-5.6219,-5.6219,-5.5999,-5.5558,-5.5189,-5.4794,-5.4397,-5.3972,-5.3822,-5.3822,-5.3822,-5.3822,-5.3822,-5.3822,-5.3822,-5.3672,-5.337,-5.2992,-5.2612,-5.2154,-5.1793,-5.1331,-5.1021,-5.0789,-5.0555,-4.9852,-4.9617,-4.9627,-4.9685,-4.9708,-4.9831,-5.0175,-5.0346,-5.0079,-4.9913,-4.9572,-4.923,-4.9144,-4.9059,-4.9059,-4.9059,-4.9059,-4.9059,-4.9059,-4.9059,-4.9059,-4.9059,-4.9059,-4.9059,-4.9059,-4.9059,-4.9059,-4.9059,-4.9059,-4.9059,-4.9059,-4.9059,-4.9059,-4.9059,-4.9059,-4.9059,-4.9059,-4.9059,-4.9059,-4.9059,-4.9059,-4.9059,-4.9059,-4.9059,-4.9059,-4.9059,-4.9059,-4.9059,-4.9059,-4.9059,-4.9059,-4.9059,-4.9059,-4.9059,-4.9059,-4.9059,-4.9059,-4.9059,-4.9059,-4.9059,-4.9059,-4.9059,-4.9059,-4.9059,-4.9059,-4.9144,-4.923,-4.9572,-4.9827,-5.0167,-5.0506,-5.0844,-5.1097,-5.135,-5.1601,-5.1853,-5.2103,-5.2353,-5.252,-5.2935,-5.3431,-5.376,-5.4029,-5.4089,-5.4089,-5.4171,-5.4393,-5.4416,-5.4252,-5.6219,-5.6219,-5.6219,-5.5999,-5.5558,-5.5189,-5.4794,-5.4421,-5.3972,-5.3822,-5.3822,-5.3822,-5.3822,-5.3822,-5.3822,-5.3822,-5.3672,-5.337,-5.2992,-5.2612,-5.2154,-5.1793,-5.1331,-5.0789,-5.0478,-5.0244,-4.9695,-4.9144,-4.9153,-4.9183,-4.9322,-4.9592,-4.9578,-4.9747,-4.9634,-4.9512,-4.9342,-4.9147,-4.9059,-4.9059,-4.9059,-4.9059,-4.9059,-4.9059,-4.9059,-4.9059,-4.9059,-4.9059,-4.9059,-4.9059,-4.9059,-4.9059,-4.9059,-4.9059,-4.9059,-4.9059,-4.9059,-4.9059,-4.9059,-4.9059,-4.9059,-4.9059,-4.9059,-4.9059,-4.9059,-4.9059,-4.9059,-4.9059,-4.9059,-4.9059,-4.9059,-4.9059,-4.9059,-4.9059,-4.9059,-4.9059,-4.9059,-4.9059,-4.9059,-4.9059,-4.9059,-4.9059,-4.9059,-4.9059,-4.9059,-4.9059,-4.9059,-4.9059,-4.9059,-4.9059,-4.9059,-4.9144,-4.923,-4.9315,-4.9486,-4.9742,-4.9912,-5.0252,-5.0569,-5.0844,-5.1181,-5.1455,-5.1685,-5.1874,-5.2042,-5.2459,-5.2957,-5.3266,-5.3513,-5.3596,-5.3655,-5.382,-5.3902,-5.3738,-5.3573,-5.6219,-5.6219,-5.6219,-5.5999,-5.5533,-5.5189,-5.4794,-5.4322,-5.3972,-5.3822,-5.3822,-5.3822,-5.3822,-5.3822,-5.3822,-5.3822,-5.3747,-5.3295,-5.2916,-5.2535,-5.21,-5.1716,-5.1254,-5.0633,-5.0244,-5.0165,-4.9381,-4.8986,-4.8907,-4.8973,-4.9148,-4.9374,-4.9006,-4.9132,-4.9275,-4.9133,-4.8879,-4.9124,-4.9059,-4.9059,-4.9059,-4.9059,-4.9059,-4.9059,-4.9059,-4.9059,-4.9059,-4.9059,-4.9059,-4.9059,-4.9059,-4.9059,-4.9059,-4.9059,-4.9059,-4.9059,-4.9059,-4.9059,-4.9059,-4.9059,-4.9059,-4.9059,-4.9059,-4.9059,-4.9059,-4.9059,-4.9059,-4.9059,-4.9059,-4.9059,-4.9059,-4.9059,-4.9059,-4.9059,-4.9059,-4.9059,-4.9059,-4.9059,-4.9059,-4.9059,-4.9059,-4.9059,-4.9059,-4.9059,-4.9059,-4.9059,-4.9059,-4.9059,-4.9059,-4.9059,-4.9059,-4.9059,-4.9144,-4.923,-4.923,-4.9401,-4.9572,-4.9742,-4.9976,-5.04,-5.076,-5.1013,-5.1097,-5.135,-5.1623,-5.1958,-5.2376,-5.2686,-5.2995,-5.3161,-5.3408,-5.3431,-5.3431,-5.3161,-5.3078,-5.6219,-5.6219,-5.6219,-5.5999,-5.5558,-5.5189,-5.4794,-5.4397,-5.3972,-5.3822,-5.3822,-5.3822,-5.3822,-5.3822,-5.3822,-5.3822,-5.3747,-5.2968,-5.2664,-5.2383,-5.187,-5.1485,-5.1099,-5.0633,-5.0165,-4.9987,-4.9302,-4.8907,-4.8907,-4.8907,-4.8929,-4.8916,-4.8543,-4.8712,-4.8876,-4.8882,-4.8815,-4.8997,-4.9059,-4.9059,-4.9059,-4.9059,-4.9059,-4.9059,-4.9059,-4.9059,-4.9059,-4.9059,-4.9059,-4.9059,-4.9059,-4.9059,-4.9059,-4.9059,-4.9059,-4.9059,-4.9059,-4.9059,-4.9059,-4.9059,-4.9059,-4.9059,-4.9059,-4.9059,-4.9059,-4.9059,-4.9059,-4.9059,-4.9059,-4.9059,-4.9059,-4.9059,-4.9059,-4.9059,-4.9059,-4.9059,-4.9059,-4.9059,-4.9059,-4.9059,-4.9059,-4.9059,-4.9059,-4.9059,-4.9059,-4.9059,-4.9059,-4.9059,-4.9059,-4.9059,-4.9059,-4.9059,-4.9059,-4.9144,-4.9144,-4.923,-4.9315,-4.9486,-4.9657,-4.9997,-5.0316,-5.0485,-5.0591,-5.0929,-5.1181,-5.1455,-5.1707,-5.202,-5.2415,-5.2913,-5.3101,-5.2935,-5.2935,-5.2935,-5.2852,-5.6219,-5.6219,-5.5926,-5.5705,-5.5533,-5.5189,-5.4794,-5.4397,-5.3972,-5.3822,-5.3822,-5.3822,-5.3822,-5.3822,-5.3747,-5.3672,-5.3446,-5.3143,-5.2688,-5.2307,-5.187,-5.1485,-5.1021,-5.0555,-5.0087,-4.9774,-4.9144,-4.8907,-4.8907,-4.8907,-4.8907,-4.8757,-4.8248,-4.846,-4.8624,-4.886,-4.9001,-4.8976,-4.9059,-4.9059,-4.9059,-4.9059,-4.9059,-4.9059,-4.9059,-4.9059,-4.9059,-4.9059,-4.9059,-4.9059,-4.9059,-4.9059,-4.9059,-4.9059,-4.9059,-4.9059,-4.9059,-4.9059,-4.9059,-4.9059,-4.9059,-4.9059,-4.9059,-4.9059,-4.9059,-4.9059,-4.9059,-4.9059,-4.9059,-4.9059,-4.9059,-4.9059,-4.9059,-4.9059,-4.9059,-4.9059,-4.91,-4.91,-4.9162,-4.9204,-4.9121,-4.9059,-4.9059,-4.9059,-4.9059,-4.9059,-4.9059,-4.9059,-4.9059,-4.9059,-4.9059,-4.9059,-4.9059,-4.9059,-4.9059,-4.9144,-4.9144,-4.923,-4.9401,-4.9657,-4.9912,-4.9976,-5.0082,-5.0422,-5.076,-5.0929,-5.1181,-5.1434,-5.1853,-5.2353,-5.2353,-5.2292,-5.2376,-5.252,-5.2603,-5.6146,-5.5999,-5.5705,-5.5558,-5.5411,-5.5041,-5.457,-5.4197,-5.3972,-5.3822,-5.3822,-5.3822,-5.3822,-5.3747,-5.3596,-5.3521,-5.3143,-5.284,-5.2483,-5.21,-5.1793,-5.1408,-5.0866,-5.04,-5.0009,-4.9538,-4.9144,-4.8907,-4.8907,-4.8907,-4.8907,-4.8648,-4.8157,-4.8269,-4.8791,-4.9049,-4.9144,-4.9059,-4.9059,-4.9059,-4.9059,-4.9059,-4.9059,-4.9059,-4.9059,-4.9059,-4.9059,-4.9059,-4.9059,-4.9059,-4.9059,-4.9059,-4.9059,-4.9059,-4.9059,-4.9059,-4.9059,-4.9059,-4.9059,-4.9059,-4.9059,-4.9059,-4.9059,-4.9059,-4.9059,-4.9059,-4.9059,-4.9059,-4.9059,-4.9059,-4.9059,-4.9059,-4.9059,-4.9059,-4.9059,-4.908,-4.9162,-4.9204,-4.9287,-4.9349,-4.9369,-4.9556,-4.9576,-4.9597,-4.9349,-4.9266,-4.908,-4.9059,-4.9059,-4.9059,-4.9059,-4.9059,-4.9059,-4.9059,-4.9059,-4.9165,-4.9186,-4.9144,-4.923,-4.9315,-4.9486,-4.9486,-4.9657,-4.9997,-5.0252,-5.04,-5.0654,-5.0907,-5.135,-5.1791,-5.1791,-5.1874,-5.1958,-5.2209,-5.2125,-5.5974,-5.5632,-5.5558,-5.5337,-5.4967,-5.457,-5.4197,-5.3897,-5.3822,-5.3822,-5.3822,-5.3747,-5.3747,-5.3672,-5.337,-5.3143,-5.2916,-5.2383,-5.2024,-5.1793,-5.1485,-5.1176,-5.0711,-5.0244,-4.9852,-4.946,-4.9144,-4.8907,-4.8907,-4.8907,-4.8907,-4.8692,-4.8221,-4.8064,-4.8956,-4.9027,-4.9124,-4.9059,-4.9059,-4.9059,-4.9059,-4.9059,-4.9059,-4.9059,-4.9059,-4.9059,-4.9059,-4.9059,-4.9059,-4.9059,-4.9059,-4.9059,-4.9059,-4.9059,-4.9059,-4.9059,-4.9059,-4.9059,-4.9059,-4.9059,-4.9059,-4.9059,-4.9059,-4.9059,-4.9059,-4.9059,-4.9059,-4.9059,-4.9059,-4.9059,-4.9059,-4.9059,-4.9059,-4.9162,-4.9183,-4.9307,-4.9411,-4.9535,-4.9659,-4.9721,-5.0073,-5.0342,-5.0342,-5.0239,-4.9804,-4.9514,-4.9204,-4.9121,-4.9224,-4.9307,-4.9411,-4.9431,-4.9452,-4.9328,-4.9349,-4.9183,-4.9142,-4.91,-4.9144,-4.9144,-4.923,-4.923,-4.9486,-4.9657,-4.9827,-4.9912,-5.0146,-5.0485,-5.0844,-5.1287,-5.1539,-5.1623,-5.1707,-5.1707,-5.1539,-5.5705,-5.5558,-5.5016,-5.4719,-5.457,-5.4496,-5.4197,-5.3822,-5.3822,-5.3822,-5.3747,-5.3521,-5.337,-5.3295,-5.2992,-5.2688,-5.2383,-5.223,-5.187,-5.1254,-5.1044,-5.0555,-5.0087,-4.9852,-4.9538,-4.9223,-4.8907,-4.8907,-4.8907,-4.8907,-4.8907,-4.8692,-4.8313,-4.8075,-4.8358,-4.8626,-4.9144,-4.9059,-4.9059,-4.9059,-4.9059,-4.9059,-4.9059,-4.9059,-4.9059,-4.9059,-4.9059,-4.9059,-4.9059,-4.9059,-4.9059,-4.9059,-4.9059,-4.9059,-4.9059,-4.9059,-4.9059,-4.9059,-4.9059,-4.9059,-4.9059,-4.9059,-4.9059,-4.9059,-4.9059,-4.9059,-4.9059,-4.908,-4.9207,-4.91,-4.9059,-4.908,-4.9162,-4.9494,-4.9618,-4.9804,-4.9949,-5.0073,-5.0197,-5.0197,-5.0404,-5.0508,-5.0549,-5.0694,-5.0404,-5.0259,-5.0032,-4.9866,-4.9928,-4.999,-5.0073,-5.0073,-5.0052,-4.9825,-4.9659,-4.9576,-4.939,-4.9328,-4.9183,-4.9144,-4.9144,-4.9183,-4.9207,-4.9505,-4.9443,-4.9401,-4.9721,-5.0061,-5.04,-5.076,-5.0844,-5.1013,-5.1013,-5.0929,-5.0823,-5.5312,-5.5164,-5.4645,-5.4322,-5.4173,-5.4173,-5.3972,-5.3596,-5.3446,-5.337,-5.3271,-5.3068,-5.2992,-5.284,-5.2535,-5.2307,-5.2024,-5.1639,-5.1485,-5.0789,-5.0633,-5.0165,-4.9774,-4.946,-4.9302,-4.8986,-4.8907,-4.8907,-4.8907,-4.8907,-4.867,-4.8439,-4.8302,-4.7972,-4.7984,-4.8231,-4.8893,-4.8976,-4.9059,-4.9059,-4.9059,-4.9059,-4.9059,-4.9059,-4.9059,-4.9059,-4.9059,-4.9059,-4.9059,-4.9059,-4.9059,-4.9059,-4.9059,-4.9059,-4.9059,-4.9059,-4.9059,-4.9059,-4.9059,-4.9059,-4.9059,-4.9059,-4.9059,-4.9059,-4.9059,-4.9059,-4.9059,-4.91,-4.929,-4.9287,-4.9328,-4.9328,-4.9618,-4.9949,-5.0052,-5.0218,-5.0342,-5.0466,-5.0653,-5.0653,-5.0798,-5.0818,-5.0839,-5.0943,-5.1005,-5.0943,-5.0901,-5.0736,-5.0549,-5.0529,-5.0549,-5.0529,-5.0466,-5.0239,-5.0073,-5.0011,-4.9825,-4.9576,-4.9473,-4.9411,-4.9473,-4.9638,-4.9452,-4.9245,-4.9269,-4.9378,-4.9401,-4.9742,-4.9912,-4.9997,-4.9912,-5.0061,-5.0316,-5.0316,-5.0231,-5.4794,-5.4397,-5.4397,-5.4098,-5.3822,-5.3672,-5.3521,-5.3143,-5.284,-5.2688,-5.2688,-5.2688,-5.2612,-5.2459,-5.2154,-5.1947,-5.177,-5.1176,-5.0866,-5.0633,-5.0244,-4.9852,-4.9538,-4.9381,-4.9144,-4.8986,-4.8907,-4.8907,-4.8907,-4.8907,-4.849,-4.7997,-4.8055,-4.7764,-4.7671,-4.79,-4.8543,-4.8748,-4.9017,-4.9038,-4.9059,-4.9059,-4.9059,-4.9059,-4.9059,-4.9059,-4.9059,-4.9059,-4.9059,-4.9059,-4.9059,-4.9059,-4.9059,-4.9059,-4.9059,-4.9059,-4.9059,-4.9059,-4.9059,-4.9059,-4.9059,-4.9059,-4.9059,-4.9059,-4.91,-4.9142,-4.9245,-4.9369,-4.9514,-4.9659,-4.9763,-5.0032,-5.028,-5.0404,-5.0446,-5.0549,-5.0653,-5.0818,-5.1046,-5.1212,-5.1439,-5.1522,-5.1481,-5.1543,-5.1398,-5.1419,-5.1336,-5.1191,-5.1005,-5.0839,-5.0839,-5.0818,-5.0715,-5.057,-5.0487,-5.0466,-5.0259,-5.0011,-5.0094,-5.0052,-5.0115,-5.0052,-4.9866,-4.9638,-4.9328,-4.9269,-4.9357,-4.9315,-4.923,-4.923,-4.9401,-4.9572,-4.9891,-4.9976,-5.0061,-5.4496,-5.4397,-5.4098,-5.3747,-5.3295,-5.2764,-5.2764,-5.3143,-5.2764,-5.2612,-5.2588,-5.2307,-5.2154,-5.2154,-5.1793,-5.1485,-5.1176,-5.0866,-5.04,-5.0087,-4.9774,-4.946,-4.9223,-4.9065,-4.8986,-4.8986,-4.8907,-4.8907,-4.8907,-4.8907,-4.867,-4.8236,-4.7944,-4.7673,-4.748,-4.7464,-4.7983,-4.8438,-4.879,-4.8955,-4.9038,-4.9038,-4.9059,-4.9059,-4.9059,-4.9059,-4.9059,-4.9059,-4.9059,-4.9059,-4.9059,-4.9059,-4.9059,-4.9059,-4.9059,-4.9059,-4.9059,-4.9059,-4.9059,-4.9059,-4.9059,-4.908,-4.91,-4.9059,-4.9142,-4.9328,-4.9494,-4.968,-4.9949,-5.0156,-5.028,-5.0487,-5.0736,-5.086,-5.0922,-5.1005,-5.1108,-5.1253,-5.1481,-5.1522,-5.175,-5.1771,-5.1791,-5.175,-5.1626,-5.1729,-5.1729,-5.1564,-5.1419,-5.1253,-5.117,-5.115,-5.115,-5.1046,-5.0963,-5.0922,-5.0673,-5.0487,-5.0591,-5.0591,-5.0487,-5.0384,-5.028,-5.0052,-4.9742,-4.9411,-4.9186,-4.9207,-4.9204,-4.908,-4.923,-4.9315,-4.9401,-4.9572,-4.9657,-5.3822,-5.3648,-5.3446,-5.3219,-5.284,-5.223,-5.2213,-5.24,-5.2213,-5.2154,-5.2077,-5.187,-5.1793,-5.1716,-5.1508,-5.1199,-5.0866,-5.0633,-5.0165,-4.9695,-4.9381,-4.9144,-4.8986,-4.8907,-4.8907,-4.8907,-4.8907,-4.8907,-4.8907,-4.8828,-4.867,-4.8251,-4.7853,-4.7542,-4.7391,-4.7255,-4.732,-4.7879,-4.8355,-4.8686,-4.8852,-4.8955,-4.9059,-4.9059,-4.9059,-4.9059,-4.9059,-4.9059,-4.9059,-4.9059,-4.9059,-4.9059,-4.9059,-4.9059,-4.9059,-4.9059,-4.9059,-4.9059,-4.9059,-4.9059,-4.9059,-4.9121,-4.9204,-4.9349,-4.9411,-4.9576,-4.9804,-5.0032,-5.0404,-5.0715,-5.0777,-5.086,-5.1108,-5.1336,-5.1419,-5.1501,-5.1626,-5.1729,-5.1771,-5.1771,-5.1791,-5.1791,-5.1791,-5.1791,-5.1791,-5.1791,-5.1791,-5.1729,-5.1667,-5.1605,-5.1543,-5.1543,-5.1584,-5.1584,-5.1481,-5.1315,-5.1191,-5.1087,-5.117,-5.1129,-5.0922,-5.0756,-5.0632,-5.0425,-5.0177,-4.9825,-4.9473,-4.9369,-4.939,-4.9245,-4.91,-4.9144,-4.923,-4.923,-4.9315,-5.2916,-5.2588,-5.2612,-5.2588,-5.2535,-5.2077,-5.1669,-5.1297,-5.1363,-5.1316,-5.1247,-5.127,-5.1179,-5.114,-5.1064,-5.0871,-5.0507,-5.022,-4.9841,-4.9438,-4.9144,-4.8986,-4.8907,-4.8907,-4.8907,-4.8907,-4.8907,-4.8907,-4.8907,-4.8907,-4.8749,-4.8352,-4.7853,-4.7517,-4.7301,-4.6985,-4.6968,-4.7154,-4.7755,-4.8231,-4.85,-4.8769,-4.9038,-4.9059,-4.9059,-4.9059,-4.9059,-4.9059,-4.9059,-4.9059,-4.9059,-4.9059,-4.9059,-4.9059,-4.9059,-4.9059,-4.9059,-4.9059,-4.9059,-4.9059,-4.9059,-4.9183,-4.9518,-4.9618,-4.9721,-5.0011,-5.0301,-5.0508,-5.086,-5.1108,-5.1212,-5.1315,-5.1501,-5.1584,-5.1626,-5.1667,-5.1729,-5.1791,-5.1791,-5.1791,-5.1791,-5.1791,-5.1791,-5.1791,-5.1791,-5.1791,-5.1791,-5.1791,-5.1791,-5.1791,-5.1791,-5.1791,-5.1791,-5.1771,-5.1729,-5.1626,-5.1688,-5.1688,-5.1667,-5.1626,-5.1398,-5.1191,-5.1005,-5.0777,-5.0549,-5.0259,-4.997,-4.9783,-4.9556,-4.9349,-4.9204,-4.91,-4.9059,-4.908,-4.9059,-5.2688,-5.2612,-5.2307,-5.2154,-5.2077,-5.1716,-5.1263,-5.0802,-5.0818,-5.0605,-5.0329,-5.0283,-5.0329,-5.0398,-5.0322,-5.0156,-4.9792,-4.9628,-4.9363,-4.9126,-4.882,-4.8798,-4.8886,-4.8864,-4.8886,-4.8907,-4.8907,-4.8907,-4.8907,-4.8907,-4.8806,-4.8648,-4.8012,-4.7533,-4.7394,-4.696,-4.6596,-4.6658,-4.7072,-4.7755,-4.8231,-4.8438,-4.8645,-4.8893,-4.9038,-4.9038,-4.9038,-4.9059,-4.9059,-4.9059,-4.9059,-4.9059,-4.9059,-4.9059,-4.9059,-4.9059,-4.9059,-4.9059,-4.9059,-4.9059,-4.9059,-4.908,-4.9307,-4.9701,-5.0094,-5.0529,-5.0839,-5.1046,-5.1253,-5.146,-5.1626,-5.1729,-5.1791,-5.1791,-5.1791,-5.1791,-5.1791,-5.1791,-5.1791,-5.1791,-5.1791,-5.1791,-5.1791,-5.1791,-5.1791,-5.1791,-5.1791,-5.1791,-5.1791,-5.1791,-5.1791,-5.1791,-5.1791,-5.1791,-5.1791,-5.1791,-5.1791,-5.1791,-5.1729,-5.175,-5.1791,-5.1584,-5.1336,-5.1129,-5.0901,-5.0653,-5.0363,-4.997,-4.9742,-4.9597,-4.9369,-4.9266,-4.9142,-4.9121,-4.91,-5.223,-5.2,-5.187,-5.1716,-5.1716,-5.1485,-5.1018,-5.0398,-5.0306,-4.9893,-4.9411,-4.9663,-4.9893,-4.9818,-4.9743,-4.936,-4.9068,-4.8838,-4.8587,-4.8364,-4.8514,-4.8536,-4.8623,-4.8776,-4.8886,-4.8907,-4.8907,-4.8907,-4.8907,-4.8907,-4.8828,-4.8727,-4.8092,-4.7613,-4.7453,-4.6811,-4.6347,-4.6287,-4.6555,-4.7134,-4.7817,-4.7982,-4.8293,-4.8603,-4.8769,-4.8852,-4.9038,-4.9059,-4.9059,-4.9059,-4.9059,-4.9059,-4.9059,-4.9059,-4.9059,-4.9059,-4.9059,-4.9059,-4.9059,-4.9059,-4.9059,-4.908,-4.9307,-4.9783,-5.0259,-5.0694,-5.115,-5.1357,-5.1501,-5.1708,-5.1708,-5.1791,-5.1791,-5.1791,-5.1791,-5.1791,-5.1791,-5.1791,-5.1791,-5.1791,-5.1791,-5.1791,-5.1791,-5.1791,-5.1791,-5.1791,-5.1791,-5.1791,-5.1791,-5.1791,-5.1791,-5.1791,-5.1791,-5.1791,-5.1791,-5.1791,-5.1791,-5.1791,-5.1791,-5.1791,-5.1791,-5.1791,-5.1688,-5.146,-5.1294,-5.117,-5.0818,-5.0425,-5.0177,-5.0073,-4.9763,-4.9431,-4.9328,-4.9204,-4.9121,-5.1716,-5.1431,-5.1431,-5.1431,-5.1431,-5.1431,-5.0903,-5.0122,-4.9939,-4.9411,-4.8745,-4.9291,-4.9589,-4.9485,-4.926,-4.8907,-4.8552,-4.8196,-4.7783,-4.7816,-4.7968,-4.8056,-4.8274,-4.8514,-4.8711,-4.8864,-4.8907,-4.8907,-4.8907,-4.8907,-4.8828,-4.8727,-4.8251,-4.7693,-4.7373,-4.6891,-4.6428,-4.6347,-4.639,-4.6596,-4.6989,-4.7382,-4.7817,-4.8127,-4.8376,-4.8583,-4.8852,-4.9038,-4.9038,-4.9059,-4.9059,-4.9059,-4.9059,-4.9059,-4.9059,-4.9059,-4.9059,-4.9059,-4.9059,-4.9059,-4.9059,-4.9162,-4.9514,-4.9866,-5.0322,-5.0756,-5.1212,-5.1584,-5.1729,-5.1791,-5.1791,-5.1791,-5.1791,-5.1791,-5.1791,-5.1791,-5.1791,-5.1791,-5.1791,-5.1791,-5.1791,-5.1791,-5.1791,-5.1791,-5.1791,-5.1791,-5.1791,-5.1791,-5.1791,-5.1791,-5.1791,-5.1791,-5.1791,-5.1791,-5.1791,-5.1791,-5.1791,-5.1791,-5.1791,-5.1791,-5.1791,-5.1791,-5.1791,-5.1771,-5.1626,-5.146,-5.1315,-5.0984,-5.0777,-5.0549,-5.0177,-4.9804,-4.9642,-4.9431,-4.9224,-5.1508,-5.1431,-5.1431,-5.1431,-5.1431,-5.1431,-5.1064,-5.049,-5.0053,-4.9548,-4.897,-4.8287,-4.8236,-4.8236,-4.8163,-4.7953,-4.7684,-4.7459,-4.7563,-4.7586,-4.7531,-4.7597,-4.7793,-4.8187,-4.8536,-4.8733,-4.8864,-4.8907,-4.8907,-4.8907,-4.8907,-4.8828,-4.849,-4.7933,-4.7533,-4.7052,-4.667,-4.6428,-4.6266,-4.637,-4.6473,-4.6947,-4.7361,-4.7755,-4.8189,-4.8355,-4.8583,-4.8893,-4.9017,-4.9059,-4.9059,-4.9059,-4.9059,-4.9059,-4.9059,-4.9059,-4.9059,-4.9059,-4.9059,-4.9059,-4.9059,-4.908,-4.9369,-4.9618,-5.0052,-5.0466,-5.0984,-5.1605,-5.175,-5.1791,-5.1791,-5.1791,-5.1791,-5.1791,-5.1791,-5.1791,-5.1791,-5.1791,-5.1791,-5.1791,-5.1791,-5.1791,-5.1791,-5.1791,-5.1791,-5.1791,-5.1791,-5.1791,-5.1791,-5.1791,-5.1791,-5.1791,-5.1791,-5.1791,-5.1791,-5.1791,-5.1791,-5.1791,-5.1791,-5.1791,-5.1791,-5.1791,-5.1791,-5.1791,-5.1791,-5.1688,-5.1522,-5.1357,-5.1212,-5.0943,-5.057,-5.0218,-4.9949,-4.9746,-4.9431]},{"header":{"parameterUnit":"m.s-1","parameterCategory":1,"la1":31.0,"la2":29.5877,"lo1":-88.7671,"lo2":-86.6584,"dy":0.0162,"dx":0.0185,"nx":115,"ny":88,"refTime":"2024-04-22T18:00:00:Z","depth":0,"parameterNumber":3,"parameterNumberName":"V-component_of_WINDS"},"data":[0.0,0.0,0.0,0.0,0.0,0.0,0.0,0.0,0.0,0.0,0.0,0.0,0.0,0.0,0.0,0.0,0.0,0.0,0.0,0.0,0.0,0.0,0.0,0.0,0.0,0.0,0.0,0.0,0.0,0.0,0.0,0.0,0.0,0.0,0.0,0.0,0.0,0.0,0.0,0.0,0.0,0.0,0.0,0.0,0.0,0.0,0.0,0.0,0.0,0.0,0.0,0.0,0.0,0.0,0.0,0.0,0.0,0.0,0.0,0.0,0.0,0.0,0.0,0.0,0.0,0.0,0.0,0.0,0.0,0.0,0.0,0.0,0.0,0.0,0.0,0.0,0.0,0.0,0.0,0.0,0.0,0.0,0.0,0.0,0.0,0.0,0.0,0.0,0.0,0.0,0.0,0.0,0.0,0.0,0.0,0.0,0.0,0.0,0.0,0.0,0.0,0.0,0.0,0.0,0.0,0.0,0.0,0.0,0.0,0.0,0.0,0.0,0.0,0.0,0.0,0.0,0.0,0.0,0.0,0.0,0.0,0.0,0.0,0.0,0.0,0.0,0.0,0.0,0.0,0.0,0.0,0.0,0.0,0.0,0.0,0.0,0.0,0.0,0.0,0.0,0.0,0.0,0.0,0.0,0.0,0.0,0.0,0.0,0.0,0.0,0.0,0.0,0.0,0.0,0.0,0.0,0.0,0.0,0.0,0.0,0.0,0.0,0.0,0.0,0.0,0.0,0.0,0.0,0.0,0.0,0.0,0.0,0.0,0.0,0.0,0.0,0.0,0.0,0.0,0.0,0.0,0.0,0.0,0.0,0.0,0.0,0.0,0.0,0.0,0.0,0.0,0.0,0.0,0.0,0.0,0.0,0.0,0.0,0.0,0.0,0.0,0.0,0.0,0.0,0.0,0.0,0.0,0.0,0.0,0.0,0.0,0.0,0.0,0.0,0.0,0.0,0.0,0.0,0.0,0.0,0.0,0.0,0.0,0.0,0.0,0.0,0.0,0.0,0.0,0.0,0.0,0.0,0.0,0.0,0.0,0.0,0.0,0.0,0.0,0.0,0.0,0.0,0.0,0.0,0.0,0.0,0.0,0.0,0.0,0.0,0.0,0.0,0.0,0.0,0.0,0.0,0.0,0.0,0.0,0.0,0.0,0.0,0.0,0.0,0.0,0.0,0.0,0.0,0.0,0.0,0.0,0.0,0.0,0.0,0.0,0.0,0.0,0.0,0.0,0.0,0.0,0.0,0.0,0.0,0.0,0.0,0.0,0.0,0.0,0.0,0.0,0.0,0.0,0.0,0.0,0.0,0.0,0.0,0.0,0.0,0.0,0.0,0.0,0.0,0.0,0.0,0.0,0.0,0.0,0.0,0.0,0.0,0.0,0.0,0.0,0.0,0.0,0.0,0.0,0.0,0.0,0.0,0.0,0.0,0.0,0.0,0.0,0.0,0.0,0.0,0.0,0.0,0.0,0.0,0.0,0.0,0.0,0.0,0.0,0.0,0.0,0.0,0.0,0.0,0.0,0.0,0.0,0.0,0.0,0.0,0.0,0.0,0.0,0.0,0.0,0.0,0.0,0.0,0.0,0.0,0.0,0.0,0.0,0.0,0.0,0.0,0.0,0.0,0.0,0.0,0.0,0.0,0.0,0.0,0.0,0.0,0.0,0.0,0.0,0.0,0.0,0.0,0.0,0.0,0.0,0.0,0.0,0.0,0.0,0.0,0.0,0.0,0.0,0.0,0.0,0.0,0.0,0.0,0.0,0.0,0.0,0.0,0.0,0.0,0.0,0.0,0.0,0.0,0.0,0.0,0.0,0.0,0.0,0.0,0.0,0.0,0.0,0.0,0.0,0.0,0.0,0.0,0.0,0.0,0.0,0.0,0.0,0.0,0.0,0.0,0.0,0.0,0.0,0.0,0.0,0.0,0.0,0.0,0.0,0.0,0.0,0.0,0.0,0.0,0.0,0.0,0.0,0.0,0.0,0.0,0.0,0.0,0.0,0.0,0.0,0.0,0.0,0.0,0.0,0.0,0.0,0.0,0.0,0.0,0.0,0.0,0.0,0.0,0.0,0.0,0.0,0.0,0.0,0.0,0.0,0.0,0.0,0.0,0.0,0.0,0.0,0.0,0.0,0.0,0.0,0.0,0.0,0.0,0.0,0.0,0.0,0.0,0.0,0.0,0.0,0.0,0.0,0.0,0.0,0.0,0.0,0.0,0.0,0.0,0.0,0.0,0.0,0.0,0.0,0.0,0.0,0.0,0.0,0.0,0.0,0.0,0.0,0.0,0.0,0.0,0.0,0.0,0.0,0.0,0.0,0.0,0.0,0.0,0.0,0.0,0.0,0.0,0.0,0.0,0.0,0.0,0.0,0.0,0.0,0.0,0.0,0.0,0.0,0.0,0.0,0.0,0.0,0.0,0.0,0.0,0.0,0.0,0.0,0.0,0.0,0.0,0.0,0.0,0.0,0.0,0.0,0.0,0.0,0.0,0.0,0.0,0.0,0.0,0.0,0.0,0.0,0.0,0.0,0.0,0.0,0.0,0.0,0.0,0.0,0.0,0.0,0.0,0.0,0.0,0.0,0.0,0.0,0.0,0.0,0.0,0.0,0.0,0.0,0.0,0.0,0.0,0.0,0.0,0.0,0.0,0.0,0.0,0.0,0.0,0.0,0.0,0.0,0.0,0.0,0.0,0.0,0.0,0.0,0.0,0.0,0.0,0.0,0.0,0.0,0.0,0.0,0.0,0.0,0.0,0.0,0.0,0.0,0.0,0.0,0.0,0.0,0.0,0.0,0.0,0.0,0.0,0.0,0.0,0.0,0.0,0.0,0.0,0.0,0.0,0.0,0.0,0.0,0.0,0.0,0.0,0.0,0.0,0.0,0.0,0.0,0.0,0.0,0.0,0.0,0.0,0.0,0.0,0.0,0.0,0.0,0.0,0.0,0.0,0.0,0.0,0.0,0.0,0.0,0.0,0.0,0.0,0.0,0.0,0.0,0.0,0.0,0.0,0.0,0.0,0.0,0.0,0.0,0.0,0.0,0.0,0.0,0.0,0.0,0.0,0.0,0.0,0.0,0.0,0.0,0.0,0.0,0.0,0.0,0.0,0.0,0.0,0.0,0.0,0.0,0.0,0.0,0.0,0.0,0.0,0.0,0.0,0.0,0.0,0.0,0.0,0.0,0.0,0.0,0.0,0.0,0.0,0.0,0.0,0.0,0.0,0.0,0.0,0.0,0.0,0.0,0.0,0.0,0.0,0.0,0.0,0.0,0.0,0.0,0.0,0.0,0.0,0.0,0.0,0.0,0.0,0.0,0.0,0.0,0.0,0.0,0.0,0.0,0.0,0.0,0.0,0.0,0.0,0.0,0.0,0.0,0.0,0.0,0.0,0.0,0.0,0.0,0.0,0.0,0.0,0.0,0.0,0.0,0.0,0.0,0.0,0.0,0.0,0.0,0.0,0.0,0.0,0.0,0.0,0.0,0.0,0.0,0.0,0.0,0.0,0.0,0.0,0.0,0.0,0.0,0.0,0.0,0.0,0.0,0.0,0.0,0.0,0.0,0.0,0.0,0.0,0.0,0.0,0.0,0.0,0.0,0.0,0.0,0.0,0.0,0.0,0.0,0.0,0.0,0.0,0.0,0.0,0.0,0.0,0.0,0.0,0.0,0.0,0.0,0.0,0.0,0.0,0.0,0.0,0.0,0.0,0.0,0.0,0.0,0.0,0.0,0.0,0.0,0.0,0.0,0.0,0.0,0.0,0.0,0.0,0.0,0.0,0.0,0.0,0.0,0.0,0.0,0.0,0.0,0.0,0.0,0.0,0.0,0.0,0.0,0.0,0.0,0.0,0.0,0.0,0.0,0.0,0.0,0.0,0.0,0.0,0.0,0.0,0.0,0.0,0.0,0.0,0.0,0.0,0.0,0.0,0.0,0.0,0.0,0.0,0.0,0.0,0.0,0.0,0.0,0.0,0.0,0.0,0.0,0.0,0.0,0.0,0.0,0.0,0.0,0.0,0.0,0.0,0.0,0.0,0.0,0.0,0.0,0.0,0.0,0.0,0.0,0.0,0.0,0.0,0.0,0.0,0.0,0.0,0.0,0.0,0.0,0.0,0.0,0.0,0.0,0.0,0.0,0.0,0.0,0.0,0.0,0.0,0.0,0.0,0.0,0.0,0.0,0.0,0.0,0.0,0.0,0.0,0.0,0.0,0.0,0.0,0.0,0.0,0.0,0.0,0.0,0.0,3.2283,0.0,0.0,0.0,3.3575,0.0,0.0,0.0,0.0,0.0,0.0,0.0,0.0,0.0,0.0,0.0,0.0,0.0,0.0,0.0,0.0,0.0,0.0,0.0,0.0,0.0,0.0,0.0,0.0,0.0,0.0,0.0,0.0,0.0,0.0,0.0,0.0,0.0,0.0,0.0,0.0,0.0,0.0,0.0,0.0,0.0,0.0,0.0,0.0,0.0,0.0,0.0,0.0,0.0,0.0,0.0,0.0,0.0,0.0,0.0,0.0,0.0,0.0,0.0,0.0,0.0,0.0,0.0,0.0,0.0,0.0,0.0,0.0,0.0,0.0,0.0,0.0,0.0,0.0,0.0,0.0,0.0,0.0,0.0,0.0,0.0,0.0,0.0,0.0,0.0,0.0,0.0,0.0,0.0,0.0,0.0,0.0,0.0,0.0,0.0,0.0,0.0,0.0,0.0,0.0,0.0,0.0,0.0,0.0,0.0,0.0,0.0,0.0,0.0,0.0,3.3348,3.3575,3.3575,3.3878,3.4406,0.0,0.0,0.0,0.0,0.0,0.0,0.0,0.0,0.0,0.0,0.0,0.0,0.0,0.0,0.0,0.0,0.0,0.0,0.0,0.0,0.0,0.0,0.0,0.0,0.0,0.0,0.0,0.0,0.0,0.0,0.0,0.0,0.0,0.0,0.0,0.0,0.0,0.0,0.0,0.0,0.0,0.0,0.0,0.0,0.0,0.0,0.0,0.0,0.0,0.0,0.0,0.0,0.0,0.0,0.0,0.0,0.0,0.0,0.0,0.0,0.0,0.0,0.0,0.0,0.0,0.0,0.0,0.0,0.0,0.0,0.0,0.0,0.0,0.0,0.0,0.0,0.0,0.0,0.0,0.0,0.0,0.0,0.0,0.0,0.0,0.0,0.0,0.0,0.0,0.0,0.0,0.0,0.0,0.0,0.0,0.0,0.0,0.0,0.0,0.0,0.0,0.0,0.0,0.0,0.0,0.0,0.0,0.0,0.0,0.0,0.0,0.0,3.4539,3.4782,3.5231,0.0,0.0,0.0,0.0,0.0,0.0,0.0,0.0,0.0,0.0,0.0,0.0,0.0,0.0,0.0,0.0,0.0,0.0,0.0,0.0,0.0,0.0,0.0,0.0,0.0,0.0,0.0,0.0,0.0,0.0,0.0,0.0,0.0,0.0,0.0,0.0,0.0,0.0,0.0,0.0,0.0,0.0,0.0,0.0,0.0,0.0,0.0,0.0,0.0,0.0,0.0,0.0,0.0,0.0,0.0,0.0,0.0,0.0,0.0,0.0,0.0,0.0,0.0,0.0,0.0,0.0,0.0,0.0,0.0,0.0,0.0,0.0,0.0,0.0,0.0,0.0,0.0,0.0,0.0,0.0,0.0,0.0,0.0,0.0,0.0,0.0,0.0,0.0,0.0,0.0,0.0,0.0,0.0,0.0,0.0,0.0,0.0,0.0,0.0,0.0,0.0,0.0,0.0,0.0,0.0,0.0,0.0,0.0,0.0,0.0,3.4932,3.4932,3.4932,0.0,3.6034,0.0,0.0,0.0,0.0,0.0,0.0,0.0,0.0,0.0,0.0,0.0,0.0,0.0,0.0,0.0,0.0,0.0,0.0,0.0,0.0,0.0,0.0,0.0,0.0,0.0,0.0,0.0,0.0,0.0,0.0,0.0,0.0,0.0,0.0,0.0,0.0,0.0,0.0,0.0,0.0,0.0,0.0,0.0,0.0,0.0,0.0,0.0,0.0,0.0,0.0,0.0,0.0,0.0,0.0,0.0,0.0,0.0,0.0,0.0,0.0,0.0,0.0,0.0,0.0,0.0,0.0,0.0,0.0,0.0,0.0,0.0,0.0,0.0,0.0,0.0,0.0,0.0,0.0,0.0,0.0,0.0,0.0,0.0,0.0,0.0,0.0,0.0,0.0,0.0,0.0,0.0,0.0,0.0,0.0,0.0,0.0,0.0,0.0,0.0,0.0,0.0,0.0,0.0,0.0,0.0,0.0,0.0,0.0,0.0,0.0,3.6442,3.6442,3.6442,3.659,0.0,0.0,0.0,0.0,0.0,0.0,0.0,0.0,0.0,0.0,0.0,0.0,0.0,0.0,0.0,0.0,0.0,0.0,0.0,0.0,0.0,0.0,0.0,0.0,0.0,0.0,0.0,0.0,0.0,0.0,0.0,0.0,0.0,0.0,0.0,0.0,0.0,0.0,0.0,0.0,0.0,0.0,0.0,0.0,0.0,0.0,0.0,0.0,0.0,0.0,0.0,0.0,0.0,0.0,0.0,0.0,0.0,0.0,0.0,0.0,0.0,0.0,0.0,0.0,0.0,0.0,0.0,0.0,0.0,0.0,0.0,0.0,0.0,0.0,0.0,0.0,0.0,0.0,0.0,0.0,0.0,0.0,0.0,0.0,0.0,0.0,0.0,0.0,0.0,0.0,0.0,0.0,0.0,0.0,0.0,0.0,0.0,0.0,0.0,0.0,0.0,0.0,0.0,0.0,0.0,0.0,0.0,0.0,0.0,0.0,3.7402,3.7402,3.7402,3.7402,3.7364,3.7378,0.0,0.0,0.0,0.0,0.0,0.0,0.0,0.0,0.0,0.0,0.0,0.0,0.0,0.0,0.0,0.0,0.0,0.0,0.0,0.0,0.0,0.0,0.0,0.0,0.0,0.0,0.0,0.0,0.0,0.0,0.0,0.0,0.0,0.0,0.0,0.0,0.0,0.0,0.0,0.0,0.0,0.0,0.0,0.0,0.0,0.0,0.0,0.0,0.0,0.0,0.0,0.0,0.0,0.0,0.0,0.0,0.0,0.0,0.0,0.0,0.0,0.0,0.0,0.0,0.0,0.0,0.0,0.0,0.0,0.0,0.0,0.0,0.0,0.0,0.0,0.0,0.0,0.0,0.0,0.0,0.0,0.0,0.0,0.0,0.0,0.0,0.0,0.0,0.0,0.0,0.0,0.0,0.0,0.0,0.0,0.0,0.0,0.0,0.0,0.0,0.0,0.0,0.0,0.0,0.0,0.0,0.0,0.0,3.7402,3.7421,3.7421,3.7421,3.7402,3.7359,0.0,0.0,0.0,0.0,0.0,0.0,0.0,0.0,0.0,0.0,0.0,0.0,0.0,0.0,0.0,0.0,0.0,0.0,0.0,0.0,0.0,0.0,0.0,0.0,0.0,0.0,0.0,0.0,0.0,0.0,0.0,0.0,0.0,0.0,0.0,0.0,0.0,0.0,0.0,0.0,0.0,0.0,0.0,0.0,0.0,0.0,0.0,0.0,0.0,0.0,0.0,0.0,0.0,0.0,0.0,0.0,0.0,0.0,0.0,0.0,0.0,0.0,0.0,0.0,0.0,0.0,0.0,0.0,0.0,0.0,0.0,0.0,0.0,0.0,0.0,0.0,0.0,0.0,0.0,0.0,0.0,0.0,0.0,0.0,0.0,0.0,0.0,0.0,0.0,0.0,0.0,0.0,0.0,0.0,0.0,0.0,0.0,0.0,0.0,0.0,0.0,0.0,0.0,0.0,0.0,0.0,0.0,0.0,0.0,3.8209,3.8155,3.8136,3.8136,3.8136,3.8016,0.0,0.0,0.0,0.0,0.0,0.0,0.0,0.0,0.0,0.0,0.0,0.0,0.0,0.0,0.0,0.0,0.0,0.0,0.0,0.0,0.0,0.0,0.0,0.0,0.0,0.0,0.0,0.0,0.0,0.0,0.0,0.0,0.0,0.0,0.0,0.0,0.0,0.0,0.0,0.0,0.0,0.0,0.0,0.0,0.0,0.0,0.0,0.0,0.0,0.0,0.0,0.0,0.0,0.0,0.0,0.0,0.0,0.0,0.0,0.0,0.0,0.0,0.0,0.0,0.0,0.0,0.0,0.0,0.0,0.0,0.0,0.0,0.0,0.0,0.0,0.0,0.0,0.0,0.0,0.0,0.0,0.0,0.0,0.0,0.0,0.0,0.0,0.0,0.0,0.0,0.0,0.0,0.0,0.0,0.0,0.0,0.0,0.0,0.0,0.0,0.0,0.0,0.0,0.0,0.0,0.0,0.0,0.0,0.0,3.8574,0.0,3.8574,3.8574,3.8574,3.8379,0.0,0.0,0.0,0.0,0.0,0.0,0.0,0.0,0.0,0.0,0.0,0.0,0.0,0.0,0.0,0.0,0.0,0.0,0.0,0.0,0.0,0.0,0.0,0.0,0.0,0.0,0.0,0.0,0.0,0.0,0.0,0.0,0.0,0.0,0.0,0.0,0.0,0.0,0.0,0.0,0.0,0.0,0.0,0.0,0.0,0.0,0.0,0.0,0.0,0.0,0.0,0.0,0.0,0.0,0.0,0.0,0.0,0.0,0.0,0.0,0.0,0.0,0.0,0.0,0.0,0.0,0.0,0.0,0.0,0.0,0.0,0.0,0.0,0.0,0.0,0.0,0.0,0.0,0.0,0.0,0.0,0.0,0.0,0.0,0.0,0.0,0.0,0.0,0.0,0.0,0.0,0.0,0.0,0.0,0.0,0.0,0.0,0.0,0.0,0.0,0.0,0.0,0.0,0.0,0.0,0.0,0.0,0.0,3.8647,3.8647,3.8647,3.8647,3.8647,3.8647,3.8451,0.0,0.0,0.0,0.0,0.0,0.0,0.0,0.0,0.0,0.0,0.0,0.0,0.0,0.0,0.0,0.0,0.0,0.0,0.0,0.0,0.0,0.0,0.0,0.0,0.0,0.0,0.0,0.0,0.0,0.0,0.0,0.0,0.0,0.0,0.0,0.0,0.0,0.0,0.0,0.0,0.0,0.0,0.0,0.0,0.0,0.0,0.0,0.0,0.0,0.0,0.0,0.0,0.0,0.0,0.0,0.0,0.0,0.0,0.0,0.0,0.0,0.0,0.0,0.0,0.0,0.0,0.0,0.0,0.0,0.0,0.0,0.0,0.0,0.0,0.0,0.0,0.0,0.0,0.0,0.0,0.0,0.0,0.0,0.0,0.0,0.0,0.0,0.0,0.0,0.0,0.0,0.0,0.0,0.0,0.0,0.0,0.0,0.0,0.0,0.0,0.0,0.0,0.0,0.0,0.0,0.0,0.0,0.0,0.0,3.9353,3.9353,3.9353,3.9353,3.9353,3.901,0.0,0.0,0.0,0.0,0.0,0.0,0.0,0.0,0.0,0.0,0.0,0.0,0.0,0.0,0.0,0.0,0.0,0.0,0.0,0.0,0.0,0.0,0.0,0.0,0.0,0.0,0.0,0.0,0.0,0.0,0.0,0.0,0.0,0.0,0.0,0.0,0.0,0.0,0.0,0.0,0.0,0.0,0.0,0.0,0.0,0.0,0.0,0.0,0.0,0.0,0.0,0.0,0.0,0.0,0.0,0.0,0.0,0.0,0.0,0.0,0.0,0.0,0.0,0.0,0.0,0.0,0.0,0.0,0.0,0.0,0.0,0.0,0.0,0.0,0.0,0.0,0.0,0.0,0.0,0.0,0.0,0.0,0.0,0.0,0.0,0.0,0.0,0.0,0.0,0.0,0.0,0.0,0.0,0.0,0.0,0.0,0.0,0.0,0.0,0.0,0.0,0.0,0.0,0.0,0.0,0.0,0.0,0.0,0.0,4.0382,3.993,3.9714,3.9714,3.9714,3.945,3.8954,0.0,0.0,0.0,0.0,0.0,0.0,0.0,0.0,0.0,0.0,0.0,0.0,0.0,0.0,0.0,0.0,0.0,0.0,0.0,0.0,0.0,0.0,0.0,0.0,0.0,0.0,0.0,0.0,0.0,0.0,0.0,0.0,0.0,0.0,0.0,0.0,0.0,0.0,0.0,0.0,0.0,0.0,0.0,0.0,0.0,0.0,0.0,0.0,0.0,0.0,0.0,0.0,0.0,0.0,0.0,0.0,0.0,0.0,0.0,0.0,0.0,0.0,0.0,0.0,0.0,0.0,0.0,0.0,0.0,0.0,0.0,0.0,0.0,0.0,0.0,0.0,0.0,0.0,0.0,0.0,0.0,0.0,0.0,0.0,0.0,0.0,0.0,0.0,0.0,0.0,0.0,0.0,0.0,0.0,0.0,0.0,0.0,0.0,0.0,0.0,0.0,0.0,0.0,0.0,0.0,0.0,0.0,0.0,4.1565,4.0453,3.9858,3.9858,3.9858,3.9786,0.0,0.0,0.0,0.0,0.0,0.0,0.0,0.0,0.0,0.0,0.0,0.0,0.0,0.0,0.0,0.0,0.0,0.0,0.0,0.0,0.0,0.0,0.0,0.0,0.0,0.0,0.0,0.0,0.0,0.0,0.0,0.0,0.0,0.0,0.0,0.0,0.0,0.0,0.0,0.0,0.0,0.0,0.0,0.0,0.0,0.0,0.0,0.0,0.0,0.0,0.0,0.0,0.0,0.0,0.0,0.0,0.0,0.0,0.0,0.0,0.0,0.0,0.0,0.0,0.0,0.0,0.0,0.0,0.0,0.0,0.0,0.0,0.0,0.0,0.0,0.0,0.0,0.0,0.0,0.0,0.0,0.0,0.0,0.0,0.0,0.0,0.0,0.0,0.0,0.0,0.0,0.0,0.0,0.0,0.0,0.0,0.0,0.0,0.0,0.0,0.0,0.0,0.0,0.0,0.0,0.0,0.0,0.0,0.0,4.23,4.1997,4.1714,4.1431,4.1167,4.0882,0.0,0.0,0.0,0.0,0.0,0.0,0.0,0.0,0.0,0.0,0.0,0.0,0.0,0.0,0.0,0.0,0.0,0.0,0.0,0.0,0.0,0.0,0.0,0.0,0.0,0.0,0.0,0.0,0.0,0.0,0.0,0.0,0.0,0.0,0.0,0.0,0.0,0.0,0.0,0.0,0.0,0.0,0.0,0.0,0.0,0.0,0.0,0.0,0.0,0.0,0.0,0.0,0.0,0.0,0.0,0.0,0.0,0.0,0.0,0.0,0.0,0.0,0.0,0.0,0.0,0.0,0.0,0.0,0.0,0.0,0.0,0.0,0.0,0.0,0.0,0.0,0.0,0.0,0.0,0.0,0.0,0.0,0.0,0.0,0.0,0.0,0.0,0.0,0.0,0.0,0.0,0.0,0.0,0.0,0.0,0.0,0.0,0.0,0.0,0.0,0.0,0.0,0.0,0.0,0.0,0.0,0.0,0.0,4.2284,4.2488,4.2835,4.2835,4.2627,4.2214,4.1664,0.0,0.0,0.0,0.0,0.0,0.0,0.0,0.0,0.0,0.0,0.0,0.0,0.0,0.0,0.0,0.0,0.0,0.0,0.0,0.0,0.0,0.0,0.0,0.0,0.0,0.0,0.0,0.0,0.0,0.0,0.0,0.0,0.0,0.0,0.0,0.0,0.0,0.0,0.0,0.0,0.0,0.0,0.0,0.0,0.0,0.0,0.0,0.0,0.0,0.0,0.0,0.0,0.0,0.0,0.0,0.0,0.0,0.0,0.0,0.0,0.0,0.0,0.0,0.0,0.0,0.0,0.0,0.0,0.0,0.0,0.0,0.0,0.0,0.0,0.0,0.0,0.0,0.0,0.0,0.0,0.0,0.0,0.0,0.0,0.0,0.0,0.0,0.0,0.0,0.0,0.0,0.0,0.0,0.0,0.0,0.0,0.0,0.0,0.0,0.0,0.0,0.0,0.0,0.0,0.0,0.0,0.0,0.0,4.297,4.2626,4.3374,4.3736,4.3601,4.2904,4.2327,0.0,0.0,0.0,0.0,0.0,0.0,0.0,0.0,0.0,0.0,0.0,0.0,0.0,0.0,0.0,0.0,0.0,0.0,0.0,0.0,0.0,0.0,0.0,0.0,0.0,0.0,0.0,0.0,0.0,0.0,0.0,0.0,0.0,0.0,0.0,0.0,0.0,0.0,0.0,0.0,0.0,0.0,0.0,0.0,0.0,0.0,0.0,0.0,0.0,0.0,0.0,0.0,0.0,0.0,0.0,0.0,0.0,0.0,0.0,0.0,0.0,0.0,0.0,0.0,0.0,0.0,0.0,0.0,0.0,0.0,0.0,0.0,0.0,0.0,0.0,0.0,0.0,0.0,0.0,0.0,0.0,0.0,0.0,0.0,0.0,0.0,0.0,0.0,0.0,0.0,0.0,0.0,0.0,0.0,0.0,0.0,0.0,0.0,0.0,0.0,0.0,0.0,0.0,0.0,0.0,0.0,0.0,0.0,4.3798,4.4142,4.4979,4.507,4.4344,4.3124,4.254,0.0,0.0,0.0,0.0,0.0,0.0,0.0,0.0,0.0,0.0,0.0,0.0,0.0,0.0,0.0,0.0,0.0,0.0,0.0,0.0,0.0,0.0,0.0,0.0,0.0,0.0,0.0,0.0,0.0,0.0,0.0,0.0,0.0,0.0,0.0,0.0,0.0,0.0,0.0,0.0,0.0,0.0,0.0,0.0,0.0,0.0,0.0,0.0,4.335,0.0,0.0,0.0,0.0,0.0,0.0,0.0,0.0,0.0,0.0,0.0,0.0,0.0,0.0,0.0,0.0,0.0,0.0,0.0,0.0,0.0,0.0,0.0,0.0,0.0,0.0,0.0,0.0,0.0,0.0,0.0,0.0,0.0,0.0,0.0,0.0,0.0,0.0,0.0,0.0,0.0,0.0,0.0,0.0,0.0,0.0,0.0,0.0,0.0,0.0,0.0,0.0,0.0,0.0,0.0,0.0,0.0,0.0,0.0,4.4596,4.4836,4.5469,4.5625,4.5079,4.4052,4.3325,0.0,0.0,0.0,0.0,0.0,0.0,0.0,0.0,0.0,0.0,0.0,0.0,0.0,0.0,0.0,0.0,0.0,0.0,0.0,0.0,0.0,0.0,0.0,0.0,0.0,0.0,0.0,0.0,0.0,0.0,0.0,0.0,0.0,0.0,0.0,0.0,0.0,0.0,0.0,0.0,0.0,0.0,0.0,0.0,0.0,0.0,0.0,0.0,0.0,0.0,0.0,0.0,0.0,0.0,0.0,0.0,0.0,0.0,0.0,0.0,0.0,0.0,0.0,0.0,0.0,0.0,0.0,0.0,0.0,0.0,0.0,0.0,0.0,0.0,0.0,0.0,0.0,0.0,0.0,0.0,0.0,0.0,0.0,0.0,0.0,0.0,0.0,0.0,0.0,0.0,0.0,0.0,0.0,0.0,0.0,0.0,0.0,0.0,0.0,0.0,0.0,0.0,0.0,0.0,0.0,0.0,0.0,4.5119,4.5499,4.5345,4.588,4.6101,4.5875,4.5349,4.4505,4.3467,0.0,0.0,0.0,0.0,0.0,0.0,0.0,0.0,0.0,0.0,0.0,0.0,0.0,0.0,0.0,0.0,0.0,0.0,0.0,0.0,0.0,0.0,0.0,0.0,0.0,0.0,0.0,0.0,0.0,0.0,0.0,0.0,0.0,0.0,0.0,0.0,0.0,0.0,4.5663,4.5663,0.0,0.0,0.0,0.0,0.0,0.0,0.0,0.0,4.5595,0.0,0.0,0.0,0.0,0.0,0.0,0.0,0.0,0.0,0.0,0.0,0.0,0.0,0.0,0.0,0.0,0.0,0.0,0.0,0.0,0.0,0.0,0.0,0.0,0.0,0.0,0.0,0.0,0.0,0.0,0.0,0.0,0.0,0.0,0.0,0.0,0.0,0.0,0.0,0.0,0.0,0.0,0.0,0.0,0.0,0.0,0.0,0.0,0.0,0.0,0.0,0.0,0.0,0.0,0.0,0.0,4.5119,4.6136,4.6547,4.6466,4.7555,4.7644,4.6621,4.6873,4.6402,4.4983,0.0,0.0,0.0,0.0,0.0,0.0,0.0,0.0,0.0,0.0,0.0,0.0,0.0,0.0,0.0,0.0,0.0,0.0,0.0,0.0,0.0,0.0,0.0,0.0,0.0,0.0,0.0,0.0,0.0,0.0,0.0,0.0,0.0,0.0,0.0,0.0,0.0,0.0,0.0,4.7165,4.7165,0.0,0.0,0.0,0.0,0.0,0.0,0.0,0.0,4.6697,0.0,0.0,0.0,0.0,0.0,0.0,0.0,0.0,0.0,0.0,0.0,0.0,0.0,0.0,0.0,0.0,0.0,0.0,0.0,0.0,0.0,0.0,0.0,0.0,0.0,0.0,0.0,0.0,0.0,0.0,0.0,0.0,0.0,0.0,0.0,0.0,0.0,0.0,0.0,0.0,0.0,0.0,0.0,0.0,0.0,0.0,0.0,0.0,0.0,0.0,0.0,0.0,0.0,0.0,0.0,4.6473,4.7141,4.7575,4.7685,4.8257,4.8322,4.7685,4.7575,4.7165,0.0,0.0,0.0,0.0,0.0,0.0,0.0,0.0,0.0,0.0,0.0,0.0,0.0,0.0,0.0,0.0,0.0,0.0,0.0,0.0,0.0,0.0,0.0,0.0,0.0,0.0,0.0,0.0,0.0,0.0,0.0,0.0,0.0,0.0,0.0,0.0,0.0,0.0,0.0,0.0,4.8355,4.8355,4.8355,0.0,0.0,0.0,0.0,0.0,0.0,4.805,4.7786,0.0,0.0,0.0,0.0,0.0,0.0,0.0,0.0,0.0,0.0,0.0,0.0,0.0,0.0,0.0,0.0,0.0,0.0,0.0,0.0,0.0,0.0,0.0,0.0,0.0,0.0,0.0,0.0,0.0,0.0,0.0,0.0,0.0,0.0,0.0,0.0,0.0,0.0,0.0,0.0,0.0,0.0,0.0,0.0,0.0,0.0,0.0,0.0,0.0,0.0,0.0,0.0,0.0,0.0,0.0,4.7696,4.8092,4.8486,4.8902,4.8967,4.8967,4.8927,4.8289,4.7828,0.0,0.0,0.0,0.0,0.0,0.0,0.0,0.0,0.0,0.0,0.0,0.0,0.0,0.0,0.0,0.0,0.0,0.0,0.0,0.0,0.0,0.0,0.0,0.0,0.0,0.0,0.0,0.0,0.0,0.0,0.0,0.0,0.0,0.0,0.0,0.0,0.0,0.0,0.0,0.0,0.0,4.9396,4.9396,4.9654,0.0,0.0,0.0,0.0,4.9396,4.9162,0.0,0.0,0.0,0.0,0.0,0.0,0.0,0.0,0.0,0.0,0.0,0.0,0.0,0.0,0.0,0.0,0.0,0.0,0.0,0.0,0.0,0.0,0.0,0.0,0.0,0.0,0.0,0.0,0.0,0.0,0.0,0.0,0.0,0.0,0.0,0.0,0.0,0.0,0.0,0.0,0.0,0.0,0.0,0.0,0.0,0.0,0.0,0.0,0.0,0.0,0.0,0.0,0.0,0.0,0.0,0.0,4.8371,4.9047,4.959,4.9912,5.0232,5.0232,4.9937,4.9525,4.9047,0.0,0.0,0.0,0.0,0.0,0.0,0.0,0.0,0.0,0.0,0.0,0.0,0.0,0.0,0.0,0.0,0.0,0.0,0.0,0.0,0.0,0.0,0.0,0.0,0.0,0.0,0.0,0.0,0.0,0.0,0.0,0.0,0.0,0.0,0.0,0.0,0.0,0.0,0.0,0.0,0.0,5.0423,5.0397,5.0461,5.0487,0.0,0.0,5.0397,5.0397,5.0168,0.0,0.0,0.0,0.0,0.0,0.0,0.0,0.0,0.0,0.0,0.0,0.0,0.0,0.0,0.0,0.0,0.0,0.0,0.0,0.0,0.0,0.0,0.0,0.0,0.0,0.0,0.0,0.0,0.0,0.0,0.0,0.0,0.0,0.0,0.0,0.0,0.0,0.0,0.0,0.0,0.0,0.0,0.0,0.0,0.0,0.0,0.0,0.0,0.0,0.0,0.0,0.0,0.0,0.0,0.0,4.9072,4.9371,5.0104,5.0487,5.0677,5.0968,5.1031,5.0677,5.0359,4.9822,0.0,0.0,0.0,0.0,0.0,0.0,0.0,0.0,0.0,0.0,0.0,0.0,0.0,0.0,0.0,0.0,0.0,0.0,0.0,0.0,0.0,0.0,0.0,0.0,0.0,0.0,0.0,0.0,0.0,0.0,0.0,0.0,0.0,0.0,0.0,0.0,0.0,0.0,0.0,0.0,0.0,0.0,5.1157,5.1346,0.0,0.0,0.0,5.1372,5.122,0.0,0.0,0.0,0.0,0.0,0.0,0.0,0.0,0.0,0.0,0.0,0.0,0.0,0.0,0.0,0.0,0.0,0.0,0.0,0.0,0.0,0.0,0.0,0.0,0.0,0.0,0.0,0.0,0.0,0.0,0.0,0.0,0.0,0.0,0.0,0.0,0.0,0.0,0.0,0.0,0.0,0.0,0.0,0.0,0.0,0.0,0.0,0.0,0.0,0.0,0.0,0.0,0.0,0.0,0.0,0.0,0.0,5.0487,5.112,5.1497,5.1622,5.1846,5.1872,5.1622,5.1183,0.0,0.0,0.0,0.0,0.0,0.0,0.0,0.0,0.0,0.0,0.0,0.0,0.0,0.0,0.0,0.0,0.0,0.0,0.0,0.0,0.0,0.0,0.0,0.0,0.0,0.0,0.0,4.7138,0.0,0.0,0.0,0.0,0.0,0.0,0.0,0.0,0.0,0.0,0.0,0.0,0.0,0.0,5.1534,5.1846,5.2032,5.2297,0.0,0.0,5.2332,5.2118,5.1831,5.1528,0.0,0.0,0.0,0.0,0.0,0.0,0.0,0.0,0.0,0.0,0.0,0.0,0.0,0.0,0.0,0.0,0.0,0.0,0.0,0.0,0.0,0.0,0.0,0.0,0.0,0.0,0.0,0.0,4.5824,0.0,0.0,0.0,0.0,0.0,0.0,0.0,0.0,0.0,0.0,0.0,0.0,0.0,0.0,0.0,0.0,0.0,0.0,0.0,0.0,0.0,0.0,0.0,0.0,0.0,5.1183,5.1534,5.2156,5.2677,5.2922,5.301,5.301,5.2949,5.2306,5.1872,0.0,0.0,0.0,0.0,0.0,0.0,0.0,0.0,0.0,0.0,0.0,0.0,0.0,0.0,0.0,0.0,0.0,0.0,0.0,0.0,0.0,0.0,0.0,0.0,0.0,0.0,0.0,0.0,0.0,0.0,0.0,0.0,0.0,0.0,0.0,0.0,0.0,0.0,0.0,0.0,0.0,5.2527,5.2527,5.2527,5.274,0.0,5.3405,5.3405,5.3378,5.3316,5.2942,5.1737,0.0,0.0,0.0,0.0,0.0,0.0,0.0,0.0,0.0,0.0,0.0,0.0,0.0,0.0,0.0,0.0,0.0,0.0,0.0,0.0,0.0,0.0,0.0,0.0,0.0,4.6632,4.6763,0.0,4.7579,0.0,0.0,0.0,0.0,0.0,0.0,0.0,0.0,0.0,0.0,0.0,0.0,0.0,0.0,0.0,0.0,0.0,0.0,0.0,0.0,0.0,0.0,0.0,0.0,5.181,5.2492,5.2983,5.3349,5.374,5.4276,5.4303,5.3713,5.3822,5.3332,0.0,0.0,0.0,0.0,0.0,0.0,0.0,0.0,0.0,0.0,0.0,0.0,0.0,0.0,0.0,0.0,0.0,0.0,0.0,0.0,0.0,0.0,0.0,0.0,0.0,0.0,0.0,0.0,4.9282,5.0114,5.0888,0.0,0.0,0.0,0.0,0.0,0.0,0.0,0.0,0.0,0.0,5.321,5.3458,5.3779,0.0,0.0,5.471,5.462,5.4432,5.4342,5.4136,5.3419,5.2986,0.0,0.0,0.0,0.0,0.0,0.0,0.0,0.0,0.0,0.0,0.0,0.0,0.0,0.0,0.0,0.0,0.0,0.0,0.0,0.0,0.0,0.0,0.0,0.0,0.0,0.0,0.0,4.8962,0.0,0.0,0.0,0.0,0.0,0.0,0.0,0.0,0.0,0.0,0.0,0.0,0.0,0.0,0.0,0.0,0.0,0.0,0.0,0.0,0.0,0.0,0.0,0.0,5.2633,5.3497,5.4139,5.4644,5.5077,5.5821,5.5909,5.5312,5.5552,5.5011,0.0,0.0,0.0,0.0,0.0,0.0,0.0,0.0,0.0,0.0,0.0,0.0,0.0,0.0,0.0,0.0,0.0,0.0,0.0,0.0,0.0,0.0,0.0,0.0,0.0,0.0,0.0,0.0,5.0223,5.097,5.1774,0.0,0.0,0.0,0.0,0.0,0.0,0.0,0.0,0.0,0.0,5.426,5.4669,5.5111,5.5437,5.578,5.5807,5.5744,5.5339,5.5339,5.5158,5.4654,0.0,0.0,0.0,0.0,0.0,0.0,0.0,0.0,0.0,0.0,0.0,0.0,0.0,0.0,0.0,0.0,0.0,0.0,0.0,0.0,0.0,0.0,0.0,0.0,0.0,0.0,0.0,4.9892,0.0,0.0,4.9615,0.0,0.0,0.0,0.0,0.0,0.0,0.0,0.0,0.0,0.0,0.0,0.0,0.0,0.0,0.0,0.0,0.0,0.0,0.0,0.0,0.0,0.0,5.389,5.4494,5.571,5.6648,5.7298,5.7683,5.7803,5.7746,5.7563,5.6712,5.5436,0.0,0.0,0.0,0.0,0.0,0.0,0.0,0.0,0.0,0.0,0.0,0.0,0.0,0.0,0.0,0.0,0.0,0.0,0.0,0.0,0.0,0.0,0.0,0.0,0.0,0.0,5.1304,5.1815,5.2379,0.0,0.0,0.0,0.0,0.0,0.0,0.0,0.0,0.0,5.5166,5.5422,5.5651,5.6265,5.6347,5.65,5.6765,5.6784,5.6658,5.6342,5.6278,5.5934,0.0,0.0,0.0,0.0,0.0,0.0,0.0,0.0,0.0,0.0,0.0,0.0,0.0,0.0,0.0,0.0,0.0,0.0,0.0,0.0,0.0,0.0,0.0,0.0,0.0,0.0,0.0,5.1204,5.0916,0.0,0.0,0.0,0.0,0.0,0.0,0.0,0.0,0.0,0.0,0.0,5.3899,5.4286,0.0,0.0,0.0,0.0,0.0,0.0,0.0,0.0,0.0,0.0,0.0,0.0,5.4698,5.5737,5.6609,5.7338,5.7982,5.8529,5.8589,5.8189,5.8469,5.7973,5.6451,0.0,0.0,0.0,0.0,0.0,0.0,0.0,0.0,0.0,0.0,0.0,0.0,0.0,0.0,0.0,0.0,0.0,0.0,0.0,0.0,0.0,0.0,0.0,0.0,0.0,5.1995,0.0,0.0,0.0,0.0,0.0,0.0,0.0,0.0,0.0,0.0,5.465,5.5354,5.5984,5.6417,5.6762,5.6955,5.7342,5.7646,0.0,0.0,0.0,0.0,0.0,0.0,0.0,0.0,0.0,0.0,0.0,0.0,0.0,0.0,5.5669,5.5153,5.4939,5.4872,5.4872,0.0,0.0,0.0,0.0,0.0,0.0,0.0,0.0,0.0,0.0,0.0,0.0,0.0,0.0,5.263,5.2233,5.2259,0.0,0.0,0.0,0.0,0.0,0.0,0.0,0.0,5.5039,5.5579,5.5849,5.6173,5.6496,5.6789,5.6378,5.5699,0.0,0.0,0.0,0.0,0.0,0.0,0.0,0.0,5.6033,5.7013,5.7916,5.8648,5.9324,5.9966,6.0085,5.9651,5.9735,5.9328,5.8258,5.6858,5.5793,0.0,0.0,0.0,0.0,0.0,0.0,0.0,0.0,0.0,0.0,0.0,0.0,0.0,0.0,0.0,0.0,0.0,0.0,0.0,0.0,0.0,0.0,0.0,5.3237,0.0,0.0,0.0,0.0,0.0,0.0,0.0,0.0,0.0,5.5696,5.6114,5.6698,5.7422,5.7768,5.8054,5.8277,0.0,0.0,0.0,0.0,0.0,0.0,0.0,5.8578,5.855,5.8424,5.836,5.836,5.8079,5.7825,5.7825,0.0,0.0,5.6301,5.6132,5.6132,5.6105,5.5881,5.5749,5.5749,5.5749,5.5749,0.0,0.0,0.0,0.0,5.4039,0.0,0.0,0.0,5.5061,5.463,0.0,5.3862,0.0,0.0,0.0,0.0,5.461,5.5221,0.0,0.0,5.7415,5.8042,5.831,5.8605,5.8986,5.9248,5.8605,5.831,5.8165,5.5579,0.0,0.0,0.0,0.0,0.0,0.0,5.772,5.8377,5.9523,6.0555,6.1195,6.1732,6.2087,6.1998,6.1204,6.0735,6.0589,5.8638,5.7511,5.7424,5.5628,0.0,0.0,0.0,0.0,0.0,0.0,0.0,0.0,0.0,0.0,0.0,0.0,0.0,0.0,0.0,0.0,0.0,0.0,0.0,0.0,5.446,0.0,0.0,0.0,0.0,0.0,0.0,0.0,0.0,0.0,5.8584,5.8004,5.7711,5.8071,5.9503,0.0,0.0,0.0,0.0,6.0332,6.0592,6.0104,5.981,6.0062,5.9667,5.9273,5.9273,0.0,0.0,5.9617,5.9459,5.9273,5.9239,5.9273,5.8836,5.7505,5.7275,5.7184,5.7211,5.7211,5.7211,5.7119,5.7184,5.7146,5.5842,0.0,0.0,0.0,0.0,5.5512,5.5908,5.6471,5.6471,5.6262,5.5943,5.569,0.0,0.0,0.0,0.0,0.0,0.0,5.7154,5.7775,5.828,5.881,5.9277,5.9393,5.9654,5.9884,5.9509,5.9277,5.9248,5.8348,5.7146,5.5972,0.0,0.0,0.0,0.0,5.8568,5.9611,6.0492,6.1229,6.1821,6.1998,6.2116,6.2116,6.1851,6.1498,6.1027,6.0238,5.9422,5.8755,5.7336,0.0,0.0,0.0,0.0,0.0,0.0,0.0,0.0,0.0,0.0,0.0,0.0,0.0,0.0,0.0,0.0,0.0,0.0,0.0,5.5701,5.5845,5.5787,0.0,0.0,0.0,0.0,0.0,0.0,0.0,0.0,0.0,6.0425,6.004,5.9887,0.0,0.0,6.039,6.0776,6.0652,6.0678,6.0944,6.08,0.0,6.0793,6.0678,6.0563,6.0563,6.0595,6.0655,6.0655,6.0595,6.0534,6.0563,6.0563,6.0413,6.0047,5.9183,5.8648,5.8585,5.8585,5.8585,5.8585,5.8585,5.8585,5.7275,5.6275,5.5947,5.6144,5.6693,5.6915,5.7238,5.7725,5.7825,5.7685,5.7411,5.7196,5.6976,5.6892,5.7015,0.0,0.0,0.0,5.8885,5.9619,5.9974,6.0355,6.0821,6.0965,6.1167,6.1484,6.1138,6.1023,6.1023,6.0589,5.9856,5.8753,0.0,5.8051,5.814,5.8856,5.9683,6.0613,6.1522,6.2202,6.2677,6.2795,6.2735,6.2498,6.2468,6.2348,6.1963,6.1407,6.0821,6.0208,5.8871,5.7769,0.0,0.0,0.0,0.0,0.0,0.0,0.0,0.0,0.0,0.0,0.0,5.2116,5.2451,0.0,0.0,0.0,5.5903,5.688,5.7484,5.7571,0.0,0.0,0.0,0.0,0.0,0.0,0.0,6.0108,6.0783,6.1375,6.191,6.191,6.1673,6.1284,6.1284,6.1344,6.1494,0.0,6.1431,6.1844,6.1759,6.1791,6.1965,6.1909,6.188,6.2057,6.1939,6.1939,6.2057,6.1939,6.1821,6.1703,6.1703,6.1643,6.1554,6.0865,6.0226,5.9858,5.9673,5.9611,5.9611,5.9611,5.9611,5.8262,5.8262,5.7597,5.7468,5.788,5.8198,5.8515,5.8829,5.9114,5.8963,5.8457,5.8457,5.8457,5.8518,5.8823,0.0,5.9908,6.0146,6.0821,6.1673,6.1969,6.2292,6.2673,6.2933,6.3222,6.3508,6.3192,6.3107,6.3137,6.2586,6.2204,6.1849,6.0671,5.9904,5.9603,6.0477,6.1068,6.1488,6.2643,6.3387,6.3743,6.392,6.3767,6.3169,6.3139,6.3139,6.3049,6.2193,6.1721,6.1664,6.0295,5.9045,5.809,0.0,0.0,0.0,0.0,0.0,0.0,0.0,0.0,0.0,0.0,0.0,0.0,0.0,0.0,5.6566,5.7772,0.0,5.9306,5.9423,0.0,0.0,0.0,5.9714,6.0267,6.0677,6.1116,6.1703,0.0,0.0,6.2672,6.3192,6.3192,6.2351,6.2234,6.2234,6.2204,6.2234,6.244,6.3061,6.2912,6.291,6.3326,6.3174,6.3134,6.3364,6.3306,6.3134,6.3364,6.3249,6.2961,6.273,6.273,6.2643,6.2292,6.2145,6.1939,6.1044,6.0621,6.0348,6.0348,6.0348,6.0287,5.908,5.9329,5.9142,5.9017,5.8829,5.9205,5.955,5.9797,5.992,5.9896,5.9782,5.9782,5.9876,6.0148,6.0422,6.0754,6.1142,6.1261,6.1645,6.2351,6.2439,6.2789,6.3309,6.3337,6.3565,6.388,6.3823,6.4008,6.4492,6.4377,6.427,6.4189,6.3862,6.3059,6.1899,6.2267,6.2983,6.38,6.4068,6.4367,6.4696,6.4725,6.4455,6.3797,6.3767,6.3558,6.3079,6.2872,6.2609,6.2347,6.1551,6.0761,6.0063,5.9161,0.0,0.0,0.0,0.0,0.0,0.0,0.0,0.0,0.0,5.5618,5.6561,0.0,5.7628,0.0,5.9646,6.0107,5.9999,6.0398,0.0,0.0,6.1013,6.1484,6.1632,6.2136,6.2609,6.2989,6.3192,6.3364,6.3622,6.3823,6.3793,6.3565,6.3337,6.3279,6.3508,6.3337,6.3309,6.3662,6.3686,6.3683,6.3834,6.38,6.3793,6.3849,6.3793,6.3793,6.3849,6.3793,6.3736,6.3679,6.3679,6.3652,6.3508,6.3164,6.273,6.2497,6.2028,6.1554,6.1315,6.1255,6.1195,6.0586,6.0773,6.0926,6.0693,6.0285,6.0185,6.0255,6.0438,6.056,6.0621,6.0681,6.0774,6.1015,6.1344,6.1494,6.1732,6.2028,6.2057,6.2351,6.2789,6.2963,6.3194,6.3538,6.4096,6.4475,6.4645,6.4919,6.5254,6.562,6.5535,6.5428,6.5408,6.5413,6.5084,6.4366,6.382,6.3911,6.4605,6.5143,6.5473,6.5473,6.5592,6.5263,6.4485,6.4455,6.4156,6.3498,6.3498,6.332,6.2847,6.2316,6.1728,6.1143,6.0326,5.9481,0.0,0.0,0.0,0.0,0.0,0.0,0.0,0.0,0.0,0.0,0.0,5.9476,6.081,6.138,6.1755,6.1885,6.2168,6.2337,6.2198,6.2642,6.2966,6.2966,6.321,6.3508,6.3736,6.3849,6.3989,6.43,6.4468,6.4635,6.4746,6.4604,6.4382,6.4019,6.3849,6.3793,6.3963,6.4075,6.4244,6.4387,6.4387,6.4387,6.4387,6.4387,6.4387,6.4387,6.4387,6.4387,6.4188,6.4188,6.4132,6.4019,6.3736,6.3451,6.3394,6.3049,6.2497,6.1969,6.1791,6.1761,6.2114,6.2177,6.2491,6.2327,6.178,6.1232,6.0915,6.0831,6.1073,6.1193,6.1253,6.1554,6.1939,6.2175,6.2234,6.2381,6.2673,6.2673,6.2789,6.3137,6.3427,6.3659,6.3746,6.4923,6.5513,6.56,6.6181,6.6487,6.6579,6.6379,6.6265,6.6298,6.6311,6.6433,6.6583,6.5292,6.4722,6.4933,6.6012,6.6493,6.6192,6.6493,6.6192,6.5263,6.5144,6.4844,6.4186,6.4036,6.3737,6.3228,6.2907,6.2463,6.1868,6.1348,6.0763,0.0,5.9829,0.0,0.0,0.0,0.0,0.0,0.0,0.0,0.0,6.0632,6.124,6.2574,6.3062,6.3533,6.4054,6.4228,6.4284,6.4228,6.4193,6.4162,6.4162,6.4162,6.4106,6.4106,6.43,6.4549,6.4826,6.5132,6.5406,6.5592,6.5592,6.5266,6.4468,6.4244,6.4188,6.4162,6.4356,6.4579,6.4777,6.4888,6.4888,6.4888,6.4832,6.4888,6.4888,6.4888,6.4777,6.4524,6.4468,6.4412,6.4162,6.4075,6.4019,6.4019,6.3736,6.3222,6.2468,6.2175,6.2175,6.224,6.2491,6.2582,6.2683,6.2782,6.2728,6.209,6.1073,6.1193,6.1284,6.1554,6.2175,6.2439,6.2556,6.2789,6.2963,6.3021,6.3021,6.3021,6.3166,6.3935,6.4495,6.4755,6.5738,6.6331,6.659,6.6744,6.7082,6.7604,6.7546,6.7706,6.796,6.7905,6.7877,6.7697,0.0,0.0,0.0,6.7034,6.7276,6.7215,6.7306,6.6974,6.6282,6.5952,0.0,6.4874,6.4306,6.3947,6.3827,6.3522,0.0,0.0,0.0,0.0,0.0,0.0,0.0,0.0,0.0,0.0,0.0,6.3514,6.3421,6.2198,6.2815,6.3434,6.3724,6.4493,6.4915,6.4839,6.5463,6.5744,6.5576,6.5251,6.5022,6.5022,6.4888,6.4721,6.4721,6.4777,6.4943,6.5194,6.5242,6.5437,6.5794,6.57,6.5646,6.5491,6.5218,6.5077,6.5022,6.4918,6.4832,6.4888,6.4949,6.5042,6.4888,6.4888,6.4918,6.498,6.4949,6.4918,6.4838,6.4832,6.4808,6.4752,6.4524,6.4448,6.4356,6.4106,6.3679,6.2961,6.2643,6.2439,6.363,6.3757,6.3757,6.3709,0.0,6.3574,6.3146,6.2336,6.2016,6.1935,6.2116,6.2439,6.2673,6.2847,6.3021,6.3137,6.3137,6.3137,6.3344,6.3848,6.4468,6.5059,6.5711,6.6729,6.7208,6.7412,6.775,6.8058,6.8397,6.8397,6.8492,6.8623,6.8476,6.8358,6.8179,6.809,6.785,6.7487,6.7759,6.7879,6.7759,6.7879,6.7728,6.7245,6.7095,0.0,0.0,0.0,0.0,0.0,0.0,0.0,0.0,6.4734,0.0,6.4418,6.4304,6.4152,6.4019,6.4375,6.4911,6.5417,6.6037,6.5888,6.4763,6.5402,6.5898,6.5898,6.6318,6.6504,6.6422,6.6815,6.6982,6.6871,6.6672,6.651,6.651,6.6288,6.6066,6.6066,6.5985,6.6072,6.6485,6.6541,6.6706,6.7112,6.7166,6.7134,6.7049,6.6191,6.5553,6.573,6.5547,6.5534,6.5811,6.5903,6.5873,6.5903,6.5903,6.5903,6.5903,6.5873,6.5873,6.5903,6.5903,6.5903,6.5903,6.576,6.5617,6.5647,6.5421,6.5106,6.4701,6.3787,6.3111,6.4996,6.4996,6.4996,6.4677,6.4212,6.4149,6.4023,6.3813,6.3258,0.0,0.0,6.2851,6.2937,6.3079,6.3199,6.3228,6.3258,6.3436,6.391,6.4712,6.521,6.5833,6.6583,6.7577,6.8089,6.812,6.8643,6.8889,6.8889,6.8889,6.8889,6.8889,6.8654,6.8505,6.8595,6.8417,6.8298,6.8298,6.8358,6.8298,6.809,6.8298,6.8298,6.809,6.803,6.7756,6.715,6.7029,6.6784,6.6295,6.6202,6.6199,6.6257,6.6314,6.643,6.6629,6.6629,6.6744,6.7028,6.7028,6.7203,6.761,6.8015,6.7897,6.7116,6.7536,6.7815,6.7815,6.7908,6.8002,6.8002,6.8002,6.8058,6.8058,6.7964,6.787,6.7839,6.7592,6.733,6.728,6.708,6.7229,6.7648,6.7784,6.8068,6.8508,6.8522,6.8703,6.8491,6.7206,6.6301,6.6437,6.6338,6.6329,6.6704,6.6827,6.6919,6.6796,6.6858,6.6919,6.6919,6.6919,6.6919,6.6796,6.6919,6.6858,6.6888,6.677,6.6919,6.6919,6.666,6.6457,6.6365,6.5201,6.4226,6.4996,6.4996,6.4996,6.4938,6.4851,6.4851,6.4852,6.4767,6.4452,6.401,6.3446,6.3711,6.3529,6.3166,6.3647,6.3857,6.3917,6.4779,6.5228,6.5436,6.6628,6.7225,6.7405,6.8341,6.8735,6.8766,6.8858,6.8889,6.8889,6.8889,6.8889,6.8889,6.883,6.8948,6.924,6.9472,6.9588,6.953,6.88,6.8417,6.8327,6.8417,6.8417,6.8327,6.8119,6.7939,6.7878,6.7331,6.7025,6.7197,6.6936,6.6888,6.7172,6.7454,6.7592,6.7592,6.7592,6.7648,6.7648,6.7648,6.7953,6.8601,6.9421,6.9321,6.7828,6.7759,6.7815,6.7846,6.8377,6.8689,6.8689,6.8945,6.9088,6.9057,6.8555,6.8178,6.8241,6.802,6.771,6.7486,6.7505,6.771,6.7915,6.8106,6.8359,6.8626,6.8924,6.8766,6.8743,6.8241,6.7676,6.7293,6.7156,6.7049,6.7069,6.695,6.7042,6.6919,6.7012,6.7073,6.7073,6.7073,6.7073,6.695,6.7073,6.7012,6.7012,6.6919,6.7042,6.7073,6.7016,6.6928,6.6959,6.6365,6.5924,6.4996,6.4996,6.4996,6.4996,6.506,6.5378,6.5643,6.5846,6.5856,6.5352,6.4398,6.4516,6.4395,6.4156,6.4425,6.4604,6.4811,6.5288,6.5885,6.6571,6.7258,6.777,6.8283,6.8677,6.8889,6.8889,6.8889,6.8889,6.8889,6.8889,6.9006,6.9213,6.9298,6.9472,6.9646,6.9761,6.9818,6.9818,6.9383,6.9151,6.9151,6.9151,6.9151,6.9151,6.9034,6.9006,6.9006,6.8698,6.8571,6.8687,6.8696,6.8825,6.8939,6.922,6.9444,6.9611,6.9667,6.9722,6.9888,6.9888,7.0015,7.0331,7.0703,7.0696,6.9951,6.9556,6.9388,6.942,6.9703,6.9891,6.9891,7.0004,7.0091,7.0091,6.9776,6.9587,6.9587,6.9332,6.9108,6.8939,6.8939,6.8939,6.9139,6.9276,6.9476,6.9785,6.9841,6.9809,6.9809,6.9667,6.9231,6.8358,6.7982,6.7941,6.7931,6.7997,6.7997,6.7997,6.7997,6.7966,6.7997,6.7966,6.7966,6.7966,6.7966,6.7997,6.7966,6.7997,6.7997,6.7997,6.7966,6.7997,6.7966,6.785,6.7494,6.4996,6.4996,6.4996,6.506,6.5158,6.5819,6.6257,6.6506,6.6846,6.643,6.5533,6.5323,6.5173,6.5113,6.5293,6.5561,6.5798,6.6037,6.6695,6.7622,6.777,6.8163,6.8828,6.8889,6.8889,6.8889,6.8889,6.8948,6.9006,6.9006,6.9182,6.9472,6.9761,6.9933,6.9933,6.999,7.0047,7.0047,7.0047,6.999,6.9787,6.9818,6.9818,6.9818,6.9818,6.9787,6.9933,6.9901,7.0052,7.0292,7.0551,7.0816,7.1087,7.1256,7.1537,7.1736,7.1792,7.1903,7.2037,7.1964,7.1932,7.2092,7.1964,7.1868,7.1813,7.1354,7.0981,7.0981,7.0949,7.0981,7.0949,7.0925,7.0901,7.0901,7.0845,7.0694,7.0757,7.0589,7.0363,7.0306,7.0104,7.0073,7.0218,7.0363,7.0469,7.0638,7.0789,7.0789,7.0789,7.0789,7.028,6.9484,6.8924,6.8909,6.9089,6.9062,6.9062,6.9123,6.9062,6.9058,6.9058,6.9062,6.9093,6.9058,6.9031,6.9058,6.9062,6.9062,6.9089,6.9027,6.8938,6.8914,6.8766,6.8766,6.8587,6.4996,6.4996,6.4996,6.5158,6.5538,6.6195,6.6444,6.6568,6.6876,6.6939,6.67,6.6191,6.5772,6.5589,6.6071,6.6521,6.6938,6.7722,6.8174,6.8354,6.8621,6.8828,6.8889,6.8889,6.8889,6.8889,6.8948,6.9065,6.9298,6.9387,6.9472,6.9761,7.0104,7.0218,7.0275,7.0532,7.0701,7.0733,7.0733,7.0419,6.9875,6.9818,6.9818,6.9818,6.9818,6.9933,7.0369,7.0249,7.0784,7.1861,7.1981,7.2468,7.3323,7.3475,7.3507,7.3532,7.3532,7.3564,7.3556,7.2956,7.2915,7.3436,7.2979,7.2604,7.2572,7.1973,7.1534,7.1566,7.1566,7.1479,7.1502,7.1314,7.1148,7.1148,7.0981,7.0789,7.0845,7.0789,7.0645,7.0331,7.0532,7.0589,7.0419,7.0532,7.0733,7.0789,7.0789,7.0789,7.0789,7.0789,7.0701,7.0237,7.0124,6.9922,6.9761,6.9703,6.9646,6.9703,6.9703,6.9646,6.9614,6.9614,6.9703,6.9499,6.9614,6.9646,6.9646,6.9703,6.9703,6.9588,6.9414,6.924,6.9006,6.8889,6.8738,6.4996,6.4967,6.5222,6.5601,6.6132,6.6382,6.6629,6.6814,6.6937,6.6999,6.703,6.6882,6.6794,6.6703,6.7184,6.7545,6.7842,6.8235,6.8505,6.8682,6.883,6.8889,6.8889,6.8889,6.9006,6.9182,6.9182,6.9356,6.9646,6.9818,7.0021,7.0104,7.0419,7.0589,7.0589,7.0733,7.0789,7.0789,7.0789,7.0978,7.1181,7.1074,7.1074,7.1276,7.1655,7.2047,7.233,7.2387,7.2627,7.3107,7.3308,7.3603,7.4004,7.4171,7.4282,7.4282,7.4282,7.4282,7.4282,7.3992,7.396,7.4282,7.4024,7.3831,7.3831,7.3573,7.3196,7.2777,7.2032,7.1589,7.1589,7.1502,7.1424,7.1424,7.1369,7.1203,7.1037,7.1068,7.0925,7.0645,7.0701,7.0757,7.0645,7.0701,7.0789,7.0789,7.0789,7.0789,7.0789,7.0789,7.0757,7.0645,7.0589,7.0363,6.9933,6.9818,6.9818,6.9818,6.9818,6.9818,6.9818,6.9818,6.9818,6.9818,6.9875,6.9875,6.9761,6.9818,6.9818,6.9761,6.9588,6.9329,6.8948,6.8889,6.8889,6.506,6.5158,6.5601,6.604,6.6506,6.6629,6.6814,6.6999,6.6999,6.703,6.7182,6.7457,6.7669,6.7759,6.803,6.8238,6.8505,6.8505,6.8623,6.8889,6.8889,6.8889,6.8889,6.9006,6.9182,6.9356,6.9472,6.9646,6.9933,7.0275,7.0419,7.0476,7.0645,7.0789,7.0789,7.0789,7.0789,7.0789,7.0845,7.1386,7.2189,7.233,7.2426,7.2715,7.3161,7.3643,7.3948,7.4004,7.4244,7.4549,7.4771,7.4924,7.503,7.5196,7.5307,7.5329,7.5189,7.5244,7.5439,7.5277,7.5244,7.5407,7.5309,7.5124,7.5037,7.482,7.4496,7.3879,7.3003,7.2375,7.1862,7.1807,7.1753,7.1753,7.1698,7.1502,7.1369,7.1314,7.1203,7.0925,7.0925,7.0901,7.0845,7.0789,7.0789,7.0789,7.0789,7.0789,7.0789,7.0789,7.0789,7.0789,7.0789,7.0589,7.0161,7.0104,7.0104,7.0047,7.0104,7.0104,7.0047,7.0104,7.0104,7.0275,7.0104,7.0104,7.0161,7.0161,6.999,6.9933,6.9761,6.9561,6.9298,6.9182,6.9182,6.5158,6.5538,6.6165,6.6444,6.6506,6.6814,6.6999,6.6999,6.6999,6.7182,6.7487,6.7789,6.815,6.8358,6.8358,6.8595,6.883,6.883,6.8889,6.8889,6.8889,6.8889,6.8948,6.924,6.9356,6.9472,6.9703,7.0021,7.0337,7.062,7.0789,7.082,7.0884,7.0852,7.094,7.0971,7.082,7.1027,7.1251,7.1617,7.2341,7.3203,7.3692,7.3844,7.3788,7.4132,7.4568,7.4613,7.5157,7.6387,7.642,7.6605,7.6971,7.7037,7.7004,7.6971,7.667,7.6736,7.7194,7.6802,7.6703,7.7194,7.6714,7.6365,7.6027,7.5603,7.5104,7.4603,7.4484,7.3879,7.2811,7.2402,7.2175,7.2143,7.1807,7.1612,7.1589,7.1589,7.1479,7.1258,7.1148,7.1092,7.0901,7.0789,7.0813,7.0901,7.0845,7.0845,7.0845,7.0845,7.0789,7.0789,7.0789,7.0789,7.0701,7.0589,7.0645,7.0589,7.0532,7.0645,7.0733,7.0789,7.0733,7.0733,7.0589,7.0589,7.0701,7.0645,7.0476,7.0363,7.0249,6.999,6.9588,6.9703,6.9708,6.5664,6.6195,6.6382,6.6629,6.6814,6.6937,6.6999,6.6999,6.6999,6.7182,6.7548,6.785,6.815,6.8417,6.8654,6.8772,6.8889,6.8889,6.8889,6.8889,6.8889,6.8889,6.8948,6.924,6.9472,6.9703,7.0021,7.0526,7.1219,7.1396,7.1674,7.2021,7.2085,7.2199,7.2401,7.2401,7.2482,7.274,7.2852,7.3283,7.4117,7.4718,7.5265,7.5917,7.5749,7.5861,7.6252,7.6418,7.6736,7.7249,7.7249,7.7293,7.7412,7.7444,7.7444,7.7444,7.7325,7.7348,7.7544,7.738,7.7315,7.7544,7.738,7.7216,7.7019,7.6823,7.6529,7.6028,7.5843,7.544,7.455,7.3642,7.308,7.2994,7.2585,7.2165,7.197,7.1916,7.1807,7.1534,7.1479,7.1424,7.1314,7.1314,7.1314,7.1314,7.1148,7.1037,7.0981,7.0957,7.0845,7.0789,7.0789,7.0789,7.0789,7.0789,7.0789,7.0789,7.0789,7.0789,7.0789,7.0789,7.0789,7.0733,7.0789,7.0789,7.0789,7.0789,7.0645,7.0476,7.0363,7.0249,6.9844,7.0058,7.0276,6.6132,6.6506,6.6629,6.6814,6.6999,6.6999,6.6999,6.6969,6.7121,6.7335,6.7669,6.7999,6.8298,6.8595,6.883,6.8889,6.8889,6.8889,6.8889,6.8889,6.8889,6.8889,6.8948,6.9356,6.9646,6.9844,7.0218,7.0967,7.168,7.1832,7.2179,7.2748,7.2927,7.3041,7.3302,7.3416,7.3586,7.3756,7.3868,7.4446,7.5338,7.5682,7.6284,7.718,7.7167,7.7223,7.7477,7.7665,7.7829,7.7883,7.7883,7.7829,7.7774,7.7774,7.7774,7.7774,7.7829,7.7883,7.7883,7.7883,7.7883,7.7883,7.7883,7.7883,7.7774,7.7774,7.7457,7.7074,7.6922,7.666,7.6147,7.5223,7.4486,7.4204,7.3695,7.3275,7.308,7.3005,7.2658,7.2224,7.2028,7.19,7.1676,7.1589,7.1589,7.1589,7.1424,7.1314,7.1314,7.1092,7.0925,7.0957,7.0845,7.0845,7.0789,7.0789,7.0789,7.0789,7.0789,7.0789,7.0789,7.0789,7.0789,7.0789,7.0789,7.0789,7.0789,7.0789,7.0645,7.0476,7.0507,7.0539,7.0463,7.0568,7.0913,6.6506,6.6568,6.6876,6.6999,6.6999,6.6999,6.6999,6.706,6.7335,6.7669,6.7939,6.8238,6.8505,6.883,6.8889,6.8889,6.8889,6.8889,6.8889,6.8889,6.8889,6.8889,6.8948,6.9472,6.9818,6.9933,7.0476,7.1168,7.1863,7.1958,7.2274,7.2837,7.3321,7.3588,7.3397,7.3866,7.3972,7.4117,7.4373,7.4822,7.564,7.6112,7.6681,7.7544,7.7883,7.8025,7.8079,7.8079,7.8188,7.8403,7.8457,7.835,7.8134,7.8079,7.8134,7.8134,7.8296,7.8457,7.8457,7.8436,7.8403,7.8403,7.8457,7.8296,7.8134,7.8079,7.7992,7.7676,7.7621,7.7533,7.7435,7.6911,7.6201,7.5611,7.5081,7.4822,7.4865,7.4713,7.418,7.3379,7.2944,7.2435,7.19,7.1922,7.2041,7.1945,7.1772,7.1708,7.1621,7.1369,7.1203,7.1148,7.1037,7.0957,7.0845,7.0789,7.0789,7.0789,7.0789,7.0789,7.0789,7.0789,7.0789,7.0789,7.0789,7.0789,7.0789,7.0789,7.0789,7.0676,7.0796,7.0929,7.1125,7.1326,7.1976,6.6629,6.6876,6.6937,6.6999,6.6999,6.6999,6.6999,6.706,6.7365,6.7669,6.803,6.8298,6.8564,6.883,6.8889,6.8889,6.8889,6.8889,6.8889,6.8889,6.8889,6.8889,6.9006,6.9499,7.0047,7.0476,7.0645,7.1389,7.2274,7.2464,7.3122,7.4336,7.4643,7.4965,7.5303,7.5449,7.5676,7.6103,7.6215,7.6535,7.6974,7.7337,7.7632,7.7905,7.8242,7.835,7.835,7.835,7.8403,7.8511,7.8511,7.8457,7.8403,7.835,7.835,7.835,7.8457,7.8511,7.8511,7.8511,7.8511,7.8511,7.8511,7.8457,7.8403,7.835,7.8296,7.8242,7.8242,7.8242,7.8176,7.8077,7.7421,7.6353,7.5754,7.5471,7.5483,7.5201,7.4822,7.455,7.4235,7.3941,7.3725,7.3628,7.3347,7.296,7.2787,7.2549,7.2077,7.1794,7.1479,7.1479,7.1258,7.1068,7.0981,7.0957,7.0845,7.0845,7.0789,7.0789,7.0789,7.0789,7.0789,7.0789,7.0789,7.0789,7.0789,7.0789,7.0789,7.0978,7.1112,7.1396,7.1768,7.2243,7.278,6.6814,6.6999,6.6999,6.6999,6.6999,6.6999,6.706,6.7243,6.7548,6.785,6.8179,6.8476,6.8713,6.8889,6.8889,6.8889,6.8889,6.8889,6.8889,6.8889,6.8889,6.8889,6.9006,6.953,7.0161,7.0701,7.0789,7.1358,7.2401,7.2863,7.3702,7.4828,7.5475,7.5861,7.6296,7.6492,7.6863,7.7144,7.7278,7.7499,7.7774,7.8025,7.8134,7.8242,7.8403,7.8457,7.8511,7.8511,7.8511,7.8511,7.8511,7.8511,7.8511,7.8457,7.8511,7.8511,7.8511,7.8511,7.8511,7.8511,7.8511,7.8511,7.8511,7.8457,7.8511,7.8511,7.8511,7.8511,7.8457,7.8511,7.8457,7.8457,7.8097,7.74,7.6843,7.6461,7.6266,7.6137,7.5897,7.5712,7.544,7.5234,7.493,7.4778,7.4593,7.403,7.377,7.3563,7.2993,7.2517,7.2311,7.2009,7.1662,7.1465,7.1235,7.1068,7.0957,7.0845,7.0789,7.0789,7.0789,7.0789,7.0789,7.0789,7.0789,7.0789,7.0789,7.0789,7.082,7.1136,7.1547,7.2021,7.2432,7.2906,7.3443,6.6999,6.6999,6.6999,6.6999,6.6999,6.6999,6.7182,6.7487,6.785,6.815,6.8386,6.8713,6.8889,6.8889,6.8889,6.8889,6.8889,6.8889,6.8889,6.8889,6.8889,6.8948,6.9065,6.9588,7.0104,7.0645,7.0789,7.12,7.1926,7.2718,7.362,7.4499,7.5502,7.6321,7.6492,7.692,7.7199,7.7366,7.7499,7.7774,7.8079,7.8134,7.8242,7.8457,7.849,7.8511,7.8511,7.8511,7.8511,7.8511,7.8511,7.8511,7.8511,7.8511,7.8511,7.8511,7.8511,7.8511,7.8511,7.8511,7.8511,7.8511,7.8511,7.8511,7.8511,7.8511,7.8511,7.8511,7.8511,7.8511,7.8511,7.8511,7.8424,7.8457,7.8011,7.7795,7.7654,7.7533,7.7206,7.6812,7.6594,7.6322,7.5527,7.5462,7.5201,7.4842,7.47,7.4581,7.418,7.3628,7.326,7.2893,7.2472,7.2083,7.1885,7.1235,7.1068,7.1013,7.0901,7.082,7.0789,7.0733,7.0789,7.0789,7.082,7.082,7.0852,7.0915,7.1105,7.1516,7.2021,7.2622,7.3127,7.357,7.3949,6.6999,6.6999,6.6999,6.6999,6.6999,6.6999,6.7182,6.7548,6.785,6.8179,6.8476,6.8772,6.8889,6.8889,6.8889,6.8889,6.8889,6.8889,6.8889,6.8889,6.8889,6.9065,6.9298,6.9646,6.999,7.0419,7.0676,7.1136,7.1768,7.233,7.3257,7.469,7.5257,7.604,7.6822,7.7144,7.7422,7.7807,7.7916,7.8101,7.835,7.835,7.8403,7.8457,7.8511,7.8511,7.8511,7.8511,7.8511,7.8511,7.8511,7.8511,7.8511,7.8511,7.8511,7.8511,7.8511,7.8511,7.8511,7.8511,7.8511,7.8511,7.8511,7.8511,7.8511,7.8511,7.8511,7.8511,7.8511,7.8511,7.8511,7.8511,7.8511,7.8457,7.8403,7.835,7.8242,7.8046,7.7872,7.7708,7.7479,7.7151,7.6965,7.6812,7.654,7.5907,7.5689,7.5482,7.5047,7.4613,7.4212,7.3931,7.3508,7.299,7.2449,7.1679,7.1235,7.1092,7.1013,7.0852,7.0764,7.0589,7.0676,7.0733,7.0834,7.0866,7.1048,7.1168,7.1516,7.2021,7.2685,7.338,7.3728,7.4139,7.4423,6.6999,6.6999,6.6999,6.6999,6.6999,6.7182,6.7426,6.7729,6.7999,6.8358,6.8654,6.883,6.8889,6.8889,6.8889,6.8889,6.8889,6.8889,6.8889,6.8889,6.8889,6.9065,6.9356,6.9588,6.9875,7.0275,7.0532,7.0866,7.1414,7.2062,7.3139,7.426,7.5105,7.5982,7.7111,7.7334,7.7642,7.8025,7.8188,7.835,7.8457,7.8511,7.8511,7.8511,7.8511,7.8511,7.8511,7.8511,7.8511,7.8511,7.8511,7.8511,7.8511,7.8511,7.8511,7.8511,7.8511,7.8511,7.8511,7.8511,7.8511,7.8511,7.8511,7.8511,7.8511,7.8511,7.8511,7.8511,7.8511,7.8511,7.8511,7.8511,7.8511,7.8511,7.8511,7.8511,7.8511,7.835,7.8296,7.8242,7.8134,7.7938,7.7829,7.7829,7.7468,7.6954,7.6713,7.6352,7.5927,7.5514,7.5144,7.4872,7.4406,7.3854,7.3527,7.2875,7.2261,7.2022,7.1703,7.1414,7.1073,7.0866,7.0803,7.0922,7.0904,7.1005,7.1307,7.1768,7.2369,7.2906,7.357,7.3981,7.4297,7.4423,7.4739,6.6999,6.6999,6.6999,6.6999,6.706,6.7365,6.7669,6.803,6.8238,6.8564,6.883,6.8889,6.8889,6.8889,6.8889,6.8889,6.8889,6.8889,6.8889,6.8948,6.8948,6.9123,6.9356,6.9472,6.9818,7.0249,7.0363,7.0564,7.1091,7.2038,7.2988,7.3924,7.4959,7.6117,7.7037,7.7444,7.7774,7.8079,7.835,7.8457,7.8511,7.8511,7.8511,7.8511,7.8511,7.8511,7.8511,7.8511,7.8511,7.8511,7.8511,7.8511,7.8511,7.8511,7.8511,7.8511,7.8511,7.8511,7.8511,7.8511,7.8511,7.8511,7.8511,7.8511,7.8511,7.8511,7.8511,7.8511,7.8511,7.8511,7.8511,7.8511,7.8511,7.8511,7.8511,7.8511,7.8511,7.8511,7.8511,7.8511,7.849,7.835,7.8242,7.8134,7.7992,7.7523,7.7435,7.714,7.6811,7.6473,7.6144,7.589,7.5381,7.472,7.4457,7.4171,7.362,7.3179,7.2712,7.2382,7.1755,7.1421,7.1231,7.1206,7.1477,7.1724,7.1901,7.2432,7.3096,7.3507,7.3949,7.4328,7.4676,7.4707,7.4897,6.6999,6.6999,6.6999,6.6999,6.706,6.7335,6.7669,6.803,6.8298,6.8654,6.883,6.8889,6.8889,6.8889,6.8889,6.8889,6.8889,6.8889,6.8889,6.8948,6.9182,6.9298,6.9472,6.9646,6.9933,7.0275,7.0589,7.0733,7.102,7.1632,7.254,7.3772,7.466,7.5654,7.7037,7.7444,7.7774,7.8079,7.835,7.8457,7.8511,7.8511,7.8511,7.8511,7.8511,7.8511,7.8511,7.8511,7.8511,7.8511,7.8511,7.8511,7.8511,7.8511,7.8511,7.8511,7.8511,7.8511,7.8511,7.8511,7.8511,7.8511,7.8511,7.8511,7.8511,7.8511,7.8511,7.8511,7.8511,7.8511,7.8511,7.8511,7.8511,7.8511,7.8511,7.8511,7.8511,7.8511,7.8511,7.8511,7.8511,7.8457,7.8403,7.8403,7.8242,7.8079,7.7916,7.7829,7.7566,7.7358,7.704,7.6688,7.6196,7.5621,7.5335,7.5015,7.4486,7.4171,7.3766,7.3321,7.2693,7.2452,7.2363,7.228,7.2265,7.2417,7.2622,7.3159,7.3823,7.4075,7.4297,7.4581,7.4802,7.4866,7.4897,6.6999,6.6999,6.6999,6.6999,6.706,6.7517,6.785,6.809,6.8476,6.8713,6.8889,6.8889,6.8889,6.8889,6.8889,6.8889,6.8889,6.8889,6.9006,6.9123,6.9356,6.9561,6.9849,6.9933,7.0161,7.0363,7.0476,7.0645,7.11,7.1751,7.2787,7.3948,7.4716,7.5881,7.7037,7.7444,7.7774,7.8079,7.835,7.8511,7.8511,7.8511,7.8511,7.8511,7.8511,7.8511,7.8511,7.8511,7.8511,7.8511,7.8511,7.8511,7.8511,7.8511,7.8511,7.8511,7.8511,7.8511,7.8511,7.8511,7.8511,7.8511,7.8511,7.8511,7.8511,7.8511,7.8511,7.8511,7.8511,7.8511,7.8511,7.8511,7.8511,7.8511,7.8511,7.8511,7.8511,7.8511,7.8511,7.8511,7.8511,7.8511,7.8457,7.8511,7.8457,7.8242,7.8242,7.8134,7.7938,7.773,7.7599,7.7281,7.6897,7.6502,7.6303,7.5861,7.5234,7.5007,7.4811,7.4276,7.3722,7.3644,7.3628,7.3354,7.2953,7.3201,7.3443,7.3981,7.4328,7.4486,7.4676,7.4834,7.4897,7.4897,7.4897,6.6999,6.6999,6.6999,6.6999,6.7182,6.7729,6.803,6.8119,6.8654,6.8889,6.8889,6.8889,6.8889,6.8889,6.8889,6.8889,6.8889,6.8948,6.9065,6.9329,6.9414,6.9761,7.0135,7.0306,7.0363,7.0419,7.0532,7.0813,7.1338,7.2237,7.3178,7.4203,7.5191,7.6173,7.7037,7.7444,7.7774,7.8079,7.835,7.8511,7.8511,7.8511,7.8511,7.8511,7.8511,7.8511,7.8511,7.8511,7.8511,7.8511,7.8511,7.8511,7.8511,7.8511,7.8511,7.8511,7.8511,7.8511,7.8511,7.8511,7.8511,7.8511,7.8511,7.8511,7.8511,7.8511,7.8511,7.8511,7.8511,7.8511,7.8511,7.8511,7.8511,7.8511,7.8511,7.8511,7.8511,7.8511,7.8511,7.8511,7.8511,7.8511,7.8511,7.8511,7.8511,7.8511,7.8511,7.8457,7.8242,7.8134,7.7971,7.7774,7.7446,7.705,7.6795,7.6483,7.5886,7.5741,7.561,7.5253,7.4742,7.4664,7.449,7.3881,7.3638,7.3886,7.4075,7.4391,7.4676,7.4866,7.4897,7.4897,7.4897,7.4897,7.4897,6.6999,6.6999,6.6999,6.7182,6.7426,6.785,6.8119,6.8358,6.8713,6.8889,6.8889,6.8889,6.8889,6.8889,6.8889,6.8889,6.8889,6.8948,6.9123,6.9414,6.9646,6.999,7.0275,7.0589,7.0701,7.0789,7.0925,7.1148,7.1473,7.2426,7.344,7.4259,7.5191,7.6238,7.7004,7.7444,7.7774,7.8079,7.835,7.8457,7.8511,7.8511,7.8511,7.8511,7.8511,7.8511,7.8511,7.8511,7.8511,7.8511,7.8511,7.8511,7.8511,7.8511,7.8511,7.8511,7.8511,7.8511,7.8511,7.8511,7.8511,7.8511,7.8511,7.8511,7.8511,7.8511,7.8511,7.8511,7.8511,7.8511,7.8511,7.8511,7.8511,7.8511,7.8511,7.8511,7.8511,7.8511,7.8511,7.8511,7.8511,7.8511,7.8511,7.8511,7.8511,7.8511,7.8511,7.8511,7.8403,7.835,7.8242,7.8134,7.7992,7.761,7.719,7.6911,7.6532,7.6411,7.6273,7.6046,7.572,7.5701,7.5374,7.4707,7.4383,7.4545,7.4767,7.4802,7.4834,7.4897,7.4897,7.4897,7.4897,7.4897,7.4897,6.6999,6.6999,6.6999,6.7182,6.7548,6.785,6.815,6.8386,6.8772,6.8889,6.8889,6.8889,6.8889,6.8889,6.8889,6.8889,6.8948,6.9123,6.9298,6.9588,6.9933,7.0218,7.0532,7.0901,7.0981,7.1148,7.1424,7.1534,7.1543,7.2536,7.3518,7.4393,7.5303,7.6238,7.7037,7.7444,7.7774,7.8079,7.835,7.8511,7.8511,7.8511,7.8511,7.8511,7.8511,7.8511,7.8511,7.8511,7.8511,7.8511,7.8511,7.8511,7.8511,7.8511,7.8511,7.8511,7.8511,7.8511,7.8511,7.8511,7.8511,7.8511,7.8511,7.8511,7.8511,7.8511,7.8511,7.8511,7.8511,7.8511,7.8511,7.8511,7.8511,7.8511,7.8511,7.8511,7.8511,7.8511,7.8511,7.8511,7.8511,7.8511,7.8511,7.8511,7.8511,7.8511,7.8511,7.8511,7.8511,7.8457,7.8403,7.8296,7.8188,7.7862,7.7532,7.7199,7.6952,7.6896,7.6751,7.6524,7.6353,7.6181,7.5861,7.5443,7.5337,7.5193,7.4956,7.4834,7.4866,7.4897,7.4897,7.4897,7.4897,7.4897,7.4897,6.6999,6.6999,6.6999,6.7182,6.7548,6.785,6.815,6.8386,6.8772,6.8889,6.8889,6.8889,6.8889,6.8889,6.8889,6.8889,6.8948,6.9271,6.953,6.9818,7.0104,7.0476,7.0757,7.1037,7.1148,7.1258,7.1753,7.197,7.1936,7.2755,7.3618,7.4364,7.5196,7.6164,7.6952,7.7511,7.7796,7.8134,7.835,7.8457,7.8511,7.8511,7.8511,7.8511,7.8511,7.8511,7.8511,7.8511,7.8511,7.8511,7.8511,7.8511,7.8511,7.8511,7.8511,7.8511,7.8511,7.8511,7.8511,7.8511,7.8511,7.8511,7.8511,7.8511,7.8511,7.8511,7.8511,7.8511,7.8511,7.8511,7.8511,7.8511,7.8511,7.8511,7.8511,7.8511,7.8511,7.8511,7.8511,7.8511,7.8511,7.8511,7.8511,7.8511,7.8511,7.8511,7.8511,7.8511,7.8511,7.8511,7.8457,7.8403,7.8242,7.8025,7.7752,7.7477,7.7255,7.7088,7.6976,7.6807,7.6581,7.641,7.6181,7.5951,7.5777,7.5603,7.531,7.4956,7.5016,7.5016,7.4956,7.4897,7.4897,7.4897,7.4897,6.6999,6.6999,6.6999,6.7182,6.7548,6.785,6.8119,6.8386,6.8772,6.8889,6.8889,6.8889,6.8889,6.8889,6.8889,6.8889,6.9006,6.924,6.953,6.9818,7.0161,7.0476,7.0813,7.1037,7.1203,7.1369,7.1862,7.2025,7.2207,7.2972,7.3523,7.4052,7.5092,7.6245,7.6747,7.7413,7.8188,7.8403,7.8457,7.8511,7.8511,7.8511,7.8511,7.8511,7.8511,7.8511,7.8511,7.8511,7.8511,7.8511,7.8511,7.8511,7.8511,7.8511,7.8511,7.8511,7.8511,7.8511,7.8511,7.8511,7.8511,7.8511,7.8511,7.8511,7.8511,7.8511,7.8511,7.8511,7.8511,7.8511,7.8511,7.8511,7.8511,7.8511,7.8511,7.8511,7.8511,7.8511,7.8511,7.8511,7.8511,7.8511,7.8511,7.8511,7.8511,7.8511,7.8511,7.8511,7.8511,7.8511,7.8511,7.8457,7.8403,7.8188,7.8025,7.7807,7.7587,7.7366,7.7199,7.7032,7.6863,7.6694,7.6524,7.6353,7.6239,7.5951,7.5603,7.5369,7.5225,7.5134,7.5134,7.5075,7.4866,7.4897,7.5016,6.6999,6.6999,6.6999,6.7182,6.7548,6.785,6.8119,6.8417,6.8772,6.8889,6.8889,6.8889,6.8889,6.8889,6.8889,6.8889,6.9006,6.924,6.953,6.9818,7.0161,7.0476,7.0813,7.1203,7.1424,7.1589,7.197,7.2348,7.2531,7.2746,7.3124,7.3696,7.4551,7.5517,7.643,7.716,7.7825,7.8271,7.8511,7.8511,7.8511,7.8511,7.8511,7.8511,7.8511,7.8511,7.8511,7.8511,7.8511,7.8511,7.8511,7.8511,7.8511,7.8511,7.8511,7.8511,7.8511,7.8511,7.8511,7.8511,7.8511,7.8511,7.8511,7.8511,7.8511,7.8511,7.8511,7.8511,7.8511,7.8511,7.8511,7.8511,7.8511,7.8511,7.8511,7.8511,7.8511,7.8511,7.8511,7.8511,7.8511,7.8511,7.8511,7.8511,7.8511,7.8511,7.8511,7.8511,7.8511,7.8511,7.8511,7.8457,7.8403,7.835,7.8242,7.8079,7.7971,7.7752,7.7499,7.7366,7.7144,7.7008,7.6807,7.6726,7.6613,7.6328,7.5983,7.5719,7.5545,7.5486,7.5396,7.5279,7.522,7.5337,7.5454,6.6999,6.6999,6.6999,6.7182,6.7517,6.785,6.8119,6.8446,6.8772,6.8889,6.8889,6.8889,6.8889,6.8889,6.8889,6.8889,6.8948,6.9298,6.9588,6.9875,7.0249,7.0532,7.0869,7.1314,7.1589,7.1644,7.2187,7.2455,7.2508,7.2605,7.2864,7.3372,7.404,7.4939,7.6058,7.6939,7.7655,7.8424,7.8511,7.8511,7.8511,7.8511,7.8511,7.8511,7.8511,7.8511,7.8511,7.8511,7.8511,7.8511,7.8511,7.8511,7.8511,7.8511,7.8511,7.8511,7.8511,7.8511,7.8511,7.8511,7.8511,7.8511,7.8511,7.8511,7.8511,7.8511,7.8511,7.8511,7.8511,7.8511,7.8511,7.8511,7.8511,7.8511,7.8511,7.8511,7.8511,7.8511,7.8511,7.8511,7.8511,7.8511,7.8511,7.8511,7.8511,7.8511,7.8511,7.8511,7.8511,7.8511,7.8511,7.8511,7.8457,7.8403,7.8403,7.8296,7.8188,7.8079,7.7883,7.761,7.7422,7.7255,7.7199,7.7032,7.6896,7.667,7.6385,7.6124,7.5861,7.5745,7.5571,7.5603,7.5603,7.5745,7.5803,6.6999,6.6999,6.6999,6.7182,6.7548,6.785,6.8119,6.8386,6.8772,6.8889,6.8889,6.8889,6.8889,6.8889,6.8889,6.8889,6.8948,6.9499,6.9729,6.999,7.0419,7.0701,7.0981,7.1314,7.1644,7.1721,7.224,7.2508,7.2508,7.2508,7.2541,7.2691,7.369,7.4653,7.5804,7.6914,7.7742,7.8411,7.8511,7.8511,7.8511,7.8511,7.8511,7.8511,7.8511,7.8511,7.8511,7.8511,7.8511,7.8511,7.8511,7.8511,7.8511,7.8511,7.8511,7.8511,7.8511,7.8511,7.8511,7.8511,7.8511,7.8511,7.8511,7.8511,7.8511,7.8511,7.8511,7.8511,7.8511,7.8511,7.8511,7.8511,7.8511,7.8511,7.8511,7.8511,7.8511,7.8511,7.8511,7.8511,7.8511,7.8511,7.8511,7.8511,7.8511,7.8511,7.8511,7.8511,7.8511,7.8511,7.8511,7.8511,7.8511,7.8457,7.8457,7.8403,7.835,7.8242,7.8134,7.7916,7.7665,7.7555,7.7532,7.7311,7.7144,7.7008,7.6839,7.6581,7.6264,7.5919,7.5835,7.5951,7.5951,7.5951,7.6009,6.6999,6.6999,6.7243,6.7426,6.7517,6.785,6.8119,6.8386,6.8772,6.8889,6.8889,6.8889,6.8889,6.8889,6.8948,6.9006,6.9182,6.9414,6.9761,7.0047,7.0419,7.0701,7.1037,7.1369,7.1698,7.1916,7.2348,7.2508,7.2508,7.2508,7.2508,7.2798,7.3416,7.4445,7.5595,7.7066,7.8039,7.8378,7.8511,7.8511,7.8511,7.8511,7.8511,7.8511,7.8511,7.8511,7.8511,7.8511,7.8511,7.8511,7.8511,7.8511,7.8511,7.8511,7.8511,7.8511,7.8511,7.8511,7.8511,7.8511,7.8511,7.8511,7.8511,7.8511,7.8511,7.8511,7.8511,7.8511,7.8511,7.8511,7.8511,7.8511,7.8511,7.8511,7.8511,7.8511,7.8577,7.8577,7.8676,7.8742,7.861,7.8511,7.8511,7.8511,7.8511,7.8511,7.8511,7.8511,7.8511,7.8511,7.8511,7.8511,7.8511,7.8511,7.8511,7.8457,7.8457,7.8403,7.8296,7.8134,7.7971,7.7883,7.7862,7.7642,7.7422,7.7311,7.7144,7.6976,7.6694,7.6353,7.6353,7.6442,7.6385,7.6239,7.6181,6.706,6.7182,6.7426,6.7548,6.7669,6.797,6.8298,6.8595,6.8772,6.8889,6.8889,6.8889,6.8889,6.8948,6.9065,6.9123,6.9414,6.9646,6.9964,7.0249,7.0476,7.0757,7.1148,7.1479,7.1753,7.2079,7.2348,7.2508,7.2508,7.2508,7.2508,7.2635,7.3103,7.415,7.5673,7.7363,7.8457,7.8511,7.8511,7.8511,7.8511,7.8511,7.8511,7.8511,7.8511,7.8511,7.8511,7.8511,7.8511,7.8511,7.8511,7.8511,7.8511,7.8511,7.8511,7.8511,7.8511,7.8511,7.8511,7.8511,7.8511,7.8511,7.8511,7.8511,7.8511,7.8511,7.8511,7.8511,7.8511,7.8511,7.8511,7.8511,7.8511,7.8511,7.8511,7.8544,7.8676,7.8742,7.8875,7.8974,7.9007,7.9306,7.9339,7.9372,7.8974,7.8842,7.8544,7.8511,7.8511,7.8511,7.8511,7.8511,7.8511,7.8511,7.8511,7.849,7.8523,7.8457,7.8403,7.835,7.8242,7.8242,7.8134,7.7916,7.7752,7.761,7.7444,7.7278,7.7032,7.6783,7.6783,7.6726,7.667,7.6499,7.6556,6.7152,6.7487,6.7548,6.7729,6.803,6.8298,6.8595,6.883,6.8889,6.8889,6.8889,6.8948,6.8948,6.9006,6.924,6.9414,6.9588,6.999,7.0306,7.0476,7.0701,7.0925,7.1258,7.1589,7.1862,7.2133,7.2348,7.2508,7.2508,7.2508,7.2508,7.27,7.3201,7.4189,7.5566,7.7515,7.8424,7.8511,7.8511,7.8511,7.8511,7.8511,7.8511,7.8511,7.8511,7.8511,7.8511,7.8511,7.8511,7.8511,7.8511,7.8511,7.8511,7.8511,7.8511,7.8511,7.8511,7.8511,7.8511,7.8511,7.8511,7.8511,7.8511,7.8511,7.8511,7.8511,7.8511,7.8511,7.8511,7.8511,7.8511,7.8511,7.8511,7.8676,7.8709,7.8908,7.9074,7.9272,7.9471,7.9571,8.0134,8.0564,8.0564,8.0399,7.9703,7.9239,7.8742,7.861,7.8776,7.8908,7.9074,7.9107,7.914,7.8941,7.8974,7.8709,7.8643,7.8577,7.8457,7.8457,7.8403,7.8403,7.8242,7.8134,7.8025,7.7971,7.7774,7.7555,7.7366,7.712,7.6952,7.6896,7.6839,7.6839,7.6952,6.7426,6.7548,6.7939,6.8179,6.8298,6.8358,6.8595,6.8889,6.8889,6.8889,6.8948,6.9123,6.924,6.9298,6.953,6.9761,6.999,7.0104,7.0419,7.0869,7.1068,7.1369,7.1698,7.1862,7.2079,7.2294,7.2508,7.2508,7.2508,7.2508,7.2508,7.27,7.3514,7.4741,7.609,7.7629,7.8457,7.8511,7.8511,7.8511,7.8511,7.8511,7.8511,7.8511,7.8511,7.8511,7.8511,7.8511,7.8511,7.8511,7.8511,7.8511,7.8511,7.8511,7.8511,7.8511,7.8511,7.8511,7.8511,7.8511,7.8511,7.8511,7.8511,7.8511,7.8511,7.8511,7.8511,7.8544,7.8556,7.8577,7.8511,7.8544,7.8676,7.9206,7.9405,7.9703,7.9935,8.0134,8.0332,8.0332,8.0664,8.0829,8.0896,8.1128,8.0664,8.0432,8.0067,7.9802,7.9902,8.0001,8.0134,8.0134,8.0101,7.9736,7.9471,7.9339,7.9041,7.8941,7.8709,7.8457,7.8457,7.8709,7.8556,7.8461,7.8362,7.8296,7.8046,7.7829,7.761,7.7422,7.7366,7.7255,7.7255,7.7311,7.7334,6.7699,6.7819,6.8238,6.8446,6.8564,6.8564,6.8772,6.9065,6.9182,6.924,6.9267,6.9472,6.953,6.9646,6.9875,7.0047,7.0306,7.0589,7.0701,7.1203,7.1314,7.1644,7.1916,7.2133,7.224,7.2455,7.2508,7.2508,7.2508,7.2508,7.2668,7.301,7.3848,7.476,7.6049,7.7185,7.8246,7.8378,7.8511,7.8511,7.8511,7.8511,7.8511,7.8511,7.8511,7.8511,7.8511,7.8511,7.8511,7.8511,7.8511,7.8511,7.8511,7.8511,7.8511,7.8511,7.8511,7.8511,7.8511,7.8511,7.8511,7.8511,7.8511,7.8511,7.8511,7.8511,7.8511,7.8577,7.8689,7.8875,7.8941,7.8941,7.9405,7.9935,8.0101,8.0366,8.0564,8.0763,8.1061,8.1061,8.1293,8.1326,8.1359,8.1525,8.1624,8.1525,8.1459,8.1194,8.0896,8.0863,8.0896,8.0863,8.0763,8.0399,8.0134,8.0034,7.9736,7.9339,7.9173,7.9074,7.9173,7.9438,7.914,7.8809,7.8656,7.8449,7.8296,7.8079,7.7971,7.7916,7.7971,7.7829,7.7665,7.7665,7.7719,6.8119,6.8386,6.8386,6.8623,6.8889,6.9006,6.9123,6.9414,6.9646,6.9761,6.9761,6.9761,6.9818,6.9933,7.0161,7.0363,7.0444,7.0925,7.1148,7.1314,7.1589,7.1862,7.2079,7.2187,7.2348,7.2455,7.2508,7.2508,7.2508,7.2508,7.2741,7.3208,7.3823,7.4615,7.5554,7.6471,7.7497,7.8014,7.8444,7.8477,7.8511,7.8511,7.8511,7.8511,7.8511,7.8511,7.8511,7.8511,7.8511,7.8511,7.8511,7.8511,7.8511,7.8511,7.8511,7.8511,7.8511,7.8511,7.8511,7.8511,7.8511,7.8511,7.8511,7.8511,7.8577,7.8643,7.8809,7.9007,7.9239,7.9471,7.9637,8.0067,8.0465,8.0664,8.073,8.0896,8.1061,8.1326,8.1691,8.1956,8.232,8.2453,8.2386,8.2486,8.2254,8.2287,8.2154,8.1923,8.1624,8.1359,8.1359,8.1326,8.1161,8.0929,8.0796,8.0763,8.0432,8.0034,8.0167,8.0101,8.02,8.0101,7.9802,7.9438,7.8941,7.8656,7.8416,7.835,7.8403,7.8403,7.8296,7.8188,7.7938,7.7883,7.7829,6.8358,6.8386,6.8623,6.8948,6.9298,6.9703,6.9703,6.9414,6.9703,6.9818,6.9787,7.0047,7.0161,7.0161,7.0476,7.0701,7.0925,7.1148,7.1479,7.1698,7.1916,7.2133,7.2294,7.2401,7.2455,7.2455,7.2508,7.2508,7.2508,7.2508,7.2668,7.305,7.3476,7.4116,7.4889,7.5591,7.6603,7.7517,7.808,7.8345,7.8477,7.8477,7.8511,7.8511,7.8511,7.8511,7.8511,7.8511,7.8511,7.8511,7.8511,7.8511,7.8511,7.8511,7.8511,7.8511,7.8511,7.8511,7.8511,7.8511,7.8511,7.8544,7.8577,7.8511,7.8643,7.8941,7.9206,7.9504,7.9935,8.0266,8.0465,8.0796,8.1194,8.1393,8.1492,8.1624,8.179,8.2022,8.2386,8.2453,8.2817,8.285,8.2883,8.2817,8.2618,8.2784,8.2784,8.2519,8.2287,8.2022,8.1889,8.1856,8.1856,8.1691,8.1558,8.1492,8.1094,8.0796,8.0962,8.0962,8.0796,8.0631,8.0465,8.0101,7.9604,7.9074,7.8523,7.8556,7.8742,7.8544,7.8403,7.835,7.8296,7.8188,7.8134,6.8889,6.8976,6.9182,6.9356,6.9646,7.0104,6.9922,6.9537,6.9922,7.0161,7.0218,7.0419,7.0476,7.0532,7.0733,7.0957,7.1148,7.1314,7.1644,7.197,7.2187,7.2348,7.2455,7.2508,7.2508,7.2508,7.2508,7.2508,7.2508,7.2562,7.2668,7.29,7.3162,7.3736,7.439,7.5077,7.5728,7.6622,7.7384,7.7914,7.8179,7.8345,7.8511,7.8511,7.8511,7.8511,7.8511,7.8511,7.8511,7.8511,7.8511,7.8511,7.8511,7.8511,7.8511,7.8511,7.8511,7.8511,7.8511,7.8511,7.8511,7.861,7.8742,7.8974,7.9074,7.9339,7.9703,8.0067,8.0664,8.1161,8.126,8.1393,8.179,8.2154,8.2287,8.2419,8.2618,8.2784,8.285,8.285,8.2883,8.2883,8.2883,8.2883,8.2883,8.2883,8.2883,8.2784,8.2684,8.2585,8.2486,8.2486,8.2552,8.2552,8.2386,8.2121,8.1923,8.1757,8.1889,8.1823,8.1492,8.1227,8.1028,8.0697,8.0299,7.9736,7.9173,7.9007,7.9041,7.8809,7.8577,7.8457,7.8403,7.8403,7.835,6.9588,6.9787,6.9818,6.9787,6.9875,7.0218,6.9986,6.9483,7.021,7.0631,7.0536,7.0568,7.0441,7.0227,7.0283,7.0664,7.0972,7.1224,7.1679,7.21,7.2348,7.2455,7.2508,7.2508,7.2508,7.2508,7.2508,7.2508,7.2508,7.2508,7.2615,7.288,7.3162,7.352,7.3891,7.4647,7.5165,7.5463,7.6424,7.7185,7.7616,7.8047,7.8477,7.8511,7.8511,7.8511,7.8511,7.8511,7.8511,7.8511,7.8511,7.8511,7.8511,7.8511,7.8511,7.8511,7.8511,7.8511,7.8511,7.8511,7.8511,7.8709,7.9053,7.9405,7.9571,8.0034,8.0498,8.0829,8.1393,8.179,8.1956,8.2121,8.2419,8.2552,8.2618,8.2684,8.2784,8.2883,8.2883,8.2883,8.2883,8.2883,8.2883,8.2883,8.2883,8.2883,8.2883,8.2883,8.2883,8.2883,8.2883,8.2883,8.2883,8.285,8.2784,8.2618,8.2718,8.2718,8.2684,8.2618,8.2254,8.1923,8.1624,8.126,8.0896,8.0432,7.9968,7.967,7.9306,7.8974,7.8742,7.8577,7.8511,7.8544,7.8511,6.9761,6.9818,7.0047,7.0161,7.0218,7.0532,7.0235,6.9604,6.9785,6.9651,6.9272,6.9209,6.9272,6.9367,6.9422,6.9831,7.0617,7.0876,7.1488,7.1982,7.2379,7.2346,7.2476,7.2443,7.2476,7.2508,7.2508,7.2508,7.2508,7.2508,7.2529,7.2635,7.3057,7.337,7.3506,7.4247,7.4568,7.4668,7.533,7.6424,7.7185,7.7517,7.7848,7.8246,7.8477,7.8477,7.8477,7.8511,7.8511,7.8511,7.8511,7.8511,7.8511,7.8511,7.8511,7.8511,7.8511,7.8511,7.8511,7.8511,7.8511,7.8544,7.8908,7.9537,8.0167,8.0863,8.1359,8.1691,8.2022,8.2353,8.2618,8.2784,8.2883,8.2883,8.2883,8.2883,8.2883,8.2883,8.2883,8.2883,8.2883,8.2883,8.2883,8.2883,8.2883,8.2883,8.2883,8.2883,8.2883,8.2883,8.2883,8.2883,8.2883,8.2883,8.2883,8.2883,8.2883,8.2883,8.2784,8.2817,8.2883,8.2552,8.2154,8.1823,8.1459,8.1061,8.0598,7.9968,7.9604,7.9372,7.9007,7.8842,7.8643,7.861,7.8577,7.0104,7.0275,7.0419,7.0532,7.0532,7.0701,7.022,6.9367,6.924,6.8671,6.8008,6.8355,6.8671,6.8726,6.878,6.92,7.0076,7.0236,7.0694,7.1367,7.1925,7.1958,7.2087,7.2314,7.2476,7.2508,7.2508,7.2508,7.2508,7.2508,7.2562,7.2582,7.3005,7.3318,7.3422,7.3833,7.4171,7.4255,7.4686,7.543,7.6523,7.6788,7.7285,7.7782,7.8047,7.8179,7.8477,7.8511,7.8511,7.8511,7.8511,7.8511,7.8511,7.8511,7.8511,7.8511,7.8511,7.8511,7.8511,7.8511,7.8511,7.8544,7.8908,7.967,8.0432,8.1128,8.1856,8.2188,8.2419,8.2751,8.2751,8.2883,8.2883,8.2883,8.2883,8.2883,8.2883,8.2883,8.2883,8.2883,8.2883,8.2883,8.2883,8.2883,8.2883,8.2883,8.2883,8.2883,8.2883,8.2883,8.2883,8.2883,8.2883,8.2883,8.2883,8.2883,8.2883,8.2883,8.2883,8.2883,8.2883,8.2883,8.2718,8.2353,8.2088,8.1889,8.1326,8.0697,8.0299,8.0134,7.9637,7.9107,7.8941,7.8742,7.861,7.0532,7.0789,7.0789,7.0789,7.0789,7.0789,7.0062,6.8988,6.8735,6.8008,6.7091,6.7998,6.841,6.8581,6.8743,6.9042,6.934,6.9636,7.0014,7.0558,7.1116,7.1245,7.1569,7.1925,7.2217,7.2443,7.2508,7.2508,7.2508,7.2508,7.2562,7.2582,7.29,7.3266,7.3473,7.3782,7.412,7.4171,7.442,7.4568,7.5198,7.5827,7.6523,7.702,7.7417,7.7749,7.8179,7.8477,7.8477,7.8511,7.8511,7.8511,7.8511,7.8511,7.8511,7.8511,7.8511,7.8511,7.8511,7.8511,7.8511,7.8676,7.9239,7.9802,8.0531,8.1227,8.1956,8.2552,8.2784,8.2883,8.2883,8.2883,8.2883,8.2883,8.2883,8.2883,8.2883,8.2883,8.2883,8.2883,8.2883,8.2883,8.2883,8.2883,8.2883,8.2883,8.2883,8.2883,8.2883,8.2883,8.2883,8.2883,8.2883,8.2883,8.2883,8.2883,8.2883,8.2883,8.2883,8.2883,8.2883,8.2883,8.2883,8.285,8.2618,8.2353,8.2121,8.1591,8.126,8.0896,8.0299,7.9703,7.9251,7.9107,7.8776,7.0733,7.0789,7.0789,7.0789,7.0789,7.0789,7.0283,6.9493,6.8893,6.8197,6.7556,6.7229,6.7314,6.7314,6.7366,6.7851,6.8897,6.9053,6.9692,7.0384,7.0468,7.0565,7.0857,7.144,7.1958,7.2249,7.2443,7.2508,7.2508,7.2508,7.2508,7.2562,7.2741,7.311,7.337,7.3679,7.3968,7.412,7.4221,7.4387,7.4553,7.5132,7.5794,7.6424,7.7119,7.7384,7.7749,7.8246,7.8444,7.8511,7.8511,7.8511,7.8511,7.8511,7.8511,7.8511,7.8511,7.8511,7.8511,7.8511,7.8511,7.8544,7.9007,7.9405,8.0101,8.0763,8.1591,8.2585,8.2817,8.2883,8.2883,8.2883,8.2883,8.2883,8.2883,8.2883,8.2883,8.2883,8.2883,8.2883,8.2883,8.2883,8.2883,8.2883,8.2883,8.2883,8.2883,8.2883,8.2883,8.2883,8.2883,8.2883,8.2883,8.2883,8.2883,8.2883,8.2883,8.2883,8.2883,8.2883,8.2883,8.2883,8.2883,8.2883,8.2883,8.2718,8.2453,8.2188,8.1956,8.1525,8.0929,8.0366,7.9935,7.9417,7.9107]}]]